[[{"header":{"parameterUnit":"m.s-1","parameterCategory":1,"la1":30.6,"la2":29.2853,"lo1":-89.7004,"lo2":-87.6739,"dy":0.0162,"dx":0.0183,"nx":112,"ny":82,"refTime":"2023-03-06T06:00:00:Z","depth":0,"parameterNumber":2,"parameterNumberName":"U-component_of_WINDS"},"data":[0.0,0.0,0.0,0.0,0.0,0.0,0.0,0.0,0.0,0.0,0.0,0.0,0.0,0.0,0.0,0.0,0.0,0.0,0.0,0.0,0.0,0.0,0.0,0.0,0.0,0.0,0.0,0.0,0.0,0.0,0.0,0.0,0.0,0.0,0.0,0.0,0.0,0.0,0.0,0.0,0.0,0.0,0.0,0.0,0.0,0.0,0.0,0.0,0.0,0.0,0.0,0.0,0.0,0.0,0.0,0.0,0.0,0.0,0.0,0.0,0.0,0.0,0.0,0.0,0.0,0.0,0.0,0.0,0.0,0.0,0.0,0.0,0.0,0.0,0.0,0.0,0.0,0.0,0.0,0.0,0.0,0.0,0.0,0.0,0.0,0.0,0.0,0.0,0.0,0.0,-2.7709,-2.9804,-3.1524,-3.2557,-3.2662,-3.1255,-2.9609,-2.7869,0.0,0.0,0.0,0.0,0.0,0.0,0.0,0.0,0.0,0.0,0.0,0.0,0.0,0.0,0.0,0.0,0.0,0.0,0.0,0.0,0.0,0.0,0.0,0.0,0.0,0.0,0.0,0.0,0.0,0.0,0.0,0.0,0.0,0.0,0.0,0.0,0.0,0.0,0.0,0.0,0.0,0.0,0.0,0.0,0.0,0.0,0.0,0.0,0.0,0.0,0.0,0.0,0.0,0.0,0.0,0.0,0.0,0.0,0.0,0.0,0.0,0.0,0.0,0.0,0.0,0.0,0.0,0.0,0.0,0.0,0.0,0.0,0.0,0.0,0.0,0.0,0.0,0.0,0.0,0.0,0.0,0.0,0.0,0.0,0.0,0.0,0.0,0.0,0.0,0.0,0.0,0.0,0.0,0.0,0.0,0.0,0.0,0.0,0.0,0.0,0.0,0.0,0.0,0.0,-2.9265,-3.1794,-3.2303,-3.2736,-3.3305,-3.112,-2.9355,-2.8502,0.0,0.0,0.0,0.0,0.0,0.0,0.0,0.0,0.0,0.0,0.0,0.0,0.0,0.0,0.0,0.0,0.0,0.0,0.0,0.0,0.0,0.0,0.0,0.0,0.0,0.0,0.0,0.0,0.0,0.0,0.0,0.0,0.0,0.0,0.0,0.0,0.0,0.0,0.0,0.0,0.0,0.0,0.0,0.0,0.0,0.0,0.0,0.0,0.0,0.0,0.0,0.0,0.0,0.0,0.0,0.0,0.0,0.0,0.0,0.0,0.0,0.0,0.0,0.0,0.0,0.0,0.0,0.0,0.0,0.0,0.0,0.0,0.0,0.0,0.0,0.0,0.0,0.0,0.0,0.0,0.0,0.0,0.0,0.0,0.0,0.0,0.0,0.0,0.0,0.0,0.0,0.0,0.0,0.0,0.0,0.0,0.0,0.0,0.0,0.0,0.0,0.0,0.0,-2.9146,-3.0763,-3.2318,-3.2841,-3.3021,-3.2961,-3.0881,-2.9295,-2.8637,-2.8248,0.0,0.0,0.0,0.0,0.0,0.0,0.0,0.0,0.0,0.0,0.0,0.0,0.0,0.0,0.0,0.0,0.0,0.0,0.0,0.0,0.0,0.0,0.0,0.0,0.0,0.0,0.0,0.0,0.0,0.0,0.0,0.0,0.0,0.0,0.0,0.0,0.0,0.0,0.0,0.0,0.0,0.0,0.0,0.0,0.0,0.0,0.0,0.0,0.0,0.0,0.0,0.0,0.0,0.0,0.0,0.0,0.0,0.0,0.0,0.0,0.0,0.0,0.0,0.0,0.0,0.0,0.0,0.0,0.0,0.0,0.0,0.0,0.0,0.0,0.0,0.0,0.0,0.0,0.0,0.0,0.0,0.0,0.0,0.0,0.0,0.0,0.0,0.0,0.0,0.0,0.0,0.0,0.0,0.0,0.0,0.0,0.0,0.0,0.0,0.0,0.0,0.0,-3.0614,-3.1989,-3.2677,-3.32,-3.3155,-3.2318,-3.0627,-2.9295,-2.8637,-2.7974,0.0,0.0,0.0,0.0,0.0,0.0,0.0,0.0,0.0,0.0,0.0,0.0,0.0,0.0,0.0,0.0,0.0,0.0,0.0,0.0,0.0,0.0,0.0,0.0,0.0,0.0,0.0,0.0,0.0,0.0,0.0,0.0,0.0,0.0,0.0,0.0,0.0,0.0,0.0,0.0,0.0,0.0,0.0,0.0,0.0,0.0,0.0,0.0,0.0,0.0,0.0,0.0,0.0,0.0,0.0,0.0,0.0,0.0,0.0,0.0,0.0,0.0,0.0,0.0,0.0,0.0,0.0,0.0,0.0,0.0,0.0,0.0,0.0,0.0,0.0,0.0,0.0,0.0,0.0,0.0,0.0,0.0,0.0,0.0,0.0,0.0,0.0,0.0,0.0,0.0,0.0,0.0,0.0,0.0,0.0,0.0,0.0,0.0,0.0,0.0,0.0,0.0,-3.1555,-3.2706,-3.3365,-3.3469,-3.2976,-3.1675,-3.0357,-2.9295,-2.8637,-2.7974,0.0,0.0,0.0,0.0,0.0,0.0,0.0,0.0,0.0,0.0,0.0,0.0,0.0,0.0,0.0,0.0,0.0,0.0,0.0,0.0,0.0,0.0,0.0,0.0,0.0,0.0,0.0,0.0,0.0,0.0,0.0,0.0,0.0,0.0,0.0,0.0,0.0,0.0,0.0,0.0,0.0,0.0,0.0,0.0,0.0,0.0,0.0,0.0,0.0,0.0,0.0,0.0,0.0,0.0,0.0,0.0,0.0,0.0,0.0,0.0,0.0,0.0,0.0,0.0,0.0,0.0,0.0,0.0,0.0,0.0,0.0,0.0,0.0,0.0,0.0,0.0,0.0,0.0,0.0,0.0,0.0,0.0,0.0,0.0,0.0,0.0,0.0,0.0,0.0,0.0,0.0,0.0,0.0,0.0,0.0,0.0,0.0,0.0,0.0,0.0,0.0,0.0,-3.133,-3.2273,0.0,-3.3125,-3.2347,-3.1001,-3.0088,-2.9142,-2.8064,0.0,0.0,0.0,0.0,0.0,0.0,0.0,0.0,0.0,0.0,0.0,0.0,0.0,0.0,0.0,0.0,0.0,0.0,0.0,0.0,0.0,0.0,0.0,0.0,0.0,0.0,0.0,0.0,0.0,0.0,0.0,0.0,0.0,0.0,0.0,0.0,0.0,0.0,0.0,0.0,0.0,0.0,0.0,0.0,0.0,0.0,0.0,0.0,0.0,0.0,0.0,0.0,0.0,0.0,0.0,0.0,0.0,0.0,0.0,0.0,0.0,0.0,0.0,0.0,0.0,0.0,0.0,0.0,0.0,0.0,0.0,0.0,0.0,0.0,0.0,0.0,0.0,0.0,0.0,0.0,0.0,0.0,0.0,0.0,0.0,0.0,0.0,0.0,0.0,0.0,0.0,0.0,0.0,0.0,0.0,0.0,0.0,0.0,0.0,0.0,0.0,0.0,-3.0387,-3.1465,-3.2392,0.0,-3.2961,-3.2108,-3.0357,-2.9998,-2.9232,-2.769,0.0,0.0,0.0,0.0,0.0,0.0,0.0,0.0,0.0,0.0,0.0,0.0,0.0,0.0,0.0,0.0,0.0,0.0,0.0,0.0,0.0,0.0,0.0,0.0,0.0,0.0,0.0,0.0,0.0,0.0,0.0,0.0,0.0,0.0,0.0,0.0,0.0,0.0,0.0,0.0,0.0,0.0,0.0,0.0,0.0,0.0,0.0,0.0,0.0,0.0,0.0,0.0,0.0,0.0,0.0,0.0,0.0,0.0,0.0,0.0,0.0,0.0,0.0,0.0,0.0,0.0,0.0,0.0,0.0,0.0,0.0,0.0,0.0,0.0,0.0,0.0,0.0,0.0,0.0,0.0,0.0,0.0,0.0,0.0,0.0,0.0,0.0,0.0,0.0,0.0,0.0,0.0,0.0,0.0,0.0,0.0,0.0,0.0,0.0,0.0,0.0,0.0,-3.0507,-3.2243,-3.323,-3.2557,-3.3095,-3.2422,-2.9846,-3.0163,-2.9669,0.0,0.0,0.0,0.0,0.0,0.0,0.0,0.0,0.0,0.0,0.0,0.0,0.0,0.0,0.0,0.0,0.0,0.0,0.0,0.0,0.0,0.0,0.0,0.0,0.0,0.0,0.0,0.0,0.0,0.0,0.0,0.0,0.0,0.0,0.0,0.0,0.0,0.0,0.0,0.0,0.0,0.0,0.0,0.0,0.0,0.0,0.0,0.0,0.0,0.0,0.0,0.0,0.0,0.0,0.0,0.0,0.0,0.0,0.0,0.0,0.0,0.0,0.0,0.0,0.0,0.0,0.0,0.0,0.0,0.0,0.0,0.0,0.0,0.0,0.0,0.0,0.0,0.0,0.0,0.0,0.0,0.0,0.0,0.0,0.0,0.0,0.0,0.0,0.0,0.0,0.0,0.0,0.0,0.0,0.0,0.0,0.0,0.0,0.0,0.0,0.0,0.0,0.0,-3.0507,-3.145,-3.2183,-3.2452,-3.2243,-3.157,-3.0342,-3.0402,-2.9879,-2.8382,0.0,0.0,0.0,0.0,0.0,0.0,0.0,0.0,0.0,0.0,0.0,0.0,0.0,0.0,0.0,0.0,0.0,0.0,0.0,0.0,0.0,0.0,0.0,0.0,0.0,0.0,0.0,0.0,0.0,0.0,0.0,0.0,0.0,0.0,0.0,0.0,0.0,0.0,0.0,0.0,0.0,0.0,0.0,0.0,0.0,0.0,0.0,0.0,0.0,0.0,0.0,0.0,0.0,0.0,0.0,0.0,0.0,0.0,0.0,0.0,0.0,0.0,0.0,0.0,0.0,0.0,0.0,0.0,0.0,0.0,0.0,0.0,0.0,0.0,0.0,0.0,0.0,0.0,0.0,0.0,0.0,0.0,0.0,0.0,0.0,0.0,0.0,0.0,0.0,0.0,0.0,0.0,0.0,0.0,0.0,0.0,0.0,0.0,0.0,0.0,0.0,0.0,-3.0537,-3.1301,-3.1944,-3.2079,-3.1974,-3.1511,-3.0582,-3.0761,-3.0372,-2.9071,0.0,0.0,0.0,0.0,0.0,0.0,0.0,0.0,0.0,0.0,0.0,0.0,0.0,0.0,0.0,0.0,0.0,0.0,0.0,0.0,0.0,0.0,0.0,0.0,0.0,0.0,0.0,0.0,0.0,0.0,0.0,0.0,0.0,0.0,0.0,0.0,0.0,0.0,0.0,0.0,0.0,0.0,0.0,0.0,0.0,0.0,0.0,0.0,0.0,0.0,0.0,0.0,0.0,0.0,0.0,0.0,0.0,0.0,0.0,0.0,0.0,0.0,0.0,0.0,0.0,0.0,0.0,0.0,0.0,0.0,0.0,0.0,0.0,0.0,0.0,0.0,0.0,0.0,0.0,0.0,0.0,0.0,0.0,0.0,0.0,0.0,0.0,0.0,0.0,0.0,0.0,0.0,0.0,0.0,0.0,0.0,0.0,0.0,0.0,0.0,0.0,0.0,-3.0672,-3.1719,-3.2273,-3.175,-3.2168,-3.2018,-3.0791,-3.1182,-3.0972,-2.9771,0.0,0.0,0.0,0.0,0.0,0.0,0.0,0.0,0.0,0.0,0.0,0.0,0.0,0.0,0.0,0.0,0.0,0.0,0.0,0.0,0.0,0.0,0.0,0.0,0.0,0.0,0.0,0.0,0.0,0.0,0.0,0.0,0.0,0.0,0.0,0.0,0.0,0.0,0.0,0.0,0.0,0.0,0.0,0.0,0.0,0.0,0.0,0.0,0.0,0.0,0.0,0.0,0.0,0.0,0.0,0.0,0.0,0.0,0.0,0.0,-3.4957,0.0,0.0,0.0,0.0,0.0,0.0,0.0,0.0,0.0,0.0,0.0,0.0,0.0,0.0,0.0,0.0,0.0,0.0,0.0,0.0,0.0,0.0,0.0,0.0,0.0,0.0,0.0,0.0,0.0,0.0,0.0,0.0,0.0,0.0,0.0,0.0,0.0,0.0,0.0,0.0,0.0,-3.1301,-3.1989,-3.2662,-3.3036,-3.2736,-3.2392,-3.2108,-3.172,-3.1152,-3.0357,-3.0913,0.0,0.0,0.0,0.0,0.0,0.0,0.0,0.0,0.0,0.0,0.0,0.0,0.0,0.0,0.0,0.0,0.0,0.0,0.0,0.0,0.0,0.0,0.0,0.0,0.0,0.0,0.0,0.0,0.0,0.0,0.0,0.0,0.0,0.0,0.0,0.0,0.0,0.0,0.0,0.0,0.0,0.0,0.0,0.0,0.0,0.0,0.0,0.0,0.0,0.0,0.0,0.0,0.0,0.0,0.0,0.0,0.0,0.0,0.0,0.0,-3.56,0.0,0.0,0.0,0.0,0.0,0.0,0.0,0.0,0.0,0.0,0.0,0.0,0.0,0.0,0.0,0.0,0.0,0.0,0.0,0.0,0.0,0.0,0.0,0.0,0.0,0.0,0.0,0.0,0.0,0.0,0.0,0.0,0.0,0.0,0.0,0.0,0.0,0.0,0.0,0.0,-3.1929,-3.2273,-3.2647,-3.2991,-3.2721,-3.2363,-3.2049,-3.1705,-3.1346,-3.0987,-3.1316,0.0,0.0,0.0,0.0,0.0,0.0,0.0,0.0,0.0,0.0,0.0,0.0,0.0,0.0,0.0,0.0,0.0,0.0,0.0,0.0,0.0,0.0,0.0,0.0,0.0,0.0,0.0,0.0,0.0,0.0,0.0,0.0,0.0,0.0,0.0,0.0,0.0,0.0,0.0,0.0,0.0,0.0,0.0,0.0,0.0,0.0,0.0,0.0,0.0,0.0,0.0,0.0,0.0,-3.6998,-3.7297,-3.7905,-3.7905,-3.7905,-3.7838,-3.6546,-3.5921,-3.5825,-3.5825,0.0,0.0,0.0,0.0,0.0,0.0,0.0,0.0,0.0,0.0,0.0,0.0,0.0,0.0,0.0,0.0,0.0,0.0,0.0,0.0,0.0,0.0,0.0,0.0,-3.4651,-3.4502,-3.3963,0.0,0.0,0.0,0.0,0.0,0.0,0.0,0.0,0.0,0.0,0.0,-3.2557,-3.2677,-3.2751,-3.3006,-3.2826,-3.2437,-3.1899,-3.163,-3.1511,-3.1511,-3.1511,-3.1256,0.0,0.0,0.0,0.0,0.0,0.0,0.0,0.0,0.0,0.0,0.0,0.0,0.0,0.0,0.0,0.0,0.0,0.0,0.0,0.0,0.0,0.0,0.0,0.0,0.0,0.0,0.0,0.0,0.0,0.0,0.0,0.0,-3.7136,-3.8219,0.0,0.0,0.0,0.0,0.0,0.0,0.0,0.0,0.0,0.0,0.0,0.0,0.0,-3.7547,-3.7503,-3.765,-3.7723,-3.7753,-3.7753,-3.7821,-3.7905,-3.7905,-3.7905,-3.7889,-3.7702,0.0,-3.6643,-3.6643,0.0,0.0,0.0,0.0,0.0,0.0,0.0,0.0,0.0,0.0,0.0,0.0,0.0,0.0,0.0,0.0,0.0,0.0,0.0,0.0,0.0,0.0,-3.4548,-3.5205,-3.537,-3.534,0.0,-3.4322,-3.3469,-3.338,-3.2901,0.0,0.0,0.0,0.0,0.0,0.0,0.0,-3.3215,-3.3365,-3.3814,-3.4981,-3.4068,-3.3335,-3.3245,-3.2168,-3.1511,-3.1511,-3.1511,-3.1466,-3.1376,-3.2004,0.0,0.0,0.0,0.0,0.0,0.0,0.0,0.0,0.0,0.0,0.0,0.0,0.0,0.0,0.0,0.0,0.0,0.0,0.0,0.0,0.0,0.0,0.0,0.0,0.0,0.0,0.0,0.0,0.0,-3.6722,-3.7428,-3.8059,-3.8229,-3.8542,0.0,0.0,0.0,0.0,0.0,0.0,0.0,0.0,0.0,-3.7985,-3.8061,-3.7986,-3.7718,-3.8245,-3.8734,-3.9132,-3.914,-3.9343,-3.9749,-3.9326,-3.9123,-3.9123,-3.9123,-3.8717,-3.798,-3.7151,-3.6586,-3.6231,0.0,0.0,0.0,0.0,-3.5604,-3.5495,-3.4789,-3.4332,-3.3948,-3.3186,0.0,0.0,0.0,0.0,0.0,0.0,0.0,0.0,0.0,0.0,-3.4683,-3.534,-3.5504,-3.5504,-3.5504,-3.504,-3.4517,0.0,-3.3814,-3.338,-3.2647,0.0,0.0,0.0,0.0,-3.2392,-3.338,-3.3814,-3.4309,-3.4861,-3.4397,-3.3754,-3.3006,-3.2392,-3.1899,-3.1525,-3.1511,-3.1675,-3.2049,-3.2333,-3.2557,0.0,0.0,0.0,0.0,0.0,0.0,0.0,0.0,0.0,0.0,0.0,0.0,0.0,0.0,0.0,0.0,0.0,0.0,0.0,0.0,0.0,0.0,0.0,0.0,0.0,0.0,0.0,0.0,-3.7184,-3.7756,-3.8168,-3.8413,-3.8647,0.0,0.0,0.0,0.0,0.0,0.0,-3.8888,-3.8709,-3.8631,-3.8699,-3.8883,-3.883,-3.8481,-3.9377,-4.0121,-4.0654,-4.0646,-4.0933,-4.1457,-4.0899,-4.057,-4.0383,-4.0383,-3.9977,-3.9174,-3.7895,-3.7252,-3.7009,-3.6434,-3.6174,-3.6196,-3.618,-3.6183,-3.6067,-3.5315,-3.4934,-3.4611,-3.3593,-3.3499,-3.3619,-3.2961,0.0,0.0,0.0,0.0,-3.3858,-3.4384,-3.4638,-3.4861,-3.5385,-3.5504,-3.5504,-3.5504,-3.5504,-3.5355,0.0,-3.4638,-3.4158,-3.3185,0.0,0.0,0.0,0.0,-3.3006,-3.3664,-3.4204,-3.4578,-3.4758,-3.4608,-3.4039,-3.2856,-3.2617,-3.2198,-3.154,-3.166,-3.1974,-3.2497,-3.2841,-3.317,-3.3484,0.0,0.0,0.0,0.0,0.0,0.0,0.0,0.0,0.0,0.0,0.0,0.0,0.0,0.0,0.0,0.0,0.0,0.0,0.0,0.0,0.0,0.0,0.0,0.0,0.0,0.0,0.0,0.0,0.0,-3.8942,-3.9216,0.0,0.0,0.0,0.0,-3.9082,-4.0224,-4.0798,-4.0501,-3.9825,-3.9311,-3.9001,-3.9671,-4.0019,-3.9978,-4.1424,-4.2151,-4.2185,-4.2185,-4.2202,-4.2236,-4.2202,-4.1813,-4.1136,-4.1136,-4.073,-3.9994,-3.9191,-3.8481,-3.7838,-3.7804,-3.7787,-3.7763,-3.7773,-3.7736,-3.758,-3.6853,-3.6117,-3.5535,-3.5371,-3.4936,-3.4339,-3.3649,-3.3469,0.0,0.0,-3.3918,-3.4474,-3.4503,-3.4966,-3.5459,-3.5489,-3.5504,-3.5504,-3.5504,-3.5504,-3.5489,0.0,-3.4921,-3.4488,-3.4414,0.0,-3.344,-3.3395,-3.3425,-3.3679,-3.4369,-3.4488,-3.4726,-3.5385,-3.4861,-3.4219,-3.3499,-3.2871,-3.2198,-3.154,-3.2093,-3.2452,-3.2512,-3.3709,-3.4129,-3.3499,-3.4144,0.0,0.0,0.0,0.0,0.0,0.0,0.0,0.0,0.0,0.0,0.0,0.0,0.0,0.0,0.0,0.0,0.0,0.0,0.0,0.0,0.0,0.0,0.0,0.0,0.0,0.0,0.0,0.0,-3.9642,-3.9609,0.0,-3.9788,-4.0808,-4.122,-4.0691,-4.1579,-4.2152,-4.22,-4.1948,-4.1793,-4.1763,-4.2014,-4.1945,-4.1508,-4.2523,-4.3014,-4.3014,-4.3014,-4.3014,-4.2997,-4.2523,-4.2151,-4.1914,-4.1914,-4.1491,-4.0781,-4.0527,-3.9698,-3.8565,-3.8091,-3.7905,-3.7884,-3.7845,-3.7535,-3.7065,-3.6727,-3.6152,-3.5513,-3.5512,-3.504,-3.4459,-3.4234,-3.4442,-3.4696,-3.4247,-3.4622,-3.513,-3.513,-3.5325,-3.5504,-3.5504,-3.5504,-3.5504,-3.5504,-3.5504,-3.5504,-3.5504,-3.531,-3.4996,-3.4578,-3.4309,-3.3978,-3.3559,-3.3858,-3.4234,-3.4474,-3.4861,-3.5235,-3.5474,-3.5295,-3.4861,-3.4219,-3.3903,-3.3499,-3.2841,-3.3021,-3.3335,-3.3769,-3.4264,-3.4608,-3.4786,-3.5011,-3.5026,0.0,0.0,0.0,0.0,0.0,0.0,0.0,0.0,0.0,0.0,0.0,0.0,0.0,0.0,0.0,0.0,0.0,0.0,0.0,0.0,0.0,0.0,0.0,0.0,0.0,0.0,-3.8565,-4.0128,-4.0321,-4.0447,-4.0708,-4.1977,-4.2778,-4.2754,-4.3203,-4.3683,-4.4188,-4.3522,-4.3197,-4.3322,-4.3339,-4.3125,-4.2675,-4.3436,-4.3809,-4.3809,-4.3809,-4.3809,-4.3792,-4.3284,-4.2912,-4.2675,-4.2675,-4.2252,-4.1576,-4.1576,-4.1001,-4.002,-3.9022,-3.8633,-3.8652,-3.8579,-3.8286,-3.7752,-3.7194,-3.6352,-3.5504,-3.5504,-3.519,-3.4848,-3.4848,-3.5145,-3.5415,-3.4951,-3.516,-3.5504,-3.5504,-3.5504,-3.5504,-3.5504,-3.5504,-3.5504,-3.5504,-3.5504,-3.5504,-3.5504,-3.5504,-3.5355,-3.4906,-3.4848,-3.4681,-3.4233,-3.4547,-3.4848,-3.4848,-3.522,-3.5504,-3.5504,-3.5504,-3.5235,-3.4563,-3.4503,-3.4219,-3.3529,-3.3709,-3.4054,-3.4488,-3.4728,-3.504,-3.5489,-3.5504,-3.5504,-3.5504,0.0,0.0,0.0,0.0,0.0,0.0,0.0,0.0,0.0,0.0,0.0,0.0,0.0,0.0,0.0,0.0,0.0,0.0,0.0,0.0,0.0,0.0,0.0,-3.8267,-3.8801,-3.9457,-4.0528,-4.1516,-4.209,-4.1958,-4.3164,-4.4317,-4.5234,-4.5206,-4.5541,-4.646,-4.4544,-4.3441,-4.3535,-4.3508,-4.3481,-4.3426,-4.4198,-4.4615,-4.4615,-4.4615,-4.4615,-4.4615,-4.4615,-4.4164,-4.3426,-4.3426,-4.3031,-4.232,-4.232,-4.2303,-4.2178,-4.0705,-4.0146,-4.018,-4.0146,-4.0104,-3.9841,-3.8306,-3.6784,-3.5504,-3.5504,-3.5504,-3.5504,-3.5504,-3.5504,-3.5504,-3.5504,-3.5504,-3.5504,-3.5504,-3.5504,-3.5504,-3.5504,-3.5504,-3.5504,-3.5504,-3.5519,-3.5534,-3.5534,-3.5549,-3.5549,-3.5519,-3.5504,-3.5504,-3.5504,-3.5504,0.0,-3.5504,-3.5504,-3.5504,-3.5504,-3.5504,-3.5235,-3.4593,-3.4533,-3.4233,-3.3604,-3.4189,-3.4533,-3.4533,-3.5145,-3.5504,-3.5504,-3.5504,-3.5504,-3.5504,0.0,0.0,0.0,0.0,0.0,0.0,0.0,0.0,0.0,0.0,0.0,0.0,0.0,0.0,0.0,0.0,0.0,0.0,0.0,0.0,0.0,0.0,-3.9472,-4.0742,-4.0728,-4.1439,-4.3643,-4.4665,-4.5194,-4.5128,-4.6382,-4.7302,-4.7562,-4.8103,-4.8519,-4.8775,-4.8182,-4.7429,-4.6558,-4.5898,-4.5156,-4.4293,-4.4496,-4.4615,-4.4615,-4.4615,-4.4615,-4.4615,-4.4615,-4.4496,-4.4265,-4.4265,-4.3826,-4.3115,-4.3115,-4.2777,-4.2202,-4.1255,-4.1221,-4.1627,-4.1085,-4.0184,-3.8999,-3.745,-3.629,-3.5504,-3.5504,-3.5504,-3.5504,-3.5504,-3.5504,-3.5504,-3.5504,-3.5504,-3.5504,-3.5504,-3.5504,-3.5504,-3.5504,-3.5504,-3.5504,-3.5504,-3.5878,-3.6222,-3.6222,-3.6582,-3.6582,-3.5669,-3.5504,-3.5504,-3.5504,-3.5504,0.0,-3.5504,-3.5504,-3.5504,-3.5504,-3.5504,-3.5429,-3.5235,-3.522,-3.5145,-3.4966,-3.5115,-3.522,-3.522,-3.54,-3.5504,-3.5504,-3.5504,-3.5504,0.0,0.0,0.0,0.0,0.0,0.0,0.0,0.0,0.0,0.0,0.0,0.0,0.0,0.0,0.0,0.0,0.0,0.0,0.0,0.0,0.0,0.0,-4.0147,-4.1632,-4.4005,-4.3301,-4.3373,-4.5579,-4.6271,-4.6793,-4.7331,-4.8158,-4.8872,-4.9465,-4.9654,-4.978,-4.9806,-4.89,-4.7921,-4.6891,-4.6361,-4.5621,-4.4615,-4.4891,-4.4919,-4.4615,-4.4615,-4.4615,-4.4615,-4.4615,-4.4615,-4.4615,-4.4615,-4.4316,-4.391,-4.391,-4.3639,0.0,0.0,0.0,0.0,0.0,-3.9964,-3.8739,-3.7524,-3.66,-3.5926,-3.5619,-3.5504,-3.5504,-3.5504,-3.5504,-3.5504,-3.5504,-3.5504,-3.5504,-3.5504,-3.5504,-3.5504,-3.5504,-3.5504,-3.5579,-3.5863,-3.6222,-3.6492,-3.6492,-3.6985,0.0,-3.5729,-3.5729,-3.5818,-3.5549,-3.5504,-3.5504,-3.5504,-3.5504,-3.5504,-3.5504,-3.5504,-3.5504,-3.5504,-3.5504,0.0,0.0,0.0,-3.5504,-3.5504,-3.5504,0.0,0.0,0.0,-3.5504,-3.5504,0.0,0.0,0.0,-3.2299,-3.1567,0.0,0.0,0.0,0.0,0.0,0.0,0.0,0.0,0.0,0.0,0.0,0.0,0.0,0.0,0.0,0.0,-4.2129,-4.3892,-4.7248,-4.616,-4.5534,-4.6891,-4.7279,-4.7838,-4.8932,-4.9132,-4.9661,-5.0836,-5.0307,-4.996,-4.9991,0.0,0.0,0.0,0.0,-4.5535,-4.4733,-4.5365,-4.5331,-4.4615,-4.4615,-4.4615,-4.4615,-4.4615,-4.4615,-4.4615,-4.4615,-4.4615,-4.4615,-4.4615,-4.4615,-4.4462,-4.3081,-4.21,-4.1373,-4.0637,-3.9835,-3.9057,-3.8197,0.0,0.0,-3.6096,-3.5806,-3.5756,-3.5756,-3.5614,-3.5504,-3.5504,-3.5504,-3.5519,-3.5594,-3.5564,-3.5549,-3.5684,-3.5669,-3.5789,-3.6447,-3.6656,-3.6701,-3.6701,-3.721,-3.7225,-3.5953,-3.6148,-3.6267,-3.5609,-3.5504,-3.5504,-3.5504,-3.5504,-3.5504,-3.5504,0.0,0.0,-3.5504,-3.5504,-3.5504,-3.5504,-3.5504,-3.5504,-3.5504,-3.5504,-3.5504,-3.5504,-3.5504,-3.5504,-3.5504,-3.461,-3.4095,-3.3993,-3.3031,-3.2593,0.0,0.0,0.0,0.0,0.0,0.0,0.0,0.0,0.0,0.0,0.0,0.0,0.0,0.0,0.0,-4.1907,-4.4634,-4.6911,-4.774,-4.8404,-4.8955,-4.9254,-5.0343,-5.0955,-5.0695,-5.1146,-5.1364,-5.1068,-5.0936,-5.0593,-5.0042,-4.9521,-4.8978,-4.8307,-4.7638,-4.6741,-4.55,-4.5635,-4.5331,-4.4615,0.0,0.0,-4.4615,-4.4615,-4.4615,-4.4615,-4.4615,-4.4615,-4.4615,-4.4615,-4.4615,-4.4581,-4.4276,-4.3656,-4.2895,-4.2151,-4.1402,-4.0567,-3.9155,-3.859,-3.8414,-3.828,-3.7809,-3.7278,-3.7278,-3.6432,0.0,-3.5504,-3.5504,-3.5624,-3.6163,-3.5908,-3.5774,-3.6791,-3.6656,-3.6477,-3.709,-3.7644,-3.8018,-3.8018,-3.8571,-3.8601,-3.727,-3.6731,-3.6267,-3.5609,-3.5504,-3.5504,-3.5504,-3.5504,-3.5504,-3.5504,-3.5504,-3.5504,-3.5504,-3.5504,-3.5504,-3.5504,-3.5504,-3.5504,-3.5504,-3.5504,-3.5504,-3.5504,-3.5504,-3.5504,-3.5504,-3.5311,-3.4791,-3.3993,-3.3031,-3.2593,0.0,0.0,0.0,0.0,0.0,0.0,0.0,0.0,0.0,0.0,0.0,-3.8228,0.0,0.0,-4.2843,-4.4746,-4.6499,-4.8076,-4.9326,-5.0091,-5.0494,-5.0494,-5.0541,-5.0689,-5.106,-5.1068,-5.0911,-5.0581,-5.0876,-5.077,-5.0033,-4.962,-4.9082,-4.842,-4.7643,-4.6942,-4.6261,-4.5889,-4.5703,-4.5715,-4.5314,-4.5331,-4.5698,-4.5314,-4.5145,-4.5128,-4.4767,-4.4615,-4.4615,-4.4615,-4.4615,-4.4615,-4.4615,-4.4096,-4.3291,-4.2574,-4.2055,-4.1543,-4.0029,-3.975,-3.9842,-3.8642,-3.7997,-3.7606,-3.7206,-3.6569,-3.5923,-3.5594,-3.5744,-3.6073,-3.6402,-3.5998,-3.5833,-3.7105,-3.6941,-3.6746,-3.7704,-3.8153,-3.8392,-3.8392,-3.8945,-3.8955,-3.7644,-3.7419,-3.7,-3.5699,-3.5504,-3.5504,-3.5504,-3.5504,-3.5504,-3.5504,-3.5504,-3.5504,-3.5504,-3.5504,-3.5504,-3.5504,-3.5504,-3.5504,-3.5504,-3.5504,-3.5504,-3.5504,-3.5504,-3.5504,-3.5504,-3.5504,-3.5246,-3.4725,-3.4259,-3.3788,0.0,0.0,0.0,0.0,0.0,0.0,0.0,0.0,-3.7609,-3.8316,-3.9198,-4.0341,-4.2037,-4.3304,-4.4897,-4.7392,-4.806,-4.8885,-5.0647,-5.0876,-5.0876,-5.0876,-5.0135,-4.9993,-5.1008,-5.0554,-5.0157,-5.0004,-5.0554,-5.0554,-4.985,-4.9235,-4.8655,-4.8122,-4.7547,-4.7158,-4.7022,-4.6278,-4.6143,-4.6583,-4.5838,-4.5788,-4.6346,-4.5754,-4.5483,-4.5449,-4.4869,-4.4615,-4.4615,-4.4615,-4.4615,-4.4615,-4.4615,-4.4198,-4.3555,-4.2794,-4.2506,-4.2307,-4.0994,-4.1017,-4.1288,-3.9179,-3.8419,-3.8199,-3.7372,-3.6914,-3.6552,-3.6028,-3.6252,-3.6686,-3.6821,-3.6372,-3.6193,-3.7494,-3.7315,-3.718,-3.8332,-3.8586,-3.8586,-3.8586,-3.9035,-3.9035,-3.7808,-3.8033,-3.7808,-3.6133,-3.5878,-3.5833,-3.5714,-3.5699,-3.5654,-3.5519,-3.5504,-3.5504,-3.5504,-3.5504,-3.5504,-3.5504,-3.5504,-3.5504,-3.5504,-3.5504,-3.5504,-3.5504,-3.5504,-3.5504,-3.5504,-3.5311,-3.5213,-3.5213,-3.5119,-3.4882,-3.7245,-3.7262,-3.7341,-3.7353,-3.7382,-3.7746,0.0,0.0,-3.9926,-4.1237,-4.2211,-4.2888,-4.311,-4.5416,-4.7392,-4.7738,-4.9442,-5.0576,-5.0195,-5.0129,-5.0129,-5.0129,-5.1094,-5.1569,-5.1138,-5.1034,-5.0716,-5.0061,-5.009,-4.9821,-4.9152,-4.9023,-4.8958,-4.8883,-4.8798,-4.8443,-4.777,-4.7056,-4.6397,-4.5821,-4.506,-4.4784,-4.4852,-4.4767,-4.4733,-4.4733,-4.4649,-4.4615,-4.4615,-4.4615,-4.4615,-4.4615,-4.4615,-4.4564,-4.4378,-4.3572,-4.3274,-4.3156,-4.2341,-4.2551,-4.2975,-4.2017,-4.1209,-4.0467,-3.9615,-3.84,-3.7285,-3.7225,-3.724,-3.7449,-3.8018,-3.7689,-3.7539,-3.8871,-3.8676,-3.8377,-3.914,-3.9305,-3.9305,-3.9305,-3.9364,-3.917,-3.8407,-3.8347,-3.8123,-3.7315,-3.7195,-3.7,-3.6447,-3.6372,-3.6148,-3.5564,-3.5504,-3.5504,-3.5504,-3.5504,-3.5504,-3.5504,-3.5504,-3.5504,-3.5504,-3.5504,-3.5504,-3.5504,-3.5504,-3.5504,-3.5504,-3.461,-3.4177,-3.4158,-3.3804,-3.4547,-3.8898,-3.8771,0.0,0.0,-3.9473,-4.0055,-4.092,-4.1828,-4.2613,-4.3129,-4.4324,-4.5517,-4.6305,-4.7553,-4.8707,0.0,-5.0537,-5.0875,-5.0113,-5.0004,-4.9675,-4.882,-4.9249,-4.9819,-5.0385,-5.0107,-4.9768,-4.9432,-4.9419,-4.9286,-4.9001,-4.9001,-4.9001,-4.9001,-4.8595,-4.8426,-4.8545,-4.7378,-4.7073,-4.7614,-4.687,-4.6752,-4.7141,-4.6718,-4.6058,-4.5213,-4.4801,-4.4615,-4.4615,-4.4615,-4.4615,-4.4564,-4.4079,-4.4181,-4.4564,-4.4215,-4.4096,-4.3995,-4.3217,-4.3453,-4.39,-4.2614,-4.168,-4.0832,-3.9949,-3.891,-3.7898,-3.7524,-3.7689,-3.8048,-3.8317,-3.7898,-3.7749,-3.9059,-3.8901,-3.8571,-3.9275,-3.9388,-3.9388,-3.9388,-3.9388,-3.9334,-3.9035,-3.899,-3.8901,-3.8616,-3.7913,-3.7315,-3.706,-3.703,-3.6776,-3.6148,-3.6073,-3.5923,-3.5534,-3.5504,-3.5504,-3.5504,-3.5504,-3.5504,-3.5504,-3.5504,-3.5504,-3.5504,-3.5504,-3.5504,-3.5504,-3.547,-3.5465,-3.5446,-3.5636,-3.6081,-3.9735,0.0,0.0,-4.1071,-4.1788,-4.2554,-4.3626,-4.4707,-4.5529,-4.5595,-4.6637,-4.7751,-4.8518,-4.8909,-4.9486,-5.0592,-5.0955,-5.092,-5.0377,-4.9764,-4.8993,-4.7929,-4.7282,-4.742,-4.8701,-4.8741,-4.8714,-4.8714,-4.89,-4.9001,-4.9001,-4.9001,-4.9001,-4.9001,-4.8494,-4.8477,-4.9001,-4.7733,-4.7648,-4.8697,-4.797,-4.7885,-4.8376,-4.7851,-4.6904,-4.5669,-4.5128,-4.4801,-4.4615,-4.4615,-4.4615,-4.4547,-4.3961,-4.4079,-4.4615,-4.4615,-4.4615,-4.453,-4.3927,-4.4113,-4.4356,-4.2962,-4.1943,-4.1103,-4.0245,-3.9383,-3.8571,-3.8093,-3.8302,-3.8676,-3.8676,-3.8317,-3.8212,-3.9185,-3.9035,-3.8811,-3.932,-3.9388,-3.9388,-3.9388,-3.9388,-3.9388,-3.9388,-3.9388,-3.9388,-3.9388,-3.8551,-3.7898,-3.7704,-3.7524,-3.724,-3.6791,-3.6596,-3.6297,-3.5818,-3.5609,-3.5504,-3.5504,-3.5669,-3.5774,-3.5774,-3.5774,-3.5774,-3.5774,-3.5594,-3.5594,-3.5774,-3.5989,-3.6185,-3.6378,-3.6687,-3.6686,0.0,0.0,-4.0854,-4.3201,-4.4011,-4.4959,-4.7829,-4.8515,-4.872,-4.9307,-4.9537,-4.9388,-4.8627,-4.9154,-4.972,-4.9897,-5.0485,-5.0946,-5.1057,-4.9222,-4.7842,-4.7808,-4.5956,-4.4998,0.0,-4.7107,-4.7922,-4.7922,-4.8612,-4.9001,-4.9001,-4.9001,-4.9001,-4.9001,-4.8984,-4.8984,-4.9001,-4.8257,-4.7872,-4.7906,-4.7192,-4.6836,-4.6853,-4.6836,-4.6413,-4.5703,-4.5686,-4.5263,-4.4615,-4.4615,-4.4615,-4.4615,-4.4581,-4.4581,-4.4615,-4.4615,-4.4615,-4.4615,-4.4581,-4.4581,-4.444,-4.3575,-4.2691,-4.1805,-4.0914,-4.005,-3.9394,-3.9364,-3.9328,-3.9394,-3.9394,-3.9328,-3.9328,-3.9373,-3.9373,-3.9394,-3.9388,-3.9388,-3.9388,-3.9388,-3.9388,-3.9388,-3.9388,-3.9388,-3.9388,-3.9388,-3.9394,-3.911,-3.8437,-3.7808,-3.7404,-3.7375,-3.6851,-3.6477,-3.6462,-3.5863,-3.5504,-3.5504,-3.6103,-3.6462,-3.6462,-3.6462,-3.6462,-3.6462,-3.5833,-3.5818,-3.6462,-3.5526,-3.5385,-3.6006,-3.563,-3.5443,0.0,0.0,-4.4474,-4.6355,-4.7314,-4.822,-4.9768,-5.0081,-4.9854,-4.9041,-4.8464,-4.7861,-4.7065,-4.7569,-4.8299,-4.8885,-5.046,-5.1166,-4.9818,-4.942,-4.8187,-4.5217,-4.5162,0.0,0.0,0.0,0.0,-4.7821,-4.8125,-4.8494,-4.8984,-4.9001,-4.9001,-4.9001,-4.9001,-4.9001,-4.9001,-4.8765,-4.8646,-4.8629,-4.7885,-4.753,-4.7513,-4.6532,-4.594,-4.5669,-4.5179,-4.4852,-4.4615,-4.4615,-4.4615,-4.4564,-4.4012,-4.413,-4.4547,-4.3995,-4.413,-4.4615,-4.4615,-4.4615,-4.4542,-4.4253,-4.3591,-4.2707,-4.1836,-4.0946,-4.015,-3.9574,-3.9388,-3.9388,-3.9388,-3.9388,-3.9388,-3.9388,-3.9388,-3.9508,-3.9978,-4.0068,-4.0202,-4.0636,-4.0726,-4.0591,-4.0142,-4.0068,-3.9918,-3.9484,-3.9388,-3.9298,-3.9095,-3.8886,-3.8571,-3.8108,-3.7868,-3.7569,-3.7135,-3.6522,-3.6327,-3.6746,-3.6596,-3.6671,-3.709,-3.6701,-3.6492,-3.6492,-3.6267,-3.6267,-3.6492,-3.7025,-3.739,-3.7612,-3.7916,-3.7309,0.0,-4.4929,-4.715,-4.8802,-4.9829,-5.0602,-5.1114,-5.1004,-5.0352,-4.8756,-4.7565,-4.6547,-4.5747,-4.5804,-4.6232,-4.7086,-4.8681,-4.9585,-4.8934,-4.853,-4.7385,-4.4888,-4.4754,-4.4418,0.0,0.0,0.0,-4.7411,-4.8003,-4.8511,-4.8984,-4.9001,-4.9001,-4.9001,-4.9001,-4.9001,-4.9001,-4.9001,-4.9001,-4.9001,-4.8257,-4.7889,-4.7855,-4.665,-4.5957,-4.5669,-4.5196,-4.4852,-4.4615,-4.4615,-4.4615,-4.4564,-4.4028,-4.413,-4.4547,-4.4012,-4.4147,-4.4615,-4.4615,-4.4615,-4.4615,-4.4615,-4.4006,-4.3139,-4.2252,-4.1412,-4.0535,-3.9646,-3.9388,-3.9388,-3.9388,-3.9388,-3.9388,-3.9388,-3.9568,-3.9888,-4.0307,-4.0591,-4.0876,-4.1332,-4.1422,-4.125,-4.0831,-4.0561,-4.0247,-3.9828,-3.9574,-3.9388,-3.9388,-3.9388,-3.9245,-3.8796,-3.8542,-3.8227,-3.7793,-3.718,-3.6985,-3.7389,-3.7255,-3.7345,-3.7749,-3.7375,-3.7165,-3.7165,-3.6926,-3.6926,-3.7165,-3.7988,-3.8512,-3.8766,-3.8824,-3.8092,-4.4507,-4.6691,-4.8893,-5.0527,-5.1463,-5.1977,-5.194,-5.1242,-5.0141,-4.8471,-4.6801,-4.5406,0.0,0.0,-4.3761,-4.4786,-4.56,-4.6708,-4.8493,-4.6944,-4.5846,0.0,0.0,0.0,0.0,0.0,0.0,-4.6735,0.0,-4.8917,-4.9001,-4.9001,-4.9001,-4.9001,-4.9001,-4.9001,-4.9001,-4.9001,-4.9001,-4.8984,-4.8193,-4.7855,-4.7855,-4.7107,-4.6363,-4.5703,-4.5703,-4.528,-4.4615,-4.4615,-4.4615,-4.4615,-4.4615,-4.4615,-4.4615,-4.4615,-4.4615,-4.4615,-4.4615,-4.4615,-4.4615,-4.4615,-4.4035,-4.3216,-4.2284,-4.1412,-4.0569,-3.9666,-3.9388,-3.9388,-3.9388,-3.9454,-3.9433,-3.9433,-3.9963,-4.0457,-4.0487,-4.0995,-4.1482,-4.1474,-4.1444,-4.1467,-4.1467,-4.0891,-4.0442,-4.0412,-3.9873,-3.9454,-3.9388,-3.9388,-3.9388,-3.9388,-3.8841,-3.8437,-3.8437,-3.7838,-3.7479,-3.7509,-3.8063,-3.8407,-3.8437,-3.8407,-3.8392,-3.8392,-3.7778,-3.7764,-3.8392,-3.8422,-3.8745,-3.9301,-3.8271,-3.7753,-4.7517,-4.9646,-5.1298,-5.2344,-5.2289,-5.183,-5.1242,-4.9536,-4.7571,-4.5938,-4.3864,-4.2084,0.0,0.0,0.0,-4.5296,-4.733,0.0,-4.9586,-4.9642,0.0,-4.627,0.0,-4.6413,-4.55,-4.6413,0.0,0.0,-4.7462,-4.7834,-4.8951,-4.9001,-4.9001,-4.9001,-4.9001,-4.9001,-4.9001,-4.9001,-4.9001,-4.8984,-4.7699,-4.7378,-4.7838,-4.6583,-4.5889,-4.5703,-4.5703,-4.528,-4.4615,-4.4615,-4.4615,-4.4615,-4.4615,-4.4615,-4.4615,-4.4615,-4.4615,-4.4615,-4.4615,-4.4615,-4.4615,-4.4615,-4.4457,-4.396,-4.2442,-4.182,-4.1346,-3.9844,-3.9388,-3.9388,-3.9388,-3.9783,-4.0157,-4.0157,-4.0651,-4.1265,-4.1796,-4.2036,-4.2291,-4.2746,-4.2447,-4.2156,-4.2156,-4.1602,-4.0965,-4.0472,-4.0247,-3.9963,-3.9448,-3.9388,-3.9388,-3.9388,-3.926,-3.9155,-3.9155,-3.8527,-3.8362,-3.8871,-3.8571,-3.8616,-3.9125,-3.8661,-3.8392,-3.8392,-3.8227,-3.8227,-3.8392,-3.8901,-3.8817,-3.8196,-3.7919,-3.6958,-4.9572,-5.1775,-5.3518,-5.3261,-5.2858,-5.2032,-5.0141,-4.8086,-4.6012,-4.4048,-4.2011,0.0,0.0,0.0,0.0,0.0,0.0,0.0,-4.9156,-4.9472,-4.8968,0.0,-4.7585,0.0,-4.6769,-4.7398,-4.8024,0.0,-4.8003,-4.8122,-4.8968,-4.9001,-4.9001,-4.9001,-4.9001,-4.9001,-4.9001,-4.9001,-4.9001,-4.8984,-4.7834,-4.7513,-4.7838,-4.638,-4.5703,-4.5686,0.0,-4.4976,-4.4615,-4.4615,-4.4615,-4.4615,-4.4615,-4.4615,-4.4615,-4.4615,-4.4615,-4.4615,-4.4615,-4.4615,-4.4615,-4.4615,-4.4615,-4.4355,-4.297,-4.2284,-4.1707,-4.0343,-3.9702,-3.9388,-3.9388,-3.9903,-4.0397,-4.0397,-4.113,-4.1946,-4.2321,-4.262,-4.2895,-4.3215,-4.3045,-4.2776,-4.2776,-4.2252,-4.1722,-4.1309,-4.0771,-4.0262,-3.9903,-3.9568,-3.9388,-3.9388,-3.9388,-3.9388,-3.9388,-3.9065,-3.9005,-3.9394,-3.905,-3.902,-3.9373,-3.905,-3.8841,-3.8841,-3.8841,-3.8841,-3.8841,-3.923,-3.887,-3.7791,-3.7305,-3.6239,-5.1353,-5.3463,-5.5225,-5.3739,-5.3112,-5.2048,-4.8875,-4.6728,-4.4764,-4.2451,0.0,-3.9735,-3.9735,-3.9827,-4.0487,-4.2323,0.0,-4.5789,-4.8453,-4.8294,-4.8234,-4.9102,-4.8504,-4.8084,-4.8158,-4.8115,-4.8325,-4.8951,-4.9001,-4.9001,-4.9001,-4.9001,-4.9001,-4.9001,-4.9001,-4.9001,-4.9001,-4.9001,-4.9001,-4.9001,-4.8257,-4.7939,-4.799,-4.6532,-4.5855,-4.5805,-4.506,-4.4699,-4.4615,-4.4615,-4.4615,-4.4615,-4.4615,-4.4615,-4.4615,-4.4615,-4.4615,-4.4615,-4.4615,-4.4615,-4.4615,-4.4615,-4.4615,-4.4457,-4.3562,-4.2785,-4.1965,-4.0979,-4.015,-3.9568,-3.955,-4.0038,-4.0546,-4.0636,-4.1594,-4.253,-4.253,-4.294,-4.329,-4.329,-4.329,-4.329,-4.329,-4.2865,-4.25,-4.241,-4.1384,-4.0621,-4.0546,-3.9963,-3.9514,-3.9388,-3.9499,-3.9514,-3.9388,-3.9388,-3.9388,-3.9388,-3.9388,-3.9388,-3.9388,-3.9388,-3.9388,-3.9388,-3.9388,-3.9388,-3.9388,-3.9388,-3.8782,-3.7548,-3.6643,-3.5588,-5.4216,-5.5152,-5.5354,-5.4436,-5.2692,-5.0527,-4.7901,-4.5021,0.0,0.0,0.0,-3.8909,-3.8909,-3.9441,0.0,-4.3809,0.0,0.0,0.0,0.0,-4.9806,0.0,0.0,0.0,0.0,0.0,0.0,0.0,0.0,-4.9001,-4.9001,-4.9001,-4.9001,-4.9001,-4.9001,-4.9001,-4.9001,-4.9001,-4.9001,-4.9001,-4.8257,-4.824,-4.8765,-4.7276,-4.6599,-4.6566,-4.5838,0.0,-4.4615,-4.4615,-4.4615,-4.4615,-4.4615,-4.4615,-4.4615,-4.4615,-4.4615,-4.4615,-4.4615,-4.4615,-4.4615,-4.4615,-4.4615,-4.4457,-4.3562,-4.3169,-4.2738,-4.1147,-4.0588,-4.0431,-4.0287,-4.0711,-4.1392,-4.1931,-4.2611,-4.3125,-4.3125,-4.3215,-4.329,-4.329,-4.329,-4.329,-4.329,-4.32,-4.297,-4.2485,-4.2201,-4.1856,-4.128,-4.0636,-4.0023,-3.9448,-3.9903,-4.0008,-3.9433,-3.9388,-3.9388,-3.9388,-3.9388,-3.9388,-3.9388,-3.9388,-3.9388,-3.9388,-3.9388,-3.9388,-3.9388,-3.9388,-3.8368,-3.6487,-3.629,-3.5197,-5.4656,-5.5886,-5.6436,-5.4803,-5.2894,-5.0563,-4.7241,0.0,0.0,0.0,-3.8964,-3.8707,-3.8707,0.0,0.0,0.0,0.0,0.0,0.0,0.0,0.0,0.0,0.0,0.0,0.0,0.0,0.0,0.0,0.0,-4.9001,-4.9001,-4.9001,-4.9001,-4.9001,-4.9001,-4.9001,-4.9001,-4.9001,-4.9001,-4.9001,-4.8646,-4.8663,-4.8951,-4.7462,-4.6786,-4.6735,-4.5602,-4.4925,-4.4615,-4.4615,-4.4615,-4.4615,-4.4615,-4.4615,-4.4615,-4.4615,-4.4615,-4.4615,-4.4615,-4.4615,-4.4615,-4.4615,-4.4615,-4.4514,-4.4093,-4.3651,-4.3082,-4.2169,-4.156,-4.1159,-4.0971,-4.1437,-4.2006,-4.2321,-4.2865,-4.329,-4.329,-4.329,-4.329,-4.329,-4.329,-4.329,-4.329,-4.329,-4.3185,-4.291,-4.262,-4.2291,-4.1976,-4.1647,-4.1175,-4.0502,-4.0412,-4.0277,-3.9963,-3.9619,-3.9388,-3.9388,-3.9388,-3.9388,-3.9388,-3.9388,-3.9388,-3.9388,-3.9388,-3.9388,-3.9388,-3.9388,-3.8294,-3.6198,-3.6774,-3.5601,-5.4509,-5.6033,-5.695,-5.4693,-5.2803,-5.0453,-4.6544,-4.3773,0.0,0.0,-3.8707,-3.8707,-3.8707,0.0,0.0,0.0,0.0,0.0,0.0,0.0,0.0,0.0,0.0,0.0,0.0,0.0,0.0,0.0,0.0,0.0,-4.9001,-4.9001,-4.9001,-4.9001,-4.9001,-4.8934,-4.8781,-4.8765,-4.8765,-4.8765,-4.8765,-4.8849,-4.8951,-4.7462,-4.6786,-4.6718,-4.5258,-4.4615,-4.4615,-4.4615,-4.4615,-4.4615,-4.4615,-4.4615,-4.4615,-4.4615,-4.4615,-4.4615,-4.4615,-4.4615,-4.4615,-4.4615,-4.4615,-4.4615,-4.4615,-4.4121,-4.3482,-4.2929,-4.241,-4.1899,-4.149,-4.1916,-4.2425,-4.2575,-4.2955,-4.329,-4.329,-4.329,-4.329,-4.329,-4.329,-4.329,-4.329,-4.329,-4.329,-4.329,-4.2895,-4.2605,-4.2605,-4.2605,-4.241,-4.1848,-4.1085,-4.0502,-4.0217,-3.9709,-3.9388,-3.9388,-3.9388,-3.9388,-3.9388,-3.9388,-3.9388,-3.9388,-3.9388,-3.9388,-3.9388,-3.9177,-3.8092,-3.6212,-3.6827,-3.5695,-5.4876,-5.5669,-5.5409,-5.3739,-5.1555,-4.8949,-4.559,0.0,0.0,-3.9056,-3.8707,-3.8707,-3.8707,-3.8762,-3.9588,0.0,0.0,0.0,0.0,0.0,0.0,0.0,0.0,0.0,0.0,0.0,0.0,0.0,0.0,0.0,-4.9001,-4.9001,-4.9001,-4.9001,-4.9001,-4.868,-4.799,-4.799,-4.799,-4.799,-4.799,-4.8359,-4.8951,-4.7462,-4.6786,-4.6718,-4.5258,-4.4615,0.0,-4.4615,-4.4615,-4.4615,-4.4615,-4.4615,-4.4615,-4.4615,-4.4615,-4.4615,-4.4615,-4.4615,-4.4615,-4.4615,-4.4615,-4.4615,-4.4615,-4.4542,-4.4138,-4.2554,-4.2492,-4.2645,-4.1661,-4.1916,-4.2545,-4.3105,-4.3245,-4.329,-4.329,-4.329,-4.329,-4.329,-4.329,-4.329,-4.329,-4.329,-4.329,-4.329,-4.3245,-4.32,-4.32,-4.32,-4.3185,-4.3125,-4.2043,-4.0816,-3.9619,-3.9454,-3.9388,-3.9388,-3.9388,-3.9388,-3.9388,-3.9388,-3.9388,-3.9388,-3.9388,-3.9388,-3.9388,-3.842,-3.7343,-3.6158,-3.5359,-3.4317,-5.2766,-5.4473,-5.5207,-5.361,-5.0986,-4.8086,-4.5333,0.0,0.0,-3.8927,-3.8707,-3.8707,-3.8707,-3.8707,-3.9166,0.0,0.0,0.0,0.0,0.0,0.0,0.0,0.0,0.0,0.0,0.0,0.0,0.0,0.0,0.0,-4.9001,-4.9001,-4.8798,-4.8359,-4.8359,-4.7986,-4.7242,-4.7242,-4.7242,-4.7242,-4.7242,-4.7394,-4.7631,-4.6616,-4.6143,-4.6075,-4.5055,-4.4615,0.0,-4.4615,-4.4615,-4.4615,-4.4615,-4.4615,-4.4615,-4.4615,-4.4615,-4.4615,-4.4615,-4.4615,-4.4615,-4.4615,-4.4615,-4.4615,-4.4615,-4.4615,-4.4439,-4.3617,-4.3509,-4.3466,-4.2946,-4.2841,-4.3015,-4.323,-4.329,-4.329,-4.329,-4.329,-4.329,-4.329,-4.329,-4.329,-4.329,-4.329,-4.329,-4.329,-4.329,-4.329,-4.329,-4.329,-4.314,-4.2791,-4.1923,-4.1175,-4.0651,-3.9873,-3.9388,-3.9388,-3.9388,-3.9388,-3.9388,-3.8782,-3.8745,-3.9388,-3.8782,-3.8745,-3.9388,-3.898,-3.789,-3.6212,-3.6436,-3.5305,-4.9884,-5.2142,-5.3482,-5.2105,-4.9664,-4.6966,0.0,0.0,-3.9662,-3.8872,-3.8707,-3.8707,-3.8707,-3.8707,-3.8964,0.0,0.0,0.0,0.0,0.0,0.0,0.0,0.0,0.0,0.0,0.0,0.0,0.0,0.0,0.0,-4.9001,-4.8798,-4.8443,-4.7906,-4.7889,-4.7445,-4.6481,-4.6464,-4.6464,-4.6464,-4.6464,-4.6583,-4.6769,-4.6041,-4.5703,-4.5669,-4.4936,-4.4615,0.0,-4.4615,-4.4615,-4.4615,-4.4615,-4.4615,-4.4615,-4.4615,-4.4615,-4.4615,-4.4615,-4.4615,-4.4615,-4.4615,-4.4615,-4.4615,-4.4615,-4.4615,-4.4564,-4.4362,-4.4139,-4.3952,-4.4008,-4.3678,-4.329,-4.329,-4.329,-4.329,-4.329,-4.329,-4.329,-4.329,-4.329,-4.329,-4.329,-4.329,-4.329,-4.329,-4.329,-4.329,-4.329,-4.329,-4.3125,-4.2701,-4.2096,-4.1557,-4.113,-4.0247,-3.9634,-3.9388,-3.9388,-3.9388,-3.9388,-3.8671,-3.862,-3.9388,-3.8671,-3.8671,-3.9388,-3.9068,-3.7979,-3.6198,-3.6671,-3.5534,-4.6489,-4.8379,-4.9463,-4.8581,-4.7131,-4.5296,0.0,0.0,-3.9662,-3.8872,-3.8707,-3.8707,-3.8707,-3.8707,-3.8964,-3.9772,0.0,0.0,0.0,0.0,0.0,0.0,0.0,0.0,0.0,0.0,0.0,0.0,0.0,0.0,-4.9001,-4.8325,-4.7889,-4.7889,-4.7889,-4.7208,-4.5737,-4.572,-4.572,-4.572,-4.572,-4.6092,-4.6769,-4.6041,-4.5703,-4.5669,-4.4936,-4.4615,0.0,-4.4615,-4.4615,-4.4615,-4.4615,-4.4615,-4.4615,-4.4615,-4.4615,-4.4615,-4.4615,-4.4615,-4.4615,-4.4615,-4.4615,-4.4615,-4.4615,-4.4615,-4.4564,-4.4453,-4.4113,-4.3934,-4.4611,-4.4066,-4.329,-4.329,-4.329,-4.329,-4.329,-4.329,-4.329,-4.329,-4.329,-4.329,-4.329,-4.329,-4.329,-4.329,-4.329,-4.329,-4.329,-4.329,-4.329,-4.329,-4.2746,-4.1856,-4.0516,-4.0397,-4.0113,-3.9454,-3.9388,-3.9388,-3.9388,-3.9388,-3.9388,-3.9388,-3.9388,-3.9388,-3.9388,-3.8345,-3.7266,-3.6172,-3.521,-3.415,-4.2489,-4.4195,-4.5241,-4.4415,-4.2983,-4.146,-4.0139,0.0,-3.819,-3.7933,-3.8322,-3.8707,-3.8707,-3.8707,-3.8964,-3.9772,-3.9441,0.0,0.0,0.0,0.0,0.0,0.0,0.0,0.0,0.0,0.0,0.0,0.0,0.0,-4.7496,-4.7276,-4.7141,-4.7141,-4.6667,-4.594,-4.4942,-4.4942,-4.4942,-4.4942,-4.4942,-4.506,-4.5309,-4.5043,-4.4942,0.0,-4.4699,-4.4615,-4.4615,-4.4615,-4.4615,-4.4615,-4.4615,-4.4615,-4.4615,-4.4615,-4.4615,-4.4615,-4.4615,-4.4615,-4.4615,-4.4615,-4.4615,-4.4615,-4.4615,-4.4615,-4.4682,-4.4989,-4.4511,-4.4078,-4.4651,-4.4066,-4.329,-4.329,-4.329,-4.329,-4.329,-4.329,-4.329,-4.329,-4.329,-4.329,-4.329,-4.329,-4.329,-4.329,-4.329,-4.329,-4.329,-4.329,-4.329,-4.329,-4.315,-4.2686,-4.1856,-4.092,-4.0307,-4.0113,-3.9664,-3.9388,-3.9388,-3.8708,-3.8671,-3.9388,-3.7965,-3.7572,-3.8308,-3.7214,-3.6526,-3.6158,-3.4415,-3.3839,0.0,-4.091,-4.2011,-4.1515,-4.0414,0.0,0.0,0.0,-3.7125,-3.7437,-3.7915,-3.834,-3.8652,-3.8707,-3.8854,-3.9368,-3.9276,0.0,0.0,0.0,0.0,0.0,0.0,0.0,0.0,0.0,0.0,0.0,0.0,0.0,-4.6786,-4.6532,-4.638,-4.638,-4.594,-4.5348,-4.4615,-4.4615,-4.4615,-4.4615,-4.4615,-4.4615,-4.4615,-4.4615,-4.4615,0.0,-4.4615,-4.4615,0.0,-4.4615,-4.4615,-4.4615,-4.4615,-4.4615,-4.4615,-4.4615,-4.4615,-4.4615,-4.4615,-4.4615,-4.4615,-4.4615,-4.4615,-4.4615,-4.4615,-4.4801,-4.5036,-4.5005,-4.4724,-4.4426,-4.4434,-4.3868,-4.329,-4.329,-4.329,-4.329,-4.329,-4.329,-4.329,-4.329,-4.329,-4.329,-4.329,-4.329,-4.329,-4.329,-4.329,-4.329,-4.329,-4.329,-4.329,-4.329,-4.329,-4.3125,-4.2761,-4.1758,-4.0935,-4.0427,-4.0023,-3.9679,-3.9388,-3.8745,-3.8708,-3.9388,-3.8092,-3.7738,-3.8383,-3.693,-3.6013,-3.5588,-3.3911,-3.3484,0.0,0.0,0.0,0.0,0.0,0.0,0.0,0.0,0.0,-3.718,-3.7419,-3.7731,-3.8487,-3.867,-3.8726,-3.8781,-3.9405,0.0,0.0,0.0,0.0,0.0,0.0,0.0,0.0,0.0,0.0,0.0,0.0,0.0,-4.6633,-4.5991,-4.5602,-4.5551,-4.5551,-4.5229,-4.4615,-4.4615,-4.4615,-4.4615,-4.4615,-4.4615,-4.4615,-4.4615,-4.4615,0.0,-4.4615,-4.4615,-4.4615,-4.4615,-4.4615,-4.4615,-4.4615,-4.4615,-4.4615,-4.4615,-4.4615,-4.4615,-4.4615,-4.4615,-4.4615,-4.4615,-4.4615,-4.4615,-4.4615,-4.506,-4.5445,-4.4636,-4.4659,-4.4779,-4.4003,-4.3518,-4.3245,-4.329,-4.329,-4.329,-4.329,-4.329,-4.329,-4.329,-4.329,-4.329,-4.329,-4.329,-4.329,-4.329,-4.329,-4.329,-4.329,-4.329,-4.329,-4.329,-4.329,-4.329,-4.329,-4.2686,-4.1811,-4.0546,-4.0382,-4.0053,-3.9454,-3.9388,-3.9388,-3.9388,-3.9337,-3.9265,-3.9177,-3.7084,-3.5668,-3.4787,-3.3628,-3.3154,0.0,0.0,0.0,0.0,0.0,0.0,0.0,0.0,0.0,0.0,0.0,0.0,0.0,0.0,-3.8909,-3.9515,0.0,-4.0099,0.0,0.0,0.0,0.0,0.0,0.0,0.0,0.0,0.0,0.0,0.0,-4.5139,-4.5139,-4.4942,-4.457,-4.395,-4.3933,-4.4147,-4.4615,-4.4615,-4.4615,-4.4615,-4.4615,-4.4615,-4.4615,-4.4615,-4.4615,-4.4615,-4.4615,-4.4615,-4.4615,-4.4615,-4.4615,-4.4615,-4.4615,-4.4615,-4.4615,-4.4615,-4.4615,-4.4615,-4.4615,-4.4615,-4.4615,-4.4615,-4.4615,-4.4615,-4.4615,-4.4733,-4.48,-4.4503,-4.3944,-4.3554,-4.3753,-4.3205,-4.2716,-4.317,-4.329,-4.329,-4.329,-4.329,-4.329,-4.329,-4.329,-4.329,-4.329,-4.329,-4.329,-4.329,-4.329,-4.329,-4.329,-4.329,-4.329,-4.329,-4.329,-4.329,-4.329,-4.2282,-4.1512,-4.1175,-4.0202,-3.9574,-3.9388,-3.9388,-3.9388,-3.9388,-3.8583,-3.7776,-3.6954,-3.5682,-3.5319,-3.5814,-3.394,-3.3556,-3.3807,-3.3807,0.0,0.0,0.0,0.0,0.0,0.0,0.0,0.0,0.0,0.0,0.0,0.0,0.0,0.0,-3.9501,0.0,0.0,0.0,0.0,0.0,0.0,0.0,0.0,0.0,0.0,0.0,0.0,-4.4045,-4.4045,-4.3724,-4.3335,-4.2912,-4.2912,-4.3267,-4.4045,-4.4045,-4.4215,-4.4615,-4.4615,-4.4615,-4.4615,-4.4615,-4.4615,-4.4615,-4.4615,-4.4615,-4.4615,-4.4615,-4.4615,-4.4615,-4.4615,-4.4615,-4.4615,-4.4615,-4.4615,-4.4615,-4.4615,-4.4615,-4.4615,-4.4615,-4.4615,-4.4615,-4.4615,-4.4615,-4.4439,-4.352,-4.3154,-4.2881,-4.2355,-4.2319,-4.2485,-4.2806,-4.312,-4.329,-4.329,-4.329,-4.329,-4.329,-4.329,-4.329,-4.329,-4.329,-4.329,-4.329,-4.329,-4.329,-4.329,-4.329,-4.329,-4.329,-4.329,-4.329,-4.329,-4.2132,-4.1422,-4.1422,-4.0427,-3.9738,-3.9388,-3.9388,-3.9388,-3.9388,-3.8345,-3.7252,-3.6198,-3.5668,-3.544,-3.5467,-3.4345,-3.415,-3.3807,-3.3899,-3.3954,-3.3825,0.0,0.0,0.0,0.0,0.0,0.0,0.0,0.0,0.0,0.0,0.0,0.0,0.0,0.0,0.0,0.0,0.0,0.0,0.0,0.0,0.0,0.0,0.0,0.0,0.0,-4.325,-4.325,-4.2642,-4.2236,-4.2134,-4.2117,-4.2439,-4.3054,-4.32,-4.3572,-4.4259,-4.4259,-4.4259,-4.4259,-4.4378,-4.4429,-4.4429,0.0,0.0,-4.4615,-4.4615,-4.4615,-4.4615,-4.4615,-4.4615,-4.4615,-4.4615,-4.4615,-4.4615,-4.4615,-4.453,-4.4445,-4.4564,-4.4615,-4.4615,-4.4615,-4.4514,-4.4064,-4.2442,-4.2429,-4.2479,-4.0834,-4.122,-4.2156,-4.2351,-4.2776,-4.317,-4.3275,-4.329,-4.329,-4.329,-4.329,-4.329,-4.329,-4.329,-4.329,-4.329,-4.329,-4.329,-4.329,-4.329,-4.329,-4.329,-4.329,-4.329,-4.329,-4.2132,-4.1422,-4.1422,-4.0666,-3.9993,-3.9403,-3.9388,-3.9388,-3.9388,-3.8509,-3.751,-3.6448,-3.629,-3.5668,-3.4705,-3.4553,-3.4553,-3.3807,-3.4289,-3.4656,-3.3972,0.0,0.0,0.0,0.0,0.0,0.0,0.0,0.0,0.0,0.0,0.0,0.0,0.0,0.0,0.0,0.0,0.0,0.0,0.0,0.0,0.0,0.0,0.0,0.0,0.0,-4.2472,-4.2472,-4.2354,-4.1999,-4.139,-4.1373,-4.1424,-4.1542,-4.2151,-4.2523,-4.2642,-4.2642,-4.2642,-4.2658,-4.3301,-4.3589,-4.3639,0.0,-4.4615,-4.4615,-4.4615,-4.4615,-4.4615,-4.4615,-4.4615,-4.4615,-4.4615,-4.4615,-4.4615,-4.4615,-4.4147,-4.3707,-4.4395,-4.4615,-4.4615,-4.4615,-4.4093,-4.3306,-4.2284,-4.2077,-4.1877,-4.0728,-4.0546,-4.098,-4.2126,-4.247,-4.2671,-4.317,-4.329,-4.329,-4.329,-4.329,-4.329,-4.329,-4.329,-4.329,-4.329,-4.329,-4.329,-4.329,-4.329,-4.329,-4.329,-4.329,-4.329,-4.329,-4.2132,-4.1422,-4.1422,-4.0247,-3.9493,-3.9388,-3.9388,-3.9388,-3.9388,-3.9228,-3.862,-3.7548,-3.6643,-3.5668,-3.4664,-3.3755,-3.3839,-3.3807,-3.4082,-3.4211,-3.3613,0.0,0.0,0.0,0.0,0.0,0.0,0.0,0.0,0.0,0.0,0.0,0.0,0.0,0.0,0.0,0.0,0.0,0.0,0.0,0.0,0.0,0.0,0.0,0.0,0.0,0.0,-4.1711,-4.1322,-4.0976,-4.0612,-4.0595,-4.0595,-4.0595,-4.0933,-4.1517,-4.2286,-4.2286,-4.2286,-4.2303,-4.2642,-4.2811,-4.2828,0.0,-4.3379,-4.3379,-4.3379,-4.3379,-4.3379,-4.3379,-4.3589,-4.3995,-4.4445,-4.4615,-4.4615,-4.4615,-4.435,-4.4096,-4.4496,-4.4615,-4.4514,-4.4035,-4.3621,-4.3017,-4.1674,-4.1313,-4.1091,-4.0115,-4.0127,-4.0546,-4.116,-4.1617,-4.1946,-4.2207,-4.2282,-4.2387,-4.2746,-4.2806,-4.2925,-4.323,-4.329,-4.329,-4.329,-4.329,-4.329,-4.329,-4.329,-4.329,-4.329,-4.329,-4.3155,-4.2836,-4.1923,-4.107,-4.0367,-3.9753,-3.9388,-3.9388,-3.9388,-3.9141,-3.8546,-3.8546,-3.8017,-3.693,-3.6448,-3.5974,-3.548,-3.447,-3.4233,-3.3694,-3.3867,-3.3918,0.0,0.0,-3.4448,-3.3952,0.0,0.0,0.0,0.0,0.0,0.0,0.0,0.0,0.0,0.0,0.0,0.0,0.0,0.0,0.0,0.0,0.0,0.0,0.0,0.0,0.0,0.0,0.0,-4.0933,-4.0417,-4.0096,-4.0096,-4.0096,-4.0096,-4.0096,-4.0096,-4.0671,-4.1779,-4.1779,-4.1779,-4.1779,-4.1948,-4.2033,-4.2049,-4.2219,-4.2286,-4.2286,-4.2286,-4.2286,-4.2286,-4.2286,-4.276,-4.3494,-4.4282,-4.4496,-4.4361,-4.4547,-4.4496,-4.4333,-4.4547,-4.4615,-4.4457,-4.3562,-4.3155,-4.2676,-4.1147,-4.0554,-4.0239,-3.9574,-3.9903,-4.0442,-4.0591,-4.113,-4.1654,-4.1803,-4.1833,-4.1983,-4.253,-4.262,-4.2746,-4.32,-4.329,-4.329,-4.329,-4.329,-4.329,-4.329,-4.329,-4.329,-4.329,-4.3155,-4.2776,-4.2006,-4.1482,-4.0651,-3.9448,-3.9574,-3.9574,-3.9388,-3.9388,-3.9017,-3.8196,-3.8182,-3.7534,-3.6198,-3.6198,-3.6093,-3.5814,-3.4815,-3.4594,-3.3346,-3.4054,-3.4542,-3.2939,0.0,0.0,-3.535,-3.5721,0.0,0.0,0.0,0.0,0.0,0.0,0.0,0.0,0.0,0.0,0.0,0.0,0.0,0.0,0.0,0.0,0.0,0.0,0.0,0.0,0.0,0.0,-4.018,-4.013,-4.0096,-4.0096,-4.0096,-4.0096,-4.0096,-4.0096,-4.0146,-4.0265,-4.0265,-4.0265,-4.0282,-4.0967,-4.1288,-4.1322,-4.1999,-4.2286,-4.2286,-4.2286,-4.2286,-4.2286,-4.2286,-4.276,-4.3494,-4.4282,-4.413,-4.3578,-4.4333,-4.4113,-4.3623,-4.435,-4.4615,-4.4457,-4.3562,-4.2754,-4.1901,-4.0946,-4.0115,-3.9481,-3.9424,-3.9903,-4.0561,-4.116,-4.1856,-4.25,-4.3021,-4.3155,-4.317,-4.3215,-4.323,-4.3245,-4.329,-4.329,-4.329,-4.329,-4.329,-4.329,-4.329,-4.329,-4.329,-4.329,-4.2791,-4.1946,-4.0651,-4.0502,-4.0172,-3.9433,-3.9993,-4.0053,-3.9454,-3.9388,-3.9337,-3.9301,-3.9265,-3.8256,-3.6198,-3.6198,-3.5694,-3.4787,-3.3713,-3.4262,-3.3302,-3.352,-3.3668,-3.2736,0.0,0.0,0.0,0.0,0.0,0.0,0.0,0.0,0.0,0.0,0.0,0.0,0.0,0.0,0.0,0.0,0.0,0.0,0.0,0.0,0.0,0.0,0.0,0.0,0.0,0.0,-4.0096,-4.0096,-4.0096,-4.0096,-4.0096,-4.0096,-4.0096,-4.0096,-4.0096,-4.0096,-4.0096,-4.0096,-4.0113,-4.04,-4.0536,-4.0536,-4.0823,-4.0942,-4.0942,-4.0942,-4.0942,-4.0993,-4.1441,-4.2066,-4.2811,-4.3572,-4.3978,-4.4181,-4.4496,-4.4062,-4.3511,-4.4333,-4.3905,-4.3024,-4.2608,-4.1901,-4.1013,-4.015,-3.9631,-3.9388,-3.9388,-3.9604,-3.9963,-4.0606,-4.0965,-4.1205,-4.1459,-4.1519,-4.1624,-4.2043,-4.2117,-4.2372,-4.3155,-4.3,-4.2865,-4.323,-4.2985,-4.2731,-4.2731,-4.309,-4.314,-4.2776,-4.2147,-4.1422,-4.0472,-4.0023,-3.9694,-3.9439,-3.9649,-3.9679,-3.9388,-3.9388,-3.8767,-3.7444,-3.873,-3.8331,-3.6198,-3.6198,-3.6013,-3.5588,-3.3911,-3.3513,-3.2439,-3.2565,-3.27,0.0,0.0,0.0,0.0,0.0,0.0,0.0,0.0,0.0,0.0,0.0,0.0,0.0,0.0,0.0,0.0,0.0,0.0,0.0,0.0,0.0,0.0,0.0,0.0,0.0,0.0,0.0,0.0,-4.0096,-4.0096,-4.0096,-4.0096,-4.0096,-4.0096,-4.0096,-4.0096,-4.0096,-4.0096,-4.0096,-4.0096,-4.0096,-4.0096,-4.0096,-4.0096,-4.0096,-4.0096,-4.0096,-4.0096,-4.018,-4.0916,-4.1508,-4.2033,-4.2777,-4.3555,-4.4136,-4.3704,-4.3334,-4.311,-4.3385,-4.2703,-4.1794,-4.1645,-4.118,-4.0535,-3.9646,-3.9388,-3.9388,-3.9388,-3.9574,-3.9843,-4.0292,-4.0561,-4.0771,-4.098,-4.1025,-4.1205,-4.1863,-4.1833,-4.2043,-4.311,-4.2791,-4.262,-4.32,-4.2955,-4.2635,-4.2425,-4.2746,-4.2701,-4.1871,-4.1339,-4.0801,-4.0142,-3.9679,-3.9388,-3.9388,-3.9388,-3.9388,-3.9388,-3.9388,-3.8694,-3.7238,-3.8331,-3.8017,-3.6198,-3.5894,-3.5748,-3.5668,-3.3898,-3.3283,-3.0551,-3.1136,0.0,0.0,0.0,0.0,0.0,0.0,0.0,0.0,0.0,0.0,0.0,0.0,0.0,0.0,0.0,0.0,0.0,0.0,0.0,0.0,0.0,0.0,0.0,0.0,0.0,0.0,0.0,0.0,0.0,-4.0096,-4.0096,-4.0096,-4.0096,-4.0096,-4.0096,-4.0096,-4.0096,-4.0096,-4.0096,-4.0096,-4.0096,-4.0096,-4.0096,-4.0096,-4.0096,-4.0096,-4.0096,-4.0096,-4.0096,-4.018,-4.0899,-4.1204,-4.1288,-4.2016,-4.276,-4.3192,-4.1709,-4.1679,-4.214,-4.1283,-4.0973,-4.0944,-4.0761,-4.0675,-4.05,-3.9631,-3.9388,-3.9388,-3.9388,-3.9903,-4.0382,-4.0397,-4.0905,-4.1587,-4.2246,-4.2396,-4.259,-4.3155,-4.2806,-4.2605,-4.3185,-4.2791,-4.262,-4.32,-4.329,-4.309,-4.247,-4.2381,-4.1886,-4.0531,-4.0397,-4.0127,-3.9448,-3.9388,-3.9388,-3.9388,-3.9388,-3.9388,-3.9388,-3.9388,-3.9388,-3.9373,-3.8345,-3.7252,-3.6198,-3.521,-3.4705,-3.4705,-3.3598,-3.367,-3.1299,0.0,0.0,0.0,0.0,0.0,0.0,0.0,0.0,0.0,0.0,0.0,0.0,0.0,0.0,0.0,0.0,0.0,0.0,0.0,0.0,0.0,0.0,0.0,0.0,0.0,0.0,0.0,0.0,0.0,0.0,-3.9825,-4.0096,-4.0096,-4.0096,-4.0096,-4.0096,-4.0096,-4.0096,-4.0096,-4.0096,-4.0096,-4.0096,-4.0096,-4.0096,-4.0096,-4.0096,-4.0096,-4.0096,-4.0096,-4.0096,-4.013,-4.035,-4.073,-4.1238,-4.1457,-4.1999,-4.2483,-4.1526,-4.1019,-4.0696,-4.0393,-3.9865,-3.9387,-3.986,-3.9906,-3.9737,-3.9481,-3.9388,-3.9388,-3.9388,-3.9574,-3.9828,-4.0292,-4.0546,-4.0741,-4.0935,-4.1339,-4.1767,-4.1923,-4.2216,-4.2605,-4.3185,-4.2791,-4.262,-4.32,-4.2551,-4.1893,-4.1737,-4.1265,-4.0831,-4.0442,-4.0397,-4.0127,-3.9448,-3.9388,-3.9388,-3.9388,-3.8708,-3.862,-3.9373,-3.9388,-3.8694,-3.7161,-3.7587,-3.7252,-3.6198,-3.521,-3.5047,-3.5708,-3.394,-3.3283,-3.0024,0.0,0.0,0.0,0.0,0.0,0.0,0.0,0.0,0.0,0.0,0.0,0.0,0.0,0.0,0.0,0.0,0.0,0.0,0.0,0.0,0.0,0.0,0.0,0.0,0.0,0.0,0.0,0.0,0.0,0.0,-3.9436,-3.9808,-4.0096,-4.0096,-4.0096,-4.0096,-4.0096,-4.0096,-4.0096,-4.0096,-4.0096,-4.0096,-4.0096,-4.0096,-4.0096,-4.0096,-4.0096,-4.0096,-4.0096,-4.0096,-4.0096,-4.0096,-4.0383,-4.0721,-4.0402,-4.0776,-4.1226,-3.9841,-3.9282,-3.9087,-3.8731,-3.8241,-3.7936,-3.8886,-3.9102,-3.9065,-3.9349,-3.9388,-3.9388,-3.9388,-3.9388,-3.9514,-3.9918,-4.0008,-4.0083,-4.0337,-4.0711,-4.107,-4.1324,-4.1527,-4.1788,-4.2447,-4.2013,-4.1803,-4.2462,-4.1669,-4.0995,-4.0995,-4.0412,-4.0008,-4.0008,-4.0008,-3.9843,-3.9418,-3.9017,-3.8745,-3.8745,-3.8144,-3.7904,-3.813,-3.8546,-3.7979,-3.6237,-3.6852,-3.6657,-3.5588,-3.4581,-3.4387,-3.4952,-3.367,-3.3124,0.0,0.0,0.0,0.0,0.0,0.0,0.0,0.0,0.0,0.0,0.0,0.0,0.0,0.0,0.0,0.0,0.0,0.0,0.0,0.0,0.0,0.0,0.0,0.0,0.0,0.0,0.0,0.0,0.0,0.0,0.0,-3.8853,-3.9191,-3.9893,-3.996,-3.9977,-3.991,-4.0028,-4.0079,-4.0011,-4.0079,-4.0096,-4.0096,-4.0096,-4.0096,-4.0096,-4.0096,-4.0096,-4.0096,-4.0096,-4.0096,-4.0096,-4.0096,-4.0096,-3.9995,-3.9209,-3.9364,-3.9663,-3.7378,-3.7049,-3.7466,-3.6655,-3.6432,-3.6701,-3.7868,-3.8302,-3.8527,-3.9155,-3.9328,-3.9388,-3.9388,-3.9388,-3.9388,-3.9388,-3.9388,-3.9589,-4.0187,-4.0367,-4.0576,-4.1175,-4.0861,-4.0681,-4.128,-4.0891,-4.0666,-4.1205,-4.0786,-4.0382,-4.0322,-3.9783,-3.9388,-3.9388,-3.9388,-3.9388,-3.9388,-3.8509,-3.7904,-3.7791,-3.7715,-3.719,-3.6132,-3.719,-3.7266,-3.6093,-3.6053,-3.5628,-3.4705,-3.3641,-3.3154,-3.324,-3.3154,-3.3124,0.0,0.0,0.0,0.0,0.0,0.0,0.0,0.0,0.0,0.0,0.0,0.0,0.0,0.0,0.0,0.0,0.0,0.0,0.0,0.0,0.0,0.0,0.0,0.0,0.0,0.0,0.0,0.0,0.0,0.0,-3.7269,-3.7821,-3.821,-3.8379,-3.892,-3.8954,-3.8379,-3.9537,-3.9808,-3.9225,-3.9825,-4.0096,-4.0096,-4.0096,-4.0096,-4.0096,-4.0096,-4.0096,-4.0096,-4.0096,-4.0096,-4.0096,-4.0096,-4.0096,-3.9995,-3.9209,-3.9007,-3.8914,-3.7205,-3.6708,-3.6724,-3.5976,-3.6073,-3.6537,-3.6806,-3.7599,-3.8422,-3.8571,-3.899,-3.9388,-3.9388,-3.9388,-3.9388,-3.9388,-3.9388,-3.9454,-3.9568,-4.0038,-4.0442,-4.0591,-4.0905,-4.1205,-4.1392,-4.1265,-4.104,-4.0666,-4.0487,-4.0217,-3.9694,-3.9514,-3.9388,-3.9388,-3.9388,-3.9388,-3.9388,-3.9177,-3.8708,-3.7829,-3.7021,-3.6107,-3.5047,-3.6802,-3.6919,-3.5047,-3.502,-3.4938,-3.4705,-3.3641,-3.3513,-3.4345,-3.3471,-3.3124,0.0,0.0,0.0,0.0,0.0,0.0,0.0,0.0,0.0,0.0,0.0,0.0,0.0,0.0,0.0,0.0,0.0,0.0,0.0,0.0,0.0,0.0,0.0,0.0,0.0,0.0,0.0,0.0,0.0,-3.6383,-3.6778,-3.7144,-3.7533,-3.7889,-3.8616,-3.865,-3.7922,-3.9005,-3.9191,-3.8481,-3.9208,-3.9757,-4.0096,-4.0096,-4.0096,-4.0096,-4.0096,-4.0096,-4.0096,-4.0096,-4.0096,-4.0096,-4.0096,-3.9859,-3.9437,-3.8663,-3.8117,-3.7642,-3.6477,-3.6086,-3.6006,-3.5619,-3.5744,-3.6073,-3.6387,-3.6956,-3.7539,-3.7838,-3.8407,-3.8931,-3.8931,-3.917,-3.9388,-3.9388,-3.9388,-3.9388,-3.9388,-3.9694,-3.9933,-3.9933,-4.0202,-4.0442,-4.0442,-4.0442,-4.0322,-3.9978,-3.9933,-3.9798,-3.9433,-3.9388,-3.9388,-3.9388,-3.9388,-3.9388,-3.9388,-3.8457,-3.7648,-3.706,-3.6067,-3.5007,-3.3995,-3.5453,-3.5574,-3.3953,-3.4428,-3.447,-3.3911,-3.3356,-3.3398,-3.3911,-3.3356,-3.3124,0.0,0.0,0.0,0.0,0.0,0.0,0.0,0.0,0.0,0.0,0.0,0.0,0.0,0.0,0.0,0.0,0.0,0.0,0.0,0.0,0.0,0.0,0.0,0.0,0.0,0.0,0.0,0.0,0.0,-3.5707,-3.6372,-3.6524,-3.6857,-3.7483,-3.8227,-3.8261,-3.7516,-3.8362,-3.8447,-3.7719,-3.8582,-3.9334,-3.991,-4.0045,-4.0096,-4.0096,-4.0096,-4.0096,-4.007,-3.9952,-3.9901,-3.9876,-3.9756,-3.9305,-3.8635,-3.7876,-3.7174,-3.6492,-3.575,-3.5504,-3.5504,-3.5504,-3.5504,-3.5609,-3.6148,-3.6402,-3.6611,-3.724,-3.7883,-3.8422,-3.8542,-3.899,-3.9388,-3.9388,-3.9388,-3.9388,-3.9388,-3.9388,-3.9388,-3.9388,-3.9388,-3.9388,-3.9388,-3.9388,-3.9388,-3.9388,-3.9388,-3.9388,-3.9388,-3.9388,-3.9388,-3.9388,-3.9388,-3.9337,-3.9141,-3.7496,-3.633,-3.5974,-3.517,-3.4233,-3.3154,-3.3953,-3.3995,-3.3124,-3.3953,-3.3995,-3.3124,-3.3124,-3.3124,-3.3124,-3.3124,-3.3124,0.0,0.0,0.0,0.0,0.0,0.0,0.0,0.0,0.0,0.0,0.0,0.0,0.0,0.0,0.0,0.0,0.0,0.0,0.0,0.0,0.0,0.0,0.0,0.0,0.0,0.0,0.0,0.0,-3.4353,-3.4692,-3.4793,-3.5419,-3.5802,-3.5904,-3.6671,-3.6705,-3.5904,-3.7324,-3.7686,-3.6965,-3.8328,-3.9039,-3.9157,-3.9808,-4.0096,-4.0096,-4.0096,-4.0096,-4.0045,-3.9342,-3.9059,-3.9005,-3.8374,-3.8035,-3.7863,-3.7054,-3.6691,-3.6492,-3.575,-3.5504,-3.5504,-3.5504,-3.5504,-3.5519,-3.5609,-3.6028,-3.6611,-3.724,-3.7883,-3.8527,-3.9125,-3.9313,-3.9388,-3.9388,-3.9388,-3.9388,-3.9388,-3.9388,-3.9388,-3.9388,-3.9388,-3.9388,-3.9388,-3.9388,-3.9388,-3.9388,-3.9388,-3.9388,-3.9388,-3.9388,-3.9388,-3.9388,-3.9388,-3.9017,-3.8069,-3.7753,-3.6841,-3.502,-3.4787,-3.4233,-3.3154,-3.324,-3.324,-3.3124,-3.324,-3.324,-3.3124,-3.3124,-3.3124,-3.3124,-3.3124,-3.3124,0.0,0.0,0.0,0.0,0.0,0.0,0.0,0.0,0.0,0.0,0.0,0.0,0.0,0.0,0.0,0.0,0.0,0.0,0.0,0.0,0.0,0.0,0.0,0.0,0.0,0.0,0.0,0.0,-3.4083,-3.4489,-3.4489,-3.5194,-3.56,-3.56,-3.6366,-3.64,-3.56,-3.6721,-3.7134,-3.6812,-3.7872,-3.8599,-3.9022,-3.9774,-4.0096,-4.0096,-4.0096,-3.9833,-3.9394,-3.9059,-3.8663,-3.8246,-3.7921,-3.7515,-3.7084,-3.6737,-3.6337,-3.5943,-3.5619,-3.5504,-3.5504,-3.5504,-3.5504,-3.5504,-3.5504,-3.5714,-3.6073,-3.6716,-3.7105,-3.7464,-3.8123,-3.8287,-3.8287,-3.8287,-3.8287,-3.8287,-3.8287,-3.8886,-3.9388,-3.9388,-3.9388,-3.9388,-3.9388,-3.9388,-3.9388,-3.9388,-3.9388,-3.9388,-3.9388,-3.9388,-3.9388,-3.9388,-3.9388,-3.898,-3.7866,-3.7266,-3.6265,-3.4787,-3.415,-3.3598,-3.3124,-3.3124,-3.3124,-3.3124,-3.3124,-3.3124,-3.3124,-3.3124,-3.3124,-3.3124,-3.3124,-3.3124,0.0,0.0,0.0,0.0,0.0,0.0,0.0,0.0,0.0,0.0,0.0,0.0,0.0,0.0,0.0,0.0,0.0,0.0,0.0,0.0,0.0,0.0,0.0,0.0,0.0,0.0,0.0,0.0,-3.3406,-3.3952,-3.3952,-3.4641,-3.5042,-3.5042,-3.5622,-3.574,-3.5312,-3.6096,-3.6485,-3.6524,-3.7449,-3.8193,-3.8734,-3.9455,-3.9808,-3.9808,-3.9808,-3.9358,-3.8608,-3.8398,-3.8003,-3.7485,-3.7294,-3.6844,-3.6337,-3.6337,-3.5975,-3.5504,-3.5504,-3.5504,-3.5504,-3.5504,-3.5504,-3.5504,-3.5504,-3.5504,-3.5639,-3.6297,-3.6492,-3.6626,-3.724,-3.7404,-3.7404,-3.7404,-3.7404,-3.7464,-3.7629,-3.8452,-3.9215,-3.9394,-3.9388,-3.9388,-3.9388,-3.9388,-3.9388,-3.9388,-3.9388,-3.9388,-3.9388,-3.9388,-3.9301,-3.9017,-3.898,-3.8472,-3.7127,-3.6265,-3.5386,-3.4345,-3.3556,-3.3124,-3.3124,-3.3124,-3.3048,-3.2855,-3.3006,-3.3124,-3.3124,-3.3124,-3.3124,-3.3124,-3.3124,-3.3124,0.0,0.0,0.0,0.0,0.0,0.0,0.0,0.0,0.0,0.0,0.0,0.0,0.0,0.0,0.0,0.0,0.0,0.0,0.0,0.0,0.0,0.0,0.0,0.0,0.0,0.0,0.0,0.0,-3.1616,-3.2412,-3.2412,-3.3102,-3.3525,-3.3525,-3.3558,-3.3897,-3.4539,-3.5301,-3.565,-3.5667,-3.7195,-3.7922,-3.7983,-3.8657,-3.8962,-3.8962,-3.8962,-3.8525,-3.7806,-3.7024,-3.6691,-3.6584,-3.5894,-3.5587,-3.5554,-3.5554,-3.5537,-3.5504,-3.5504,-3.5504,-3.5504,-3.5504,-3.5504,-3.5504,-3.5504,-3.5504,-3.5639,-3.6297,-3.6492,-3.6626,-3.724,-3.7404,-3.7404,-3.7404,-3.7404,-3.7584,-3.8197,-3.8392,-3.8631,-3.929,-3.9388,-3.9388,-3.9388,-3.9388,-3.9388,-3.9388,-3.9388,-3.9388,-3.9388,-3.9388,-3.9017,-3.7994,-3.7866,-3.7035,-3.502,-3.4828,-3.4304,-3.324,-3.3111,-3.3124,-3.3124,-3.3124,-3.2817,-3.2265,-3.2805,-3.3124,-3.3124,-3.3124,-3.3124,-3.3124,-3.3124,-3.3124,0.0,0.0,0.0,0.0,0.0,0.0,0.0,0.0,0.0,0.0,0.0,0.0,0.0,0.0,0.0,0.0,0.0,0.0,0.0,0.0,0.0,0.0,0.0,0.0,0.0,0.0,0.0,0.0,0.0,-3.1802,-3.2276,-3.3,-3.3406,-3.3406,-3.3406,-3.3541,-3.3795,-3.4539,-3.4678,-3.4293,-3.6249,-3.6724,-3.5871,-3.7028,-3.7275,-3.6771,-3.6771,-3.6866,-3.701,-3.6722,-3.6337,-3.5863,-3.5619,-3.5504,-3.5504,-3.5504,-3.5504,-3.5504,-3.5504,-3.5504,-3.5504,-3.5504,-3.5504,-3.5504,-3.5504,-3.5504,-3.5639,-3.6297,-3.6178,-3.6013,-3.6641,-3.6507,-3.6193,-3.6193,-3.6193,-3.6372,-3.703,-3.7808,-3.8467,-3.8706,-3.9125,-3.9388,-3.9388,-3.9388,-3.9388,-3.9388,-3.9388,-3.9388,-3.9388,-3.8782,-3.8234,-3.7829,-3.7175,-3.6225,-3.4828,-3.4705,-3.4233,-3.3154,-3.3124,-3.3124,-3.3124,-3.3124,-3.2805,-3.2227,-3.2416,-3.2516,-3.2516,-3.2893,-3.3124,-3.3124,-3.3124,-3.3124,0.0,0.0,0.0,0.0,0.0,0.0,0.0,0.0,0.0,0.0,0.0,0.0,0.0,0.0,0.0,0.0,0.0,0.0,0.0,0.0,0.0,0.0,0.0,0.0,0.0,0.0,0.0,0.0,0.0,0.0,-3.1549,-3.2256,-3.2662,-3.2662,-3.2899,-3.3152,-3.3406,-3.3905,-3.4062,-3.39,-3.5378,-3.5613,-3.4723,-3.5652,-3.5796,-3.5282,-3.5246,-3.5615,-3.6228,-3.6228,-3.5943,-3.5504,-3.5504,-3.5504,-3.5504,-3.5504,-3.5504,-3.5504,-3.5504,-3.5504,-3.5504,-3.5504,-3.5504,-3.5504,-3.5504,-3.5504,-3.5594,-3.6028,-3.5833,-3.5609,-3.6043,-3.5833,-3.5504,-3.5504,-3.5504,-3.5624,-3.6058,-3.7,-3.7883,-3.8302,-3.8751,-3.9155,-3.9343,-3.9388,-3.9388,-3.9388,-3.9388,-3.9265,-3.8907,-3.8234,-3.751,-3.6841,-3.6107,-3.5278,-3.4233,-3.415,-3.3869,-3.3154,-3.3124,-3.3124,-3.3124,-3.2893,-3.2516,-3.1951,-3.1938,-3.1851,-3.1675,-3.2428,-3.278,-3.2792,-3.2993,-3.3124,0.0,0.0,0.0,0.0,0.0,0.0,0.0,0.0,0.0,0.0,0.0,0.0,0.0,0.0,0.0,0.0,0.0,0.0,0.0,0.0,0.0,0.0,0.0,0.0,0.0,0.0,0.0,0.0,-2.921,-3.0072,-3.0108,-3.0801,-3.119,-3.119,-3.1904,-3.2594,-3.3296,-3.3416,-3.3811,-3.4478,-3.4607,-3.4648,-3.4601,-3.4629,-3.4643,-3.4618,-3.4515,-3.4846,-3.5474,-3.5489,-3.5504,-3.5504,-3.5504,-3.5504,-3.5504,-3.5504,-3.5504,-3.5504,-3.5504,-3.5504,-3.5504,-3.5504,-3.5504,-3.5504,-3.5504,-3.5504,-3.5504,-3.5504,-3.5504,-3.5504,-3.5504,-3.5504,-3.5504,-3.5504,-3.5504,-3.5504,-3.5534,-3.6028,-3.6851,-3.8123,-3.8377,-3.8601,-3.9275,-3.9394,-3.9394,-3.9394,-3.9373,-3.9017,-3.7956,-3.7753,-3.6958,-3.487,-3.4637,-3.4207,-3.3172,-3.3056,-3.3056,-3.3124,-3.3124,-3.3111,-3.3056,-3.2516,-3.1951,-3.1386,-3.1361,-3.111,-3.0595,-3.1662,-3.219,-3.2227,-3.2805,-3.3124,-2.6691,0.0,0.0,0.0,0.0,0.0,0.0,0.0,0.0,0.0,0.0,0.0,0.0,0.0,0.0,0.0,0.0,0.0,0.0,0.0,0.0,0.0,0.0,0.0,0.0,0.0,0.0,0.0,-2.8738,-2.9533,-3.0074,-3.0801,-3.119,-3.119,-3.1393,-3.1382,-3.1157,-3.2182,-3.2342,-3.1647,-3.3182,-3.336,-3.2407,-3.2928,-3.3157,-3.3124,-3.3561,-3.4143,-3.4801,-3.5295,-3.5504,-3.5504,-3.5504,-3.5504,-3.5504,-3.5504,-3.5504,-3.5504,-3.5504,-3.5504,-3.5504,-3.5504,-3.5504,-3.5504,-3.5504,-3.5504,-3.5504,-3.5504,-3.5504,-3.5504,-3.5504,-3.5504,-3.5504,-3.5504,-3.5504,-3.5639,-3.6118,-3.6357,-3.6716,-3.7524,-3.8063,-3.8452,-3.8631,-3.8676,-3.8676,-3.8676,-3.9095,-3.9017,-3.7956,-3.7137,-3.5967,-3.4245,-3.3349,-3.2764,-3.2495,-3.2453,-3.2629,-3.3056,-3.3124,-3.288,-3.2466,-3.2303,-3.1775,-3.0846,-3.0834,-3.057,-3.0018,-3.1097,-3.1825,-3.2227,-3.2805,-3.3124,0.0,0.0,0.0,0.0,0.0,0.0,-2.6691,-2.6691,0.0,0.0,0.0,0.0,0.0,0.0,0.0,0.0,0.0,0.0,0.0,0.0,0.0,0.0,0.0,0.0,0.0,-2.6691,-2.6877,-2.73,-2.8366,-2.9467,-3.0497,-3.097,-3.119,-3.119,-3.119,-3.1187,-3.1133,-3.1423,-3.1493,-3.1344,-3.2013,-3.202,-3.1496,-3.1951,-3.2122,-3.2108,-3.2796,-3.3455,-3.4113,-3.4801,-3.525,-3.5504,-3.5504,-3.5504,-3.5504,-3.5504,-3.5504,-3.5504,-3.5504,-3.5504,-3.5504,-3.5504,-3.5504,-3.5504,-3.5504,-3.5504,-3.5504,-3.5504,-3.5504,-3.5504,-3.5504,-3.5504,-3.5504,-3.5504,-3.5504,-3.5609,-3.5998,-3.6492,-3.706,-3.7689,-3.7913,-3.8153,-3.8721,-3.8586,-3.8392,-3.8392,-3.8587,-3.8243,-3.6926,-3.5839,-3.4674,-3.3292,-3.2349,-3.1863,-3.1863,-3.2077,-3.2353,-3.2692,-3.2717,-3.2667,-3.2579,-3.1913,-3.1361,-3.0947,-3.0495,-3.0118,-2.9792,-3.0645,-3.1461,-3.2227,-3.2554,-3.2842,0.0,0.0,0.0,0.0,0.0,0.0,-2.6708,-2.6691,-2.6691,0.0,0.0,0.0,0.0,0.0,0.0,0.0,0.0,0.0,0.0,0.0,0.0,0.0,0.0,0.0,-2.6691,-2.6691,-2.6691,-2.6691,-2.813,-2.9619,-3.1004,-3.1157,-3.119,-3.119,-3.119,-3.1475,-3.2077,-3.0961,-3.0991,-3.216,-3.1033,-3.0821,-3.1391,-3.1466,-3.1511,-3.154,-3.2198,-3.2886,-3.3544,-3.4234,-3.4891,-3.5504,-3.5504,-3.5504,-3.5504,-3.5504,-3.5504,-3.5504,-3.5504,-3.5504,-3.5504,-3.5504,-3.5504,-3.5504,-3.5504,-3.5504,-3.5504,-3.5504,-3.5504,-3.5504,-3.5504,-3.5504,-3.5504,-3.5504,-3.5504,-3.5534,-3.5594,-3.6507,-3.7509,-3.8153,-3.7808,-3.7764,-3.8901,-3.8501,-3.8042,-3.8117,-3.7769,-3.693,-3.5333,-3.4351,-3.3323,-3.2164,-3.1599,-3.1298,-3.1298,-3.175,-3.2064,-3.2114,-3.2127,-3.2328,-3.278,-3.1399,-3.0809,-3.1198,-3.0281,-2.9792,-2.9792,-3.0344,-3.111,-3.2039,-3.2152,-3.2491,0.0,0.0,0.0,0.0,0.0,0.0,-2.6843,-2.6691,-2.6691,0.0,0.0,0.0,0.0,0.0,0.0,0.0,0.0,0.0,0.0,0.0,0.0,0.0,0.0,0.0,-2.6691,-2.6691,-2.6691,-2.6691,-2.813,-2.9382,-3.0277,-3.0869,-3.119,-3.119,-3.119,-3.1043,-3.0675,-3.0493,-3.0283,-3.0086,-3.0364,-3.0567,-3.0717,-3.1256,-3.1511,-3.154,-3.2198,-3.2886,-3.3544,-3.4234,-3.4891,-3.5504,-3.5504,-3.5504,-3.5504,-3.5504,-3.5504,-3.5504,-3.5504,-3.5504,-3.5504,-3.5504,-3.5504,-3.5504,-3.5504,-3.5504,-3.5504,-3.5504,-3.5504,-3.5504,-3.5504,-3.5504,-3.5504,-3.5504,-3.5504,-3.5654,-3.6178,-3.6492,-3.6851,-3.7479,-3.7494,-3.733,-3.709,-3.6286,-3.5842,-3.6309,-3.6093,-3.5441,-3.4246,-3.3913,-3.3077,-3.113,-3.0834,-3.0771,-3.0771,-3.0871,-3.111,-3.1524,-3.1549,-3.1424,-3.111,-3.0783,-3.0457,-3.0118,-2.9905,-2.9792,-2.9792,-3.0344,-3.0721,-3.0947,-3.1813,-3.2277,0.0,0.0,0.0,-2.8501,0.0,0.0,0.0,-2.6962,-2.6793,0.0,0.0,0.0,0.0,0.0,0.0,0.0,0.0,0.0,0.0,0.0,0.0,0.0,0.0,0.0,-2.6691,-2.6691,-2.6843,-2.7232,-2.81,-2.8908,-2.9605,-3.0339,-3.074,-3.074,-3.074,-3.074,-3.074,-3.0184,-2.9925,-2.9957,-3.0015,-3.0208,-3.0522,-3.1182,-3.1511,-3.1525,-3.1854,-3.2363,-3.3051,-3.3709,-3.4382,-3.5026,-3.537,-3.5504,-3.5504,-3.5504,-3.5504,-3.5504,-3.5504,-3.5504,-3.5504,-3.5504,-3.5504,-3.5504,-3.5504,-3.5504,-3.5504,-3.5504,-3.5504,-3.5504,-3.5504,-3.5504,-3.5504,-3.5504,-3.5504,-3.5594,-3.5923,-3.6492,-3.6701,-3.5874,-3.6246,-3.6599,-3.629,-3.5179,-3.4412,-3.4701,-3.4672,-3.4176,-3.3053,-3.2736,-3.2111,-3.0735,-3.0369,-3.0206,-3.0206,-3.0457,-3.0721,-3.0984,-3.0997,-3.0997,-3.0997,-3.0495,-3.0068,-2.9804,-2.9792,-2.9792,-2.9792,-3.0068,-3.0482,-3.1009,-3.1549,-3.2102,0.0,0.0,0.0,0.0,0.0,-2.7993,0.0,0.0,0.0,0.0,0.0,0.0,0.0,0.0,0.0,0.0,0.0,0.0,0.0,0.0,0.0,0.0,0.0,0.0,0.0,-2.6691,-2.6911,-2.7414,-2.7904,-2.8382,-2.8817,-2.9648,-3.0123,-3.0123,-3.0123,-3.0356,-3.0858,-2.9761,-2.9489,-3.0037,-2.9724,-2.9849,-3.0357,-3.1137,-3.1511,-3.1511,-3.1511,-3.1869,-3.2557,-3.308,-3.3769,-3.4578,-3.5235,-3.5504,-3.5504,-3.5504,-3.5504,-3.5504,-3.5504,-3.5504,-3.5504,-3.5504,-3.5504,-3.5504,-3.5504,-3.5504,-3.5504,-3.5504,-3.5504,-3.5504,-3.5504,-3.5504,-3.5504,-3.5504,-3.5504,-3.5439,-3.5246,-3.6015,-3.6163,-3.4111,-3.4483,-3.5131,-3.5311,-3.413,-3.3184,-3.3271,-3.3244,-3.283,-3.1875,-3.1454,-3.1035,-3.0507,-3.0055,-2.9792,-2.9792,-3.0206,-3.0457,-3.0457,-3.0457,-3.0645,-3.106,-3.0256,-2.9792,-2.9792,-2.9792,-2.9792,-2.9792,-2.9792,-3.0294,-3.1248,-3.1348,-3.1938,0.0,0.0,0.0,0.0,-2.9397,0.0,0.0,0.0,-2.6725,-2.681,0.0,0.0,0.0,0.0,0.0,0.0,0.0,0.0,0.0,0.0,0.0,0.0,0.0,0.0,0.0,-2.6691,-2.6555,-2.6236,-2.738,-2.7951,-2.7531,-2.8795,-2.9496,-2.9496,-2.9496,-2.954,-2.9607,-2.8943,-2.8637,-2.8707,-2.9319,-2.9651,-2.9729,-3.0943,-3.1511,-3.1511,-3.1511,-3.1869,-3.2527,-3.2572,-3.3365,-3.4578,-3.5235,-3.5504,-3.5504,-3.5504,-3.5504,-3.5504,-3.5504,-3.5504,-3.5504,-3.5504,-3.5504,-3.5504,-3.5504,-3.5504,-3.5504,-3.5504,-3.5504,-3.5504,-3.5504,-3.5504,-3.5504,-3.5504,-3.5504,-3.5246,-3.4361,-3.4278,-3.4048,-3.2975,-3.2214,-3.2017,-3.2836,-3.2132,-3.1617,-3.211,-3.1474,-3.0893,-3.0779,-3.0698,-3.0495,-2.9942,-2.9829,-2.9792,-2.9792,-2.9854,-2.988,-2.988,-2.988,-2.9917,-2.9967,-2.9854,-2.9792,-2.9792,-2.9792,-2.9792,-2.9792,-2.9792,-3.0105,-3.0721,-3.1173,-3.1725,0.0,0.0,0.0,0.0,0.0,0.0,-2.921,0.0,-2.7469,0.0,0.0,0.0,0.0,0.0,0.0,0.0,0.0,0.0,0.0,0.0,0.0,0.0,0.0,0.0,0.0,0.0,0.0,0.0,-2.7007,-2.7377,-2.6822,-2.8119,-2.8873,-2.8873,-2.8873,-2.9058,-2.9406,-2.8803,-2.8487,-2.8503,-2.8843,-2.9205,-2.9636,-3.0522,-3.1122,-3.1511,-3.1511,-3.166,-3.1944,-3.2333,-3.3066,-3.3978,-3.4651,-3.516,-3.5504,-3.5504,-3.5504,-3.5504,-3.5504,-3.5504,-3.5504,-3.5504,-3.5504,-3.5504,-3.5504,-3.5504,-3.5504,-3.5504,-3.5504,-3.5504,-3.5504,-3.5504,-3.5504,-3.5504,-3.5052,-3.4509,-3.4095,-3.3886,-3.3379,-3.2064,-3.1779,-3.1602,-3.1086,-3.0633,-3.0458,-3.0701,-3.0657,-3.0507,-3.0181,-3.0419,-3.0407,-2.9854,-2.9792,-2.9792,-2.9792,-2.9792,-2.9792,-2.9792,-2.9792,-2.9792,-2.9792,-2.9792,-2.9792,-2.9792,-2.9792,-2.9792,-2.9792,-2.9792,-3.008,-3.062,-3.1148,-3.1687,-3.119,0.0,0.0,0.0,0.0,0.0,0.0,0.0,0.0,0.0,0.0,0.0,0.0,0.0,0.0,0.0,0.0,0.0,0.0,0.0,0.0,0.0,0.0,0.0,0.0,0.0,0.0,-2.5799,-2.6554,-2.6767,-2.6198,-2.7317,-2.8062,-2.8247,-2.8262,-2.8463,-2.8904,-2.8472,-2.8262,-2.8262,-2.8675,-2.9116,-2.9636,-3.0417,-3.1032,-3.1511,-3.1511,-3.1511,-3.154,-3.2019,-3.2632,-3.329,-3.3948,-3.4622,-3.525,-3.5429,-3.5504,-3.5504,-3.5504,-3.5504,-3.5504,-3.5504,-3.5504,-3.5504,-3.5504,-3.5504,-3.5504,-3.5504,-3.5504,-3.5504,-3.5504,-3.5294,-3.51,-3.51,-3.4327,-3.3553,-3.3276,-3.3082,-3.2512,-3.1086,-3.1223,-3.1176,-3.0009,-2.9792,-2.9792,-2.9792,-3.0131,-3.0244,-2.9842,-3.0143,-3.0231,-2.9829,-2.9792,-2.9792,-2.9792,-2.9792,-2.9792,-2.9792,-2.9792,-2.9792,-2.9792,-2.9792,-2.9792,-2.9792,-2.9792,-2.9792,-2.9792,-2.9792,-2.9993,-3.0407,-3.0614,-3.1059,0.0,0.0,0.0,-3.119,0.0,0.0,0.0,0.0,-2.8976,0.0,0.0,0.0,0.0,0.0,0.0,0.0,0.0,0.0,0.0,0.0,0.0,0.0,0.0,0.0,0.0,0.0,0.0,-2.5297,-2.5851,-2.6067,-2.564,-2.6267,-2.6965,-2.761,-2.7625,-2.765,-2.766,-2.765,-2.7625,-2.764,-2.8948,-2.9592,-2.9651,-3.0883,-3.1481,-3.1511,-3.1511,-3.1511,-3.1511,-3.1525,-3.1929,-3.2617,-3.3275,-3.3918,-3.4623,-3.525,-3.5504,-3.5504,-3.5504,-3.5504,-3.5504,-3.5504,-3.5504,-3.5504,-3.5504,-3.5504,-3.5504,-3.5504,-3.5504,-3.5504,-3.5504,-3.4758,-3.4061,-3.4061,-3.3345,-3.2393,-3.1499,-3.1267,-3.0996,-3.0037,-2.9843,-2.9843,-2.9792,-2.9792,-2.9792,-2.9792,-2.9804,-2.9817,-2.9792,-2.9817,-2.9817,-2.9792,-2.9792,-2.9792,-2.9792,-2.9792,-2.9792,-2.9792,-2.9792,-2.9792,-2.9792,-2.9792,-2.9792,-2.9792,-2.9792,-2.9792,-2.9792,-2.9792,-2.9804,-2.979,-2.9258,-2.9493,0.0,0.0,-3.119,-3.119,0.0,0.0,0.0,0.0,0.0,0.0,0.0,0.0,0.0,0.0,0.0,0.0,0.0,0.0,0.0,0.0,0.0,0.0,0.0,0.0,0.0,0.0,0.0,-2.4752,-2.529,-2.5444,-2.4964,-2.5989,-2.6692,-2.6941,-2.736,-2.76,-2.76,-2.76,-2.76,-2.76,-2.8502,-2.916,-2.9636,-3.0462,-3.1077,-3.1511,-3.1511,-3.1511,-3.1511,-3.1511,-3.1899,-3.2587,-3.3245,-3.3903,-3.4593,-3.525,-3.5504,-3.5504,-3.5504,-3.5504,-3.5504,-3.5504,-3.5504,-3.5504,-3.5504,-3.5504,-3.5504,-3.5504,-3.5504,-3.5359,-3.4691,-3.4245,-3.3842,-3.3206,-3.2357,-3.1609,-3.1278,-3.0733,-3.0177,-2.9856,-2.9792,-2.9792,-2.9792,-2.9792,-2.9792,-2.9792,-2.9792,-2.9792,-2.9792,-2.9792,-2.9792,-2.9792,-2.9792,-2.9792,-2.9792,-2.9792,-2.9792,-2.9792,-2.9792,-2.9792,-2.9792,-2.9792,-2.9792,-2.9792,-2.9792,-2.9792,-2.9792,-2.9792,-2.9792,-2.9753,-2.8096,-2.8068,-3.119,-3.119,0.0,-3.119,-3.119,0.0,-3.119,0.0,0.0,0.0,0.0,0.0,0.0,0.0,0.0,0.0,0.0,0.0,0.0,0.0,0.0,0.0,0.0,0.0,0.0,0.0,-2.5559,-2.4491,-2.4787,-2.4918,0.0,0.0,-2.6348,-2.6572,-2.7255,-2.76,-2.76,-2.76,-2.76,-2.76,-2.8502,-2.9175,-2.9636,-3.0477,-3.1077,-3.1511,-3.1511,-3.1511,-3.1525,-3.1765,-3.2108,-3.2602,-3.3499,-3.4098,-3.4593,-3.525,-3.5504,-3.5504,-3.5504,-3.5504,-3.5504,-3.5504,-3.5504,-3.5504,-3.5504,-3.5504,-3.5504,-3.5504,-3.5246,-3.4806,-3.4177,-3.3484,-3.2855,-3.2249,-3.1402,-3.0696,-3.0696,-3.0241,-2.9792,-2.9792,-2.9792,-2.9792,-2.9792,-2.9792,-2.9792,-2.9792,-2.9792,-2.9792,-2.9792,-2.9792,-2.9792,-2.9792,-2.9792,-2.9792,-2.9792,-2.9792,-2.9792,-2.9792,-2.9792,-2.9792,-2.9792,-2.9792,-3.0068,-3.0645,-3.008,-3.008,-3.0645,-2.9677,-2.9197,-2.9157,-2.6924,-2.6451]},{"header":{"parameterUnit":"m.s-1","parameterCategory":1,"la1":30.6,"la2":29.2853,"lo1":-89.7004,"lo2":-87.6739,"dy":0.0162,"dx":0.0183,"nx":112,"ny":82,"refTime":"2023-03-06T06:00:00:Z","depth":0,"parameterNumber":3,"parameterNumberName":"V-component_of_WINDS"},"data":[0.0,0.0,0.0,0.0,0.0,0.0,0.0,0.0,0.0,0.0,0.0,0.0,0.0,0.0,0.0,0.0,0.0,0.0,0.0,0.0,0.0,0.0,0.0,0.0,0.0,0.0,0.0,0.0,0.0,0.0,0.0,0.0,0.0,0.0,0.0,0.0,0.0,0.0,0.0,0.0,0.0,0.0,0.0,0.0,0.0,0.0,0.0,0.0,0.0,0.0,0.0,0.0,0.0,0.0,0.0,0.0,0.0,0.0,0.0,0.0,0.0,0.0,0.0,0.0,0.0,0.0,0.0,0.0,0.0,0.0,0.0,0.0,0.0,0.0,0.0,0.0,0.0,0.0,0.0,0.0,0.0,0.0,0.0,0.0,0.0,0.0,0.0,0.0,0.0,0.0,2.3251,2.5008,2.6452,2.7318,2.7406,2.6226,2.4845,2.3333,0.0,0.0,0.0,0.0,0.0,0.0,0.0,0.0,0.0,0.0,0.0,0.0,0.0,0.0,0.0,0.0,0.0,0.0,0.0,0.0,0.0,0.0,0.0,0.0,0.0,0.0,0.0,0.0,0.0,0.0,0.0,0.0,0.0,0.0,0.0,0.0,0.0,0.0,0.0,0.0,0.0,0.0,0.0,0.0,0.0,0.0,0.0,0.0,0.0,0.0,0.0,0.0,0.0,0.0,0.0,0.0,0.0,0.0,0.0,0.0,0.0,0.0,0.0,0.0,0.0,0.0,0.0,0.0,0.0,0.0,0.0,0.0,0.0,0.0,0.0,0.0,0.0,0.0,0.0,0.0,0.0,0.0,0.0,0.0,0.0,0.0,0.0,0.0,0.0,0.0,0.0,0.0,0.0,0.0,0.0,0.0,0.0,0.0,0.0,0.0,0.0,0.0,0.0,0.0,2.4556,2.6678,2.7165,2.7469,2.7946,2.6113,2.4632,2.3916,0.0,0.0,0.0,0.0,0.0,0.0,0.0,0.0,0.0,0.0,0.0,0.0,0.0,0.0,0.0,0.0,0.0,0.0,0.0,0.0,0.0,0.0,0.0,0.0,0.0,0.0,0.0,0.0,0.0,0.0,0.0,0.0,0.0,0.0,0.0,0.0,0.0,0.0,0.0,0.0,0.0,0.0,0.0,0.0,0.0,0.0,0.0,0.0,0.0,0.0,0.0,0.0,0.0,0.0,0.0,0.0,0.0,0.0,0.0,0.0,0.0,0.0,0.0,0.0,0.0,0.0,0.0,0.0,0.0,0.0,0.0,0.0,0.0,0.0,0.0,0.0,0.0,0.0,0.0,0.0,0.0,0.0,0.0,0.0,0.0,0.0,0.0,0.0,0.0,0.0,0.0,0.0,0.0,0.0,0.0,0.0,0.0,0.0,0.0,0.0,0.0,0.0,0.0,2.4456,2.5871,2.7178,2.7557,2.7708,2.7657,2.5912,2.4582,2.4029,2.3703,0.0,0.0,0.0,0.0,0.0,0.0,0.0,0.0,0.0,0.0,0.0,0.0,0.0,0.0,0.0,0.0,0.0,0.0,0.0,0.0,0.0,0.0,0.0,0.0,0.0,0.0,0.0,0.0,0.0,0.0,0.0,0.0,0.0,0.0,0.0,0.0,0.0,0.0,0.0,0.0,0.0,0.0,0.0,0.0,0.0,0.0,0.0,0.0,0.0,0.0,0.0,0.0,0.0,0.0,0.0,0.0,0.0,0.0,0.0,0.0,0.0,0.0,0.0,0.0,0.0,0.0,0.0,0.0,0.0,0.0,0.0,0.0,0.0,0.0,0.0,0.0,0.0,0.0,0.0,0.0,0.0,0.0,0.0,0.0,0.0,0.0,0.0,0.0,0.0,0.0,0.0,0.0,0.0,0.0,0.0,0.0,0.0,0.0,0.0,0.0,0.0,0.0,2.5745,2.6901,2.7419,2.7858,2.7821,2.7178,2.5699,2.4582,2.4029,2.3421,0.0,0.0,0.0,0.0,0.0,0.0,0.0,0.0,0.0,0.0,0.0,0.0,0.0,0.0,0.0,0.0,0.0,0.0,0.0,0.0,0.0,0.0,0.0,0.0,0.0,0.0,0.0,0.0,0.0,0.0,0.0,0.0,0.0,0.0,0.0,0.0,0.0,0.0,0.0,0.0,0.0,0.0,0.0,0.0,0.0,0.0,0.0,0.0,0.0,0.0,0.0,0.0,0.0,0.0,0.0,0.0,0.0,0.0,0.0,0.0,0.0,0.0,0.0,0.0,0.0,0.0,0.0,0.0,0.0,0.0,0.0,0.0,0.0,0.0,0.0,0.0,0.0,0.0,0.0,0.0,0.0,0.0,0.0,0.0,0.0,0.0,0.0,0.0,0.0,0.0,0.0,0.0,0.0,0.0,0.0,0.0,0.0,0.0,0.0,0.0,0.0,0.0,2.6537,2.7444,2.7996,2.8084,2.767,2.6637,2.5473,2.4582,2.4029,2.3421,0.0,0.0,0.0,0.0,0.0,0.0,0.0,0.0,0.0,0.0,0.0,0.0,0.0,0.0,0.0,0.0,0.0,0.0,0.0,0.0,0.0,0.0,0.0,0.0,0.0,0.0,0.0,0.0,0.0,0.0,0.0,0.0,0.0,0.0,0.0,0.0,0.0,0.0,0.0,0.0,0.0,0.0,0.0,0.0,0.0,0.0,0.0,0.0,0.0,0.0,0.0,0.0,0.0,0.0,0.0,0.0,0.0,0.0,0.0,0.0,0.0,0.0,0.0,0.0,0.0,0.0,0.0,0.0,0.0,0.0,0.0,0.0,0.0,0.0,0.0,0.0,0.0,0.0,0.0,0.0,0.0,0.0,0.0,0.0,0.0,0.0,0.0,0.0,0.0,0.0,0.0,0.0,0.0,0.0,0.0,0.0,0.0,0.0,0.0,0.0,0.0,0.0,2.6289,2.714,0.0,2.7795,2.7143,2.6013,2.5247,2.4399,2.3496,0.0,0.0,0.0,0.0,0.0,0.0,0.0,0.0,0.0,0.0,0.0,0.0,0.0,0.0,0.0,0.0,0.0,0.0,0.0,0.0,0.0,0.0,0.0,0.0,0.0,0.0,0.0,0.0,0.0,0.0,0.0,0.0,0.0,0.0,0.0,0.0,0.0,0.0,0.0,0.0,0.0,0.0,0.0,0.0,0.0,0.0,0.0,0.0,0.0,0.0,0.0,0.0,0.0,0.0,0.0,0.0,0.0,0.0,0.0,0.0,0.0,0.0,0.0,0.0,0.0,0.0,0.0,0.0,0.0,0.0,0.0,0.0,0.0,0.0,0.0,0.0,0.0,0.0,0.0,0.0,0.0,0.0,0.0,0.0,0.0,0.0,0.0,0.0,0.0,0.0,0.0,0.0,0.0,0.0,0.0,0.0,0.0,0.0,0.0,0.0,0.0,0.0,2.5498,2.6402,2.7241,0.0,2.7657,2.6942,2.5473,2.5172,2.4474,2.3183,0.0,0.0,0.0,0.0,0.0,0.0,0.0,0.0,0.0,0.0,0.0,0.0,0.0,0.0,0.0,0.0,0.0,0.0,0.0,0.0,0.0,0.0,0.0,0.0,0.0,0.0,0.0,0.0,0.0,0.0,0.0,0.0,0.0,0.0,0.0,0.0,0.0,0.0,0.0,0.0,0.0,0.0,0.0,0.0,0.0,0.0,0.0,0.0,0.0,0.0,0.0,0.0,0.0,0.0,0.0,0.0,0.0,0.0,0.0,0.0,0.0,0.0,0.0,0.0,0.0,0.0,0.0,0.0,0.0,0.0,0.0,0.0,0.0,0.0,0.0,0.0,0.0,0.0,0.0,0.0,0.0,0.0,0.0,0.0,0.0,0.0,0.0,0.0,0.0,0.0,0.0,0.0,0.0,0.0,0.0,0.0,0.0,0.0,0.0,0.0,0.0,0.0,2.5598,2.7055,2.7883,2.7379,2.777,2.7205,2.4988,2.531,2.4895,0.0,0.0,0.0,0.0,0.0,0.0,0.0,0.0,0.0,0.0,0.0,0.0,0.0,0.0,0.0,0.0,0.0,0.0,0.0,0.0,0.0,0.0,0.0,0.0,0.0,0.0,0.0,0.0,0.0,0.0,0.0,0.0,0.0,0.0,0.0,0.0,0.0,0.0,0.0,0.0,0.0,0.0,0.0,0.0,0.0,0.0,0.0,0.0,0.0,0.0,0.0,0.0,0.0,0.0,0.0,0.0,0.0,0.0,0.0,0.0,0.0,0.0,0.0,0.0,0.0,0.0,0.0,0.0,0.0,0.0,0.0,0.0,0.0,0.0,0.0,0.0,0.0,0.0,0.0,0.0,0.0,0.0,0.0,0.0,0.0,0.0,0.0,0.0,0.0,0.0,0.0,0.0,0.0,0.0,0.0,0.0,0.0,0.0,0.0,0.0,0.0,0.0,0.0,2.5598,2.6389,2.7065,2.7291,2.7115,2.6549,2.546,2.5511,2.5071,2.3816,0.0,0.0,0.0,0.0,0.0,0.0,0.0,0.0,0.0,0.0,0.0,0.0,0.0,0.0,0.0,0.0,0.0,0.0,0.0,0.0,0.0,0.0,0.0,0.0,0.0,0.0,0.0,0.0,0.0,0.0,0.0,0.0,0.0,0.0,0.0,0.0,0.0,0.0,0.0,0.0,0.0,0.0,0.0,0.0,0.0,0.0,0.0,0.0,0.0,0.0,0.0,0.0,0.0,0.0,0.0,0.0,0.0,0.0,0.0,0.0,0.0,0.0,0.0,0.0,0.0,0.0,0.0,0.0,0.0,0.0,0.0,0.0,0.0,0.0,0.0,0.0,0.0,0.0,0.0,0.0,0.0,0.0,0.0,0.0,0.0,0.0,0.0,0.0,0.0,0.0,0.0,0.0,0.0,0.0,0.0,0.0,0.0,0.0,0.0,0.0,0.0,0.0,2.5624,2.6323,2.6864,2.6977,2.6889,2.6499,2.5661,2.5812,2.5485,2.4393,0.0,0.0,0.0,0.0,0.0,0.0,0.0,0.0,0.0,0.0,0.0,0.0,0.0,0.0,0.0,0.0,0.0,0.0,0.0,0.0,0.0,0.0,0.0,0.0,0.0,0.0,0.0,0.0,0.0,0.0,0.0,0.0,0.0,0.0,0.0,0.0,0.0,0.0,0.0,0.0,0.0,0.0,0.0,0.0,0.0,0.0,0.0,0.0,0.0,0.0,0.0,0.0,0.0,0.0,0.0,0.0,0.0,0.0,0.0,0.0,0.0,0.0,0.0,0.0,0.0,0.0,0.0,0.0,0.0,0.0,0.0,0.0,0.0,0.0,0.0,0.0,0.0,0.0,0.0,0.0,0.0,0.0,0.0,0.0,0.0,0.0,0.0,0.0,0.0,0.0,0.0,0.0,0.0,0.0,0.0,0.0,0.0,0.0,0.0,0.0,0.0,0.0,2.5737,2.6615,2.714,2.67,2.7052,2.6866,2.5837,2.6223,2.6047,2.4926,0.0,0.0,0.0,0.0,0.0,0.0,0.0,0.0,0.0,0.0,0.0,0.0,0.0,0.0,0.0,0.0,0.0,0.0,0.0,0.0,0.0,0.0,0.0,0.0,0.0,0.0,0.0,0.0,0.0,0.0,0.0,0.0,0.0,0.0,0.0,0.0,0.0,0.0,0.0,0.0,0.0,0.0,0.0,0.0,0.0,0.0,0.0,0.0,0.0,0.0,0.0,0.0,0.0,0.0,0.0,0.0,0.0,0.0,0.0,0.0,2.0233,0.0,0.0,0.0,0.0,0.0,0.0,0.0,0.0,0.0,0.0,0.0,0.0,0.0,0.0,0.0,0.0,0.0,0.0,0.0,0.0,0.0,0.0,0.0,0.0,0.0,0.0,0.0,0.0,0.0,0.0,0.0,0.0,0.0,0.0,0.0,0.0,0.0,0.0,0.0,0.0,0.0,2.6323,2.6901,2.7406,2.772,2.7469,2.718,2.6942,2.6675,2.6197,2.5473,2.5996,0.0,0.0,0.0,0.0,0.0,0.0,0.0,0.0,0.0,0.0,0.0,0.0,0.0,0.0,0.0,0.0,0.0,0.0,0.0,0.0,0.0,0.0,0.0,0.0,0.0,0.0,0.0,0.0,0.0,0.0,0.0,0.0,0.0,0.0,0.0,0.0,0.0,0.0,0.0,0.0,0.0,0.0,0.0,0.0,0.0,0.0,0.0,0.0,0.0,0.0,0.0,0.0,0.0,0.0,0.0,0.0,0.0,0.0,0.0,0.0,2.0605,0.0,0.0,0.0,0.0,0.0,0.0,0.0,0.0,0.0,0.0,0.0,0.0,0.0,0.0,0.0,0.0,0.0,0.0,0.0,0.0,0.0,0.0,0.0,0.0,0.0,0.0,0.0,0.0,0.0,0.0,0.0,0.0,0.0,0.0,0.0,0.0,0.0,0.0,0.0,0.0,2.6851,2.714,2.7394,2.7682,2.7457,2.7216,2.6952,2.6663,2.6361,2.6059,2.6336,0.0,0.0,0.0,0.0,0.0,0.0,0.0,0.0,0.0,0.0,0.0,0.0,0.0,0.0,0.0,0.0,0.0,0.0,0.0,0.0,0.0,0.0,0.0,0.0,0.0,0.0,0.0,0.0,0.0,0.0,0.0,0.0,0.0,0.0,0.0,0.0,0.0,0.0,0.0,0.0,0.0,0.0,0.0,0.0,0.0,0.0,0.0,0.0,0.0,0.0,0.0,0.0,0.0,2.1307,2.1533,2.1885,2.1885,2.1885,2.1846,2.1153,2.0791,2.0684,2.0684,0.0,0.0,0.0,0.0,0.0,0.0,0.0,0.0,0.0,0.0,0.0,0.0,0.0,0.0,0.0,0.0,0.0,0.0,0.0,0.0,0.0,0.0,0.0,0.0,2.9076,2.895,2.8499,0.0,0.0,0.0,0.0,0.0,0.0,0.0,0.0,0.0,0.0,0.0,2.7379,2.7419,2.7542,2.7695,2.7544,2.7278,2.6826,2.66,2.6499,2.6499,2.6499,2.6285,0.0,0.0,0.0,0.0,0.0,0.0,0.0,0.0,0.0,0.0,0.0,0.0,0.0,0.0,0.0,0.0,0.0,0.0,0.0,0.0,0.0,0.0,0.0,0.0,0.0,0.0,0.0,0.0,0.0,0.0,0.0,0.0,2.0058,1.7771,0.0,0.0,0.0,0.0,0.0,0.0,0.0,0.0,0.0,0.0,0.0,0.0,0.0,1.9235,1.9575,2.0869,2.1615,2.1797,2.1797,2.1836,2.1885,2.1885,2.1885,2.1875,2.1768,0.0,2.1103,2.1103,0.0,0.0,0.0,0.0,0.0,0.0,0.0,0.0,0.0,0.0,0.0,0.0,0.0,0.0,0.0,0.0,0.0,0.0,0.0,0.0,0.0,0.0,2.8925,2.9541,2.9679,2.9654,0.0,2.88,2.8084,2.8009,2.7607,0.0,0.0,0.0,0.0,0.0,0.0,0.0,2.7871,2.7996,2.8373,2.9352,2.8586,2.7971,2.7896,2.7052,2.6499,2.6499,2.6499,2.6461,2.6386,2.6914,0.0,0.0,0.0,0.0,0.0,0.0,0.0,0.0,0.0,0.0,0.0,0.0,0.0,0.0,0.0,0.0,0.0,0.0,0.0,0.0,0.0,0.0,0.0,0.0,0.0,0.0,0.0,0.0,0.0,2.0042,1.938,1.6895,1.7422,1.7009,0.0,0.0,0.0,0.0,0.0,0.0,0.0,0.0,0.0,1.8887,1.9603,2.0251,2.0907,2.1803,2.2363,2.265,2.2598,2.2715,2.2949,2.2705,2.2588,2.2588,2.2588,2.2353,2.1873,2.1395,2.1123,2.0918,0.0,0.0,0.0,0.0,2.2302,2.3161,2.4987,2.5871,2.6404,2.7356,0.0,0.0,0.0,0.0,0.0,0.0,0.0,0.0,0.0,0.0,2.9038,2.9654,2.9792,2.9792,2.9792,2.9402,2.8963,0.0,2.8373,2.8009,2.7394,0.0,0.0,0.0,0.0,2.7241,2.8009,2.8373,2.8725,2.9252,2.8863,2.8323,2.7695,2.7241,2.6826,2.6512,2.6499,2.6637,2.6952,2.719,2.7318,0.0,0.0,0.0,0.0,0.0,0.0,0.0,0.0,0.0,0.0,0.0,0.0,0.0,0.0,0.0,0.0,0.0,0.0,0.0,0.0,0.0,0.0,0.0,0.0,0.0,0.0,0.0,0.0,1.9512,1.9082,1.6152,1.7203,1.7207,0.0,0.0,0.0,0.0,0.0,0.0,1.8185,1.8153,1.8946,2.0739,2.0893,2.1358,2.2217,2.2734,2.3164,2.3531,2.3467,2.3633,2.3935,2.3613,2.3364,2.3257,2.3257,2.3023,2.2617,2.1824,2.1453,2.1367,2.1035,2.0938,2.1056,2.2225,2.2885,2.3534,2.5658,2.6564,2.692,2.7692,2.8109,2.821,2.7657,0.0,0.0,0.0,0.0,2.8411,2.8787,2.9001,2.9252,2.9691,2.9792,2.9792,2.9792,2.9792,2.9666,0.0,2.9001,2.8662,2.7846,0.0,0.0,0.0,0.0,2.7695,2.8247,2.8637,2.895,2.9101,2.8976,2.8499,2.757,2.7369,2.7077,2.6524,2.6625,2.6889,2.7268,2.7557,2.7833,2.8097,0.0,0.0,0.0,0.0,0.0,0.0,0.0,0.0,0.0,0.0,0.0,0.0,0.0,0.0,0.0,0.0,0.0,0.0,0.0,0.0,0.0,0.0,0.0,0.0,0.0,0.0,0.0,0.0,0.0,1.653,1.7563,0.0,0.0,0.0,0.0,1.5989,1.5441,1.6225,1.8886,1.8624,1.96,2.2291,2.2732,2.2989,2.3139,2.3916,2.4336,2.4355,2.4355,2.4365,2.4385,2.4365,2.4141,2.375,2.375,2.3516,2.3033,2.2627,2.2217,2.1846,2.1826,2.1816,2.1858,2.1918,2.2899,2.4288,2.5447,2.6482,2.7514,2.9158,2.9315,2.875,2.8235,2.8084,0.0,0.0,2.8461,2.8863,2.8888,2.934,2.9754,2.9779,2.9792,2.9792,2.9792,2.9792,2.9779,0.0,2.9302,2.8875,2.8813,0.0,2.8059,2.8021,2.8047,2.826,2.8775,2.8875,2.9139,2.9691,2.9252,2.865,2.8109,2.7582,2.7077,2.6524,2.6989,2.7291,2.7281,2.8285,2.8574,2.8109,2.8587,0.0,0.0,0.0,0.0,0.0,0.0,0.0,0.0,0.0,0.0,0.0,0.0,0.0,0.0,0.0,0.0,0.0,0.0,0.0,0.0,0.0,0.0,0.0,0.0,0.0,0.0,0.0,0.0,1.6878,1.7687,0.0,1.6684,1.5665,1.5514,1.6595,1.6641,1.746,1.9399,1.9338,2.0215,2.2382,2.2575,2.3071,2.3965,2.4551,2.4834,2.4834,2.4834,2.4834,2.4824,2.4551,2.4336,2.4199,2.4199,2.3955,2.3545,2.3398,2.292,2.2266,2.1992,2.1885,2.2038,2.3021,2.4143,2.5415,2.6806,2.7992,2.9015,2.96,2.9402,2.885,2.8662,2.89,2.9114,2.8737,2.9051,2.9478,2.9478,2.9641,2.9792,2.9792,2.9792,2.9792,2.9792,2.9792,2.9792,2.9792,2.9628,2.9365,2.895,2.8725,2.8511,2.816,2.8411,2.8662,2.8863,2.9252,2.9566,2.9767,2.9616,2.9252,2.865,2.8448,2.8109,2.7557,2.7708,2.7971,2.8335,2.8687,2.8976,2.9189,2.9377,2.939,0.0,0.0,0.0,0.0,0.0,0.0,0.0,0.0,0.0,0.0,0.0,0.0,0.0,0.0,0.0,0.0,0.0,0.0,0.0,0.0,0.0,0.0,0.0,0.0,0.0,0.0,1.9862,1.7866,1.8855,1.9184,1.7859,1.6907,1.6689,1.7382,1.773,1.8655,2.0312,2.0584,2.1478,2.3278,2.3287,2.3721,2.4639,2.5078,2.5293,2.5293,2.5293,2.5293,2.5283,2.499,2.4775,2.4639,2.4639,2.4394,2.4004,2.4004,2.3672,2.3105,2.2529,2.2305,2.2428,2.3468,2.4273,2.5166,2.6961,2.853,2.9792,2.9792,2.9528,2.9176,2.9176,2.949,2.9716,2.9327,2.9503,2.9792,2.9792,2.9792,2.9792,2.9792,2.9792,2.9792,2.9792,2.9792,2.9792,2.9792,2.9792,2.9666,2.9289,2.9176,2.9101,2.8725,2.8988,2.9176,2.9176,2.9553,2.9792,2.9792,2.9792,2.9566,2.8938,2.8888,2.865,2.8134,2.8285,2.8512,2.8875,2.9076,2.9402,2.9779,2.9792,2.9792,2.9792,0.0,0.0,0.0,0.0,0.0,0.0,0.0,0.0,0.0,0.0,0.0,0.0,0.0,0.0,0.0,0.0,0.0,0.0,0.0,0.0,0.0,0.0,0.0,1.8355,2.0631,2.1759,1.9603,2.1039,2.1504,1.9733,1.8824,1.8357,1.8333,1.861,1.9625,2.1541,2.2148,2.322,2.4945,2.4993,2.504,2.5135,2.5518,2.5693,2.5693,2.5693,2.5693,2.5693,2.5693,2.5498,2.5135,2.5135,2.4844,2.4434,2.4434,2.4424,2.429,2.3442,2.312,2.314,2.312,2.3154,2.3527,2.5777,2.7971,2.9792,2.9792,2.9792,2.9792,2.9792,2.9792,2.9792,2.9792,2.9792,2.9792,2.9792,2.9792,2.9792,2.9792,2.9792,2.9792,2.9792,2.9804,2.9817,2.9817,2.9829,2.9829,2.9804,2.9792,2.9792,2.9792,2.9792,0.0,2.9792,2.9792,2.9792,2.9792,2.9792,2.9566,2.8963,2.8913,2.8725,2.8197,2.8624,2.8913,2.8913,2.949,2.9792,2.9792,2.9792,2.9792,2.9792,0.0,0.0,0.0,0.0,0.0,0.0,0.0,0.0,0.0,0.0,0.0,0.0,0.0,0.0,0.0,0.0,0.0,0.0,0.0,0.0,0.0,0.0,2.0275,1.9107,2.1542,2.2734,2.0875,2.1364,2.1617,2.1163,2.0288,1.9775,1.9762,1.9986,2.0408,2.0955,1.9896,2.0377,2.2834,2.2759,2.357,2.5508,2.5625,2.5693,2.5693,2.5693,2.5693,2.5693,2.5693,2.5625,2.5557,2.5557,2.5303,2.4893,2.4893,2.4697,2.4365,2.3818,2.3799,2.4033,2.3721,2.4625,2.6182,2.7272,2.8609,2.9792,2.9792,2.9792,2.9792,2.9792,2.9792,2.9792,2.9792,2.9792,2.9792,2.9792,2.9792,2.9792,2.9792,2.9792,2.9792,2.9792,3.0105,3.0394,3.0394,3.0696,3.0696,2.993,2.9792,2.9792,2.9792,2.9792,0.0,2.9792,2.9792,2.9792,2.9792,2.9792,2.9729,2.9566,2.9553,2.949,2.934,2.9465,2.9553,2.9553,2.9704,2.9792,2.9792,2.9792,2.9792,0.0,0.0,0.0,0.0,0.0,0.0,0.0,0.0,0.0,0.0,0.0,0.0,0.0,0.0,0.0,0.0,0.0,0.0,0.0,0.0,0.0,0.0,2.1798,2.0984,2.052,2.2182,2.3183,2.2477,2.3322,2.3458,2.226,2.163,2.1124,2.0679,2.0631,2.0938,2.1721,2.1009,2.1587,2.3828,2.3749,2.4321,2.5693,2.5918,2.5869,2.5693,2.5693,2.5693,2.5693,2.5693,2.5693,2.5693,2.5693,2.5586,2.5352,2.5352,2.5195,0.0,0.0,0.0,0.0,0.0,2.461,2.6253,2.7138,2.8148,2.9157,2.9624,2.9792,2.9792,2.9792,2.9792,2.9792,2.9792,2.9792,2.9792,2.9792,2.9792,2.9792,2.9792,2.9792,2.9854,3.0093,3.0394,3.062,3.062,3.1035,0.0,2.998,2.998,3.0055,2.9829,2.9792,2.9792,2.9792,2.9792,2.9792,2.9792,2.9792,2.9792,2.9792,2.9792,0.0,0.0,0.0,2.9792,2.9792,2.9792,0.0,0.0,0.0,2.9792,2.9792,0.0,0.0,0.0,3.2582,3.3265,0.0,0.0,0.0,0.0,0.0,0.0,0.0,0.0,0.0,0.0,0.0,0.0,0.0,0.0,0.0,0.0,2.2815,2.2184,2.2663,2.2889,2.3263,2.3957,2.5404,2.5436,2.3078,2.265,2.2241,2.1448,2.1095,2.1659,2.3444,0.0,0.0,0.0,0.0,2.6091,2.5762,2.6191,2.6172,2.5693,2.5693,2.5693,2.5693,2.5693,2.5693,2.5693,2.5693,2.5693,2.5693,2.5693,2.5693,2.5606,2.4873,2.4307,2.3887,2.3403,2.3995,2.5062,2.6008,0.0,0.0,2.9165,2.9582,2.9672,2.9672,2.9752,2.9792,2.9792,2.9792,2.9804,2.9867,2.9842,2.9829,2.9942,2.993,3.003,3.0583,3.0758,3.0796,3.0796,3.1223,3.1235,3.0168,3.0331,3.0432,2.988,2.9792,2.9792,2.9792,2.9792,2.9792,2.9792,0.0,0.0,2.9792,2.9792,2.9792,2.9792,2.9792,2.9792,2.9792,2.9792,2.9792,2.9792,2.9792,2.9792,2.9792,3.062,3.1106,3.1217,3.2177,3.2593,0.0,0.0,0.0,0.0,0.0,0.0,0.0,0.0,0.0,0.0,0.0,0.0,0.0,0.0,0.0,2.4134,2.305,2.3134,2.6191,2.473,2.335,2.3493,2.3009,2.2887,2.3505,2.2505,2.2201,2.3206,2.3213,2.3861,2.5429,2.4287,2.4153,2.555,2.5396,2.5577,2.6269,2.6348,2.6172,2.5693,0.0,0.0,2.5693,2.5693,2.5693,2.5693,2.5693,2.5693,2.5693,2.5693,2.5693,2.5674,2.5499,2.5205,2.4766,2.4336,2.4877,2.5782,2.5306,2.609,2.7337,2.7558,2.8233,2.8994,2.8994,2.9371,0.0,2.9792,2.9792,2.9892,3.0344,3.0131,3.0018,3.0871,3.0758,3.0608,3.1122,3.1587,3.1901,3.1901,3.2365,3.239,3.1273,3.0821,3.0432,2.988,2.9792,2.9792,2.9792,2.9792,2.9792,2.9792,2.9792,2.9792,2.9792,2.9792,2.9792,2.9792,2.9792,2.9792,2.9792,2.9792,2.9792,2.9792,2.9792,2.9792,2.9792,2.996,3.0444,3.1217,3.2177,3.2593,0.0,0.0,0.0,0.0,0.0,0.0,0.0,0.0,0.0,0.0,0.0,2.1794,0.0,0.0,2.3505,2.4422,2.4077,2.4167,2.5541,2.4499,2.3613,2.3613,2.4378,2.4654,2.3877,2.3813,2.4147,2.4875,2.4267,2.4488,2.6045,2.501,2.5076,2.6495,2.6206,2.6222,2.6709,2.6494,2.6387,2.6327,2.6162,2.6172,2.6317,2.6162,2.6064,2.6055,2.5781,2.5693,2.5693,2.5693,2.5693,2.5693,2.5693,2.5459,2.5057,2.458,2.4772,2.5209,2.5134,2.5752,2.6748,2.769,2.8374,2.8921,2.9529,2.9945,3.0143,2.9867,2.9993,3.0269,3.0545,3.0206,3.0068,3.1135,3.0997,3.0834,3.1637,3.2014,3.2215,3.2215,3.2679,3.2759,3.1587,3.1399,3.1047,2.9955,2.9792,2.9792,2.9792,2.9792,2.9792,2.9792,2.9792,2.9792,2.9792,2.9792,2.9792,2.9792,2.9792,2.9792,2.9792,2.9792,2.9792,2.9792,2.9792,2.9792,2.9792,2.9792,3.0037,3.052,3.0983,3.1439,0.0,0.0,0.0,0.0,0.0,0.0,0.0,0.0,2.074,1.9576,2.1007,2.2419,2.2117,2.2603,2.3434,2.4605,2.4885,2.4774,2.4293,2.4267,2.4267,2.4267,2.5891,2.6164,2.3989,2.4931,2.5763,2.61,2.4931,2.4931,2.6436,2.6178,2.6555,2.7783,2.7451,2.7226,2.7148,2.6719,2.6641,2.6894,2.6465,2.6435,2.6758,2.6416,2.626,2.624,2.584,2.5693,2.5693,2.5693,2.5693,2.5693,2.5693,2.5518,2.5146,2.4707,2.4541,2.4611,2.506,2.5506,2.6177,2.7946,2.8624,2.8982,3.0196,3.0633,3.067,3.0231,3.0419,3.0783,3.0896,3.052,3.0369,3.1461,3.1311,3.1198,3.2164,3.2378,3.2378,3.2378,3.2754,3.2754,3.1725,3.1913,3.1725,3.0319,3.0105,3.0068,2.9967,2.9955,2.9917,2.9804,2.9792,2.9792,2.9792,2.9792,2.9792,2.9792,2.9792,2.9792,2.9792,2.9792,2.9792,2.9792,2.9792,2.9792,2.9792,2.996,3.0075,3.0075,3.0394,3.0725,1.7318,1.7326,1.7711,1.9186,1.9512,1.9702,0.0,0.0,2.0288,1.9339,2.0873,2.2386,2.2382,2.3579,2.4605,2.4785,2.4315,2.4395,2.5645,2.5818,2.5818,2.5818,2.3758,2.2758,2.371,2.3933,2.4599,2.5991,2.5936,2.649,2.795,2.8019,2.8053,2.8223,2.8174,2.7969,2.765,2.7168,2.6787,2.6455,2.6016,2.5791,2.583,2.5781,2.5762,2.5762,2.5713,2.5693,2.5693,2.5693,2.5693,2.5693,2.5693,2.5664,2.5557,2.5156,2.5047,2.4979,2.4631,2.4815,2.5441,2.6704,2.7796,2.8865,3.0056,3.0819,3.1286,3.1235,3.1248,3.1424,3.1901,3.1625,3.1499,3.2616,3.2453,3.2202,3.2842,3.298,3.298,3.298,3.3031,3.2867,3.2227,3.2177,3.1989,3.1311,3.121,3.1047,3.0583,3.052,3.0331,2.9842,2.9792,2.9792,2.9792,2.9792,2.9792,2.9792,2.9792,2.9792,2.9792,2.9792,2.9792,2.9792,2.9792,2.9792,2.9792,3.062,3.1044,3.1095,3.2502,3.2286,1.5716,1.5665,0.0,0.0,1.7989,1.836,1.9463,2.0007,2.0268,1.9997,2.1798,2.3255,2.2772,2.4034,2.4952,0.0,2.4922,2.5643,2.6018,2.61,2.5928,2.5414,2.422,2.3896,2.5052,2.5945,2.6672,2.733,2.7394,2.7672,2.8291,2.8291,2.8291,2.8291,2.8057,2.7959,2.8027,2.7353,2.7178,2.749,2.706,2.6992,2.7217,2.6973,2.6592,2.6103,2.5801,2.5693,2.5693,2.5693,2.5693,2.5664,2.5449,2.5508,2.5664,2.5527,2.5459,2.54,2.4951,2.5088,2.5602,2.6563,2.7653,2.8857,3.0035,3.1089,3.18,3.1486,3.1625,3.1926,3.2152,3.18,3.1675,3.2847,3.2641,3.2365,3.2955,3.3124,3.3124,3.3124,3.3124,3.3006,3.2754,3.2717,3.2641,3.2403,3.1813,3.1311,3.1097,3.1072,3.0859,3.0331,3.0269,3.0143,2.9817,2.9792,2.9792,2.9792,2.9792,2.9792,2.9792,2.9792,2.9792,2.9792,2.9792,2.9792,2.9792,3.0496,3.083,3.0881,3.1876,3.2345,1.4462,0.0,0.0,1.6698,1.747,1.8118,1.9082,1.973,2.0093,1.9943,2.1623,2.2968,2.2303,2.3263,2.4002,2.3726,2.4509,2.5249,2.5461,2.563,2.5504,2.4884,2.4942,2.5347,2.61,2.7366,2.8125,2.8125,2.8232,2.8291,2.8291,2.8291,2.8291,2.8291,2.7998,2.7988,2.8291,2.7559,2.751,2.8115,2.7695,2.7646,2.793,2.7627,2.708,2.6367,2.6055,2.5801,2.5693,2.5693,2.5693,2.5654,2.5381,2.5449,2.5693,2.5693,2.5693,2.5645,2.5361,2.5469,2.5868,2.678,2.7893,2.9049,3.0258,3.1467,3.2365,3.1964,3.2139,3.2453,3.2453,3.2152,3.2064,3.288,3.2754,3.2566,3.2993,3.3124,3.3124,3.3124,3.3124,3.3124,3.3124,3.3124,3.3124,3.3124,3.242,3.18,3.1637,3.1486,3.1248,3.0871,3.0708,3.0457,3.0055,2.988,2.9792,2.9792,2.993,3.0018,3.0018,3.0018,3.0018,3.0018,2.9867,2.9867,3.0018,3.067,3.1042,3.1207,3.2103,3.3104,0.0,0.0,1.6766,1.7784,1.9079,2.0076,1.9934,1.991,1.9561,1.8313,1.9513,2.071,2.0454,2.0612,2.1426,2.3135,2.2214,2.1888,2.3605,2.4407,2.4839,2.4821,2.5343,2.5849,0.0,2.7197,2.7738,2.7738,2.8066,2.8291,2.8291,2.8291,2.8291,2.8291,2.8281,2.8281,2.8291,2.7861,2.7708,2.7728,2.7246,2.7041,2.7051,2.7041,2.6797,2.6387,2.6377,2.6133,2.5693,2.5693,2.5693,2.5693,2.5674,2.5674,2.5693,2.5693,2.5693,2.5693,2.5674,2.5674,2.5917,2.7163,2.8391,2.9613,3.0831,3.2072,3.3056,3.3031,3.3074,3.3056,3.3056,3.3074,3.3074,3.3111,3.3111,3.3056,3.3124,3.3124,3.3124,3.3124,3.3124,3.3124,3.3124,3.3124,3.3124,3.3124,3.3056,3.2817,3.2252,3.1725,3.1386,3.1361,3.0922,3.0608,3.0595,3.0093,2.9792,2.9792,3.0294,3.0595,3.0595,3.0595,3.0595,3.0595,3.0068,3.0055,3.0595,3.15,3.2212,3.2778,3.4407,3.5212,0.0,0.0,1.685,1.7562,1.8281,1.8752,1.8917,1.8974,1.9075,1.9441,1.9827,2.0008,1.9736,1.9947,2.0377,2.1192,2.1484,2.2314,2.4568,2.5317,2.5487,2.5064,2.5681,0.0,0.0,0.0,0.0,2.7679,2.7855,2.7998,2.8281,2.8291,2.8291,2.8291,2.8291,2.8291,2.8291,2.8154,2.8086,2.8076,2.7646,2.7441,2.7432,2.6865,2.6523,2.6367,2.6084,2.583,2.5693,2.5693,2.5693,2.5664,2.541,2.5478,2.5654,2.54,2.5478,2.5693,2.5693,2.5693,2.5781,2.6197,2.7173,2.8402,2.9636,3.0855,3.2008,3.284,3.3124,3.3124,3.3124,3.3124,3.3124,3.3124,3.3124,3.3224,3.3545,3.3621,3.3734,3.4098,3.4173,3.406,3.3684,3.3621,3.3495,3.3131,3.3124,3.3048,3.2805,3.2629,3.2365,3.1976,3.1775,3.1524,3.116,3.0645,3.0482,3.0834,3.0708,3.0771,3.1122,3.0796,3.062,3.062,3.0432,3.0432,3.062,3.1622,3.2217,3.2408,3.3398,3.4564,0.0,1.6353,1.7161,1.7762,1.8136,1.8355,1.8604,1.8564,1.8638,1.9205,1.8977,1.8629,1.8367,1.8332,1.8679,1.9684,1.9916,2.1048,2.4065,2.4395,2.4405,2.469,2.545,2.5644,0.0,0.0,0.0,2.7373,2.7715,2.8008,2.8281,2.8291,2.8291,2.8291,2.8291,2.8291,2.8291,2.8291,2.8291,2.8291,2.7861,2.7718,2.7699,2.6934,2.6533,2.6367,2.6094,2.583,2.5693,2.5693,2.5693,2.5664,2.542,2.5478,2.5654,2.541,2.5488,2.5693,2.5693,2.5693,2.5693,2.5693,2.6572,2.7814,2.9039,3.0226,3.1456,3.2754,3.3124,3.3124,3.3124,3.3124,3.3124,3.3124,3.3275,3.347,3.3822,3.406,3.4299,3.4605,3.468,3.4613,3.4261,3.4035,3.3771,3.342,3.3206,3.3124,3.3124,3.3124,3.293,3.2554,3.234,3.2077,3.1712,3.1198,3.1035,3.1373,3.126,3.1336,3.1675,3.1361,3.1185,3.1185,3.0984,3.0984,3.1185,3.1876,3.2315,3.2528,3.3305,3.4374,1.6199,1.6994,1.7796,1.839,1.8731,1.8918,1.8905,1.8651,1.825,1.7642,1.7034,1.6526,0.0,0.0,1.647,1.8551,1.7676,1.8222,2.2356,2.189,2.1929,0.0,0.0,0.0,0.0,0.0,0.0,2.6982,0.0,2.8242,2.8291,2.8291,2.8291,2.8291,2.8291,2.8291,2.8291,2.8291,2.8291,2.8281,2.7894,2.7699,2.7699,2.7197,2.6768,2.6387,2.6387,2.6143,2.5693,2.5693,2.5693,2.5693,2.5693,2.5693,2.5693,2.5693,2.5693,2.5693,2.5693,2.5693,2.5693,2.5693,2.6524,2.7731,2.8993,3.0226,3.1412,3.2698,3.3124,3.3124,3.3124,3.3106,3.3162,3.3162,3.3533,3.3947,3.3972,3.4399,3.4731,3.4801,3.4776,3.4718,3.4718,3.4311,3.3935,3.3909,3.3458,3.3106,3.3124,3.3124,3.3124,3.3124,3.2591,3.2252,3.2252,3.175,3.1449,3.1474,3.1938,3.2227,3.2252,3.2227,3.2215,3.2215,3.17,3.1687,3.2215,3.224,3.2583,3.3197,3.4233,3.4746,1.7295,1.807,1.8671,1.9052,1.9032,1.8865,1.8651,1.8029,1.7373,1.6777,1.5965,1.5317,0.0,0.0,0.0,1.7105,1.752,0.0,2.2597,2.3083,0.0,2.5582,0.0,2.6797,2.6269,2.6797,0.0,0.0,2.7402,2.7617,2.8262,2.8291,2.8291,2.8291,2.8291,2.8291,2.8291,2.8291,2.8291,2.8281,2.7539,2.7353,2.7689,2.6894,2.6494,2.6387,2.6387,2.6143,2.5693,2.5693,2.5693,2.5693,2.5693,2.5693,2.5693,2.5693,2.5693,2.5693,2.5693,2.5693,2.5693,2.5693,2.5927,2.661,2.8762,2.9624,3.0316,3.2481,3.3124,3.3124,3.3124,3.3382,3.3696,3.3696,3.411,3.4625,3.4994,3.5194,3.5408,3.5868,3.5617,3.5295,3.5295,3.4831,3.4374,3.396,3.3771,3.3533,3.3174,3.3124,3.3124,3.3124,3.2943,3.2855,3.2855,3.2328,3.219,3.2616,3.2365,3.2403,3.283,3.2441,3.2215,3.2215,3.2077,3.2077,3.2215,3.2641,3.3373,3.4317,3.4594,3.5534,1.8043,1.8844,1.9479,1.9386,1.9239,1.8938,1.825,1.7502,1.6804,1.6032,1.5291,0.0,0.0,0.0,0.0,0.0,0.0,0.0,2.1501,2.2611,2.3817,0.0,2.6991,0.0,2.7002,2.7434,2.7796,0.0,2.7715,2.7783,2.8271,2.8291,2.8291,2.8291,2.8291,2.8291,2.8291,2.8291,2.8291,2.8281,2.7617,2.7432,2.7689,2.6777,2.6387,2.6377,0.0,2.5967,2.5693,2.5693,2.5693,2.5693,2.5693,2.5693,2.5693,2.5693,2.5693,2.5693,2.5693,2.5693,2.5693,2.5693,2.5693,2.6062,2.8038,2.8993,2.9818,3.1733,3.2655,3.3124,3.3124,3.3483,3.3897,3.3897,3.4512,3.5119,3.5433,3.5683,3.5994,3.6342,3.6119,3.5893,3.5893,3.5454,3.4931,3.4663,3.4211,3.3784,3.3483,3.3275,3.3124,3.3124,3.3124,3.3124,3.3124,3.278,3.2729,3.3056,3.2767,3.2742,3.3111,3.2767,3.2591,3.2591,3.2591,3.2591,3.2591,3.2918,3.3641,3.4705,3.517,3.6239,1.8691,1.9459,2.01,1.9559,1.9397,1.9008,1.7789,1.7007,1.6293,1.5451,0.0,1.4462,1.4462,1.4496,1.4736,1.5404,0.0,1.7291,2.0008,2.1565,2.3136,2.4951,2.6748,2.7692,2.7524,2.7639,2.79,2.8262,2.8291,2.8291,2.8291,2.8291,2.8291,2.8291,2.8291,2.8291,2.8291,2.8291,2.8291,2.8291,2.7861,2.7748,2.7777,2.6865,2.6475,2.6445,2.6016,2.5742,2.5693,2.5693,2.5693,2.5693,2.5693,2.5693,2.5693,2.5693,2.5693,2.5693,2.5693,2.5693,2.5693,2.5693,2.5693,2.5927,2.722,2.8319,2.9453,3.081,3.2008,3.2909,3.3113,3.3596,3.4022,3.4098,3.4901,3.5608,3.5608,3.6031,3.6405,3.6405,3.6405,3.6405,3.6405,3.5968,3.5583,3.5508,3.4726,3.4085,3.4022,3.3533,3.3156,3.3124,3.3144,3.3156,3.3124,3.3124,3.3124,3.3124,3.3124,3.3124,3.3124,3.3124,3.3124,3.3124,3.3124,3.3124,3.3124,3.3124,3.3713,3.4938,3.5774,3.6852,1.9733,2.0074,2.0147,1.9813,1.9178,1.839,1.7494,1.6442,0.0,0.0,0.0,1.4162,1.4162,1.4355,0.0,1.5945,0.0,0.0,0.0,0.0,2.3424,0.0,0.0,0.0,0.0,0.0,0.0,0.0,0.0,2.8291,2.8291,2.8291,2.8291,2.8291,2.8291,2.8291,2.8291,2.8291,2.8291,2.8291,2.7861,2.7851,2.8154,2.7295,2.6904,2.6885,2.6465,0.0,2.5693,2.5693,2.5693,2.5693,2.5693,2.5693,2.5693,2.5693,2.5693,2.5693,2.5693,2.5693,2.5693,2.5693,2.5693,2.5927,2.722,2.7767,2.8355,3.0586,3.1356,3.1874,3.3358,3.4161,3.4655,3.5107,3.5755,3.6267,3.6267,3.6342,3.6405,3.6405,3.6405,3.6405,3.6405,3.6329,3.6056,3.5571,3.5332,3.5044,3.4638,3.4098,3.3583,3.3174,3.3483,3.3571,3.3162,3.3124,3.3124,3.3124,3.3124,3.3124,3.3124,3.3124,3.3124,3.3124,3.3124,3.3124,3.3124,3.3124,3.4095,3.5934,3.6132,3.7252,1.9893,2.0341,2.0541,1.9947,1.9252,1.8404,1.7194,0.0,0.0,0.0,1.4182,1.4088,1.4088,0.0,0.0,0.0,0.0,0.0,0.0,0.0,0.0,0.0,0.0,0.0,0.0,0.0,0.0,0.0,0.0,2.8291,2.8291,2.8291,2.8291,2.8291,2.8291,2.8291,2.8291,2.8291,2.8291,2.8291,2.8086,2.8096,2.8262,2.7402,2.7012,2.6982,2.6328,2.5937,2.5693,2.5693,2.5693,2.5693,2.5693,2.5693,2.5693,2.5693,2.5693,2.5693,2.5693,2.5693,2.5693,2.5693,2.5693,2.583,2.6428,2.7078,2.8045,3.0079,3.1176,3.2085,3.3849,3.4693,3.5169,3.5433,3.5968,3.6405,3.6405,3.6405,3.6405,3.6405,3.6405,3.6405,3.6405,3.6405,3.6317,3.6006,3.5683,3.5408,3.5144,3.4868,3.455,3.3985,3.3909,3.3796,3.3533,3.3244,3.3124,3.3124,3.3124,3.3124,3.3124,3.3124,3.3124,3.3124,3.3124,3.3124,3.3124,3.3124,3.4178,3.6198,3.5668,3.6866,1.984,2.0394,2.0728,1.9907,1.9219,1.8364,1.6941,1.5932,0.0,0.0,1.4088,1.4088,1.4088,0.0,0.0,0.0,0.0,0.0,0.0,0.0,0.0,0.0,0.0,0.0,0.0,0.0,0.0,0.0,0.0,0.0,2.8291,2.8291,2.8291,2.8291,2.8291,2.8252,2.8164,2.8154,2.8154,2.8154,2.8154,2.8203,2.8262,2.7402,2.7012,2.6973,2.6064,2.5693,2.5693,2.5693,2.5693,2.5693,2.5693,2.5693,2.5693,2.5693,2.5693,2.5693,2.5693,2.5693,2.5693,2.5693,2.5693,2.5693,2.5693,2.638,2.7568,2.9504,3.0813,3.215,3.4202,3.5094,3.552,3.5646,3.6044,3.6405,3.6405,3.6405,3.6405,3.6405,3.6405,3.6405,3.6405,3.6405,3.6405,3.6405,3.5994,3.5671,3.5671,3.5671,3.5508,3.5115,3.4474,3.3985,3.3746,3.3319,3.3124,3.3124,3.3124,3.3124,3.3124,3.3124,3.3124,3.3124,3.3124,3.3124,3.3124,3.3313,3.4374,3.6212,3.5641,3.6802,1.9973,2.0193,2.0167,1.9559,1.8764,1.7756,1.6593,0.0,0.0,1.4215,1.4088,1.4088,1.4088,1.4108,1.4409,0.0,0.0,0.0,0.0,0.0,0.0,0.0,0.0,0.0,0.0,0.0,0.0,0.0,0.0,0.0,2.8291,2.8291,2.8291,2.8291,2.8291,2.8105,2.7777,2.7777,2.7777,2.7777,2.7777,2.792,2.8262,2.7402,2.7012,2.6973,2.6064,2.5693,0.0,2.5693,2.5693,2.5693,2.5693,2.5693,2.5693,2.5693,2.5693,2.5693,2.5693,2.5693,2.5693,2.5693,2.5693,2.5693,2.5693,2.5781,2.639,2.8771,2.9892,3.1054,3.3962,3.5094,3.5621,3.6169,3.6367,3.6405,3.6405,3.6405,3.6405,3.6405,3.6405,3.6405,3.6405,3.6405,3.6405,3.6405,3.6367,3.6329,3.6329,3.6329,3.6317,3.6267,3.5278,3.4248,3.3244,3.3106,3.3124,3.3124,3.3124,3.3124,3.3124,3.3124,3.3124,3.3124,3.3124,3.3124,3.3124,3.4066,3.5129,3.6237,3.7098,3.8196,1.9205,1.9826,2.0094,1.9512,1.8557,1.7502,1.65,0.0,0.0,1.4168,1.4088,1.4088,1.4088,1.4088,1.4255,0.0,0.0,0.0,0.0,0.0,0.0,0.0,0.0,0.0,0.0,0.0,0.0,0.0,0.0,0.0,2.8291,2.8291,2.8174,2.792,2.792,2.7705,2.7275,2.7275,2.7275,2.7275,2.7275,2.7363,2.75,2.6914,2.6641,2.6602,2.5947,2.5693,0.0,2.5693,2.5693,2.5693,2.5693,2.5693,2.5693,2.5693,2.5693,2.5693,2.5693,2.5693,2.5693,2.5693,2.5693,2.5693,2.5693,2.5693,2.6112,2.819,2.9694,3.1219,3.3478,3.508,3.6094,3.6355,3.6405,3.6405,3.6405,3.6405,3.6405,3.6405,3.6405,3.6405,3.6405,3.6405,3.6405,3.6405,3.6405,3.6405,3.6405,3.6405,3.6279,3.5906,3.5177,3.455,3.411,3.3458,3.3124,3.3124,3.3124,3.3124,3.3124,3.3713,3.3755,3.3124,3.3713,3.3755,3.3124,3.3513,3.4568,3.6212,3.6041,3.7204,1.8156,1.8978,1.9466,1.8965,1.8076,1.7094,0.0,0.0,1.4436,1.4148,1.4088,1.4088,1.4088,1.4088,1.4182,0.0,0.0,0.0,0.0,0.0,0.0,0.0,0.0,0.0,0.0,0.0,0.0,0.0,0.0,0.0,2.8291,2.8174,2.7969,2.7728,2.7718,2.7393,2.6836,2.6826,2.6826,2.6826,2.6826,2.6894,2.7002,2.6582,2.6387,2.6367,2.5879,2.5693,0.0,2.5693,2.5693,2.5693,2.5693,2.5693,2.5693,2.5693,2.5693,2.5693,2.5693,2.5693,2.5693,2.5693,2.5693,2.5693,2.5693,2.5693,2.6054,2.7855,2.9983,3.208,3.354,3.5134,3.6405,3.6405,3.6405,3.6405,3.6405,3.6405,3.6405,3.6405,3.6405,3.6405,3.6405,3.6405,3.6405,3.6405,3.6405,3.6405,3.6405,3.6405,3.6267,3.583,3.5245,3.4793,3.4512,3.3771,3.3257,3.3124,3.3124,3.3124,3.3124,3.3839,3.3869,3.3124,3.3839,3.3839,3.3124,3.3441,3.4498,3.6198,3.5802,3.6958,1.6978,1.7609,1.7942,1.7682,1.7154,1.6486,0.0,0.0,1.4436,1.4148,1.4088,1.4088,1.4088,1.4088,1.4182,1.4476,0.0,0.0,0.0,0.0,0.0,0.0,0.0,0.0,0.0,0.0,0.0,0.0,0.0,0.0,2.8291,2.79,2.7718,2.7718,2.7718,2.7256,2.6406,2.6396,2.6396,2.6396,2.6396,2.6611,2.7002,2.6582,2.6387,2.6367,2.5879,2.5693,0.0,2.5693,2.5693,2.5693,2.5693,2.5693,2.5693,2.5693,2.5693,2.5693,2.5693,2.5693,2.5693,2.5693,2.5693,2.5693,2.5693,2.5693,2.6054,2.771,3.0745,3.3636,3.4231,3.5367,3.6405,3.6405,3.6405,3.6405,3.6405,3.6405,3.6405,3.6405,3.6405,3.6405,3.6405,3.6405,3.6405,3.6405,3.6405,3.6405,3.6405,3.6405,3.6405,3.6405,3.5868,3.5044,3.3997,3.3897,3.3658,3.3106,3.3124,3.3124,3.3124,3.3124,3.3124,3.3124,3.3124,3.3124,3.3124,3.415,3.521,3.6251,3.7266,3.8345,1.5517,1.6086,1.641,1.6166,1.5645,1.509,1.4609,0.0,1.3853,1.376,1.3948,1.4088,1.4088,1.4088,1.4182,1.4476,1.4355,0.0,0.0,0.0,0.0,0.0,0.0,0.0,0.0,0.0,0.0,0.0,0.0,0.0,2.7422,2.7295,2.7217,2.7217,2.6943,2.6523,2.5947,2.5947,2.5947,2.5947,2.5947,2.6016,2.6093,2.6006,2.5947,0.0,2.5742,2.5693,2.5693,2.5693,2.5693,2.5693,2.5693,2.5693,2.5693,2.5693,2.5693,2.5693,2.5693,2.5693,2.5693,2.5693,2.5693,2.5693,2.5693,2.5693,2.6123,2.818,3.0235,3.2172,3.3953,3.5367,3.6405,3.6405,3.6405,3.6405,3.6405,3.6405,3.6405,3.6405,3.6405,3.6405,3.6405,3.6405,3.6405,3.6405,3.6405,3.6405,3.6405,3.6405,3.6405,3.6405,3.6207,3.5818,3.5044,3.4336,3.3822,3.3658,3.3282,3.3124,3.3124,3.3797,3.3839,3.3124,3.4485,3.4884,3.4191,3.5238,3.5894,3.6237,3.8055,3.8671,0.0,1.489,1.5291,1.511,1.471,0.0,0.0,0.0,1.3467,1.358,1.3753,1.3955,1.4068,1.4088,1.4142,1.4329,1.4295,0.0,0.0,0.0,0.0,0.0,0.0,0.0,0.0,0.0,0.0,0.0,0.0,0.0,2.7012,2.6865,2.6777,2.6777,2.6523,2.6182,2.5693,2.5693,2.5693,2.5693,2.5693,2.5693,2.5693,2.5693,2.5693,0.0,2.5693,2.5693,0.0,2.5693,2.5693,2.5693,2.5693,2.5693,2.5693,2.5693,2.5693,2.5693,2.5693,2.5693,2.5693,2.5693,2.5693,2.5693,2.5693,2.5801,2.633,2.8191,2.9954,3.1689,3.356,3.5208,3.6405,3.6405,3.6405,3.6405,3.6405,3.6405,3.6405,3.6405,3.6405,3.6405,3.6405,3.6405,3.6405,3.6405,3.6405,3.6405,3.6405,3.6405,3.6405,3.6405,3.6405,3.6267,3.5881,3.5039,3.4349,3.3922,3.3583,3.3294,3.3124,3.3755,3.3797,3.3124,3.4374,3.4733,3.4108,3.5507,3.6408,3.6852,3.8583,3.9031,0.0,0.0,0.0,0.0,0.0,0.0,0.0,0.0,0.0,1.3487,1.3573,1.3686,1.4008,1.4075,1.4095,1.4115,1.4342,0.0,0.0,0.0,0.0,0.0,0.0,0.0,0.0,0.0,0.0,0.0,0.0,0.0,2.6924,2.6553,2.6328,2.6299,2.6299,2.6113,2.5693,2.5693,2.5693,2.5693,2.5693,2.5693,2.5693,2.5693,2.5693,0.0,2.5693,2.5693,2.5693,2.5693,2.5693,2.5693,2.5693,2.5693,2.5693,2.5693,2.5693,2.5693,2.5693,2.5693,2.5693,2.5693,2.5693,2.5693,2.5693,2.6016,2.6636,2.7824,2.984,3.1867,3.3159,3.4927,3.6367,3.6405,3.6405,3.6405,3.6405,3.6405,3.6405,3.6405,3.6405,3.6405,3.6405,3.6405,3.6405,3.6405,3.6405,3.6405,3.6405,3.6405,3.6405,3.6405,3.6405,3.6405,3.6405,3.5818,3.5006,3.4022,3.3884,3.3608,3.3106,3.3124,3.3124,3.3124,3.3154,3.324,3.3313,3.5346,3.6774,3.7715,3.8855,3.9337,0.0,0.0,0.0,0.0,0.0,0.0,0.0,0.0,0.0,0.0,0.0,0.0,0.0,0.0,1.4162,1.4382,0.0,1.4943,0.0,0.0,0.0,0.0,0.0,0.0,0.0,0.0,0.0,0.0,0.0,2.5996,2.5996,2.5947,2.5732,2.5439,2.5429,2.5488,2.5693,2.5693,2.5693,2.5693,2.5693,2.5693,2.5693,2.5693,2.5693,2.5693,2.5693,2.5693,2.5693,2.5693,2.5693,2.5693,2.5693,2.5693,2.5693,2.5693,2.5693,2.5693,2.5693,2.5693,2.5693,2.5693,2.5693,2.5693,2.5693,2.5762,2.6192,2.7741,2.9363,3.0995,3.297,3.4599,3.5843,3.6304,3.6405,3.6405,3.6405,3.6405,3.6405,3.6405,3.6405,3.6405,3.6405,3.6405,3.6405,3.6405,3.6405,3.6405,3.6405,3.6405,3.6405,3.6405,3.6405,3.6405,3.6405,3.5479,3.4756,3.455,3.3734,3.3206,3.3124,3.3124,3.3124,3.3124,3.3911,3.4692,3.5453,3.6788,3.7137,3.6604,3.8531,3.8943,1.2305,1.2305,0.0,0.0,0.0,0.0,0.0,0.0,0.0,0.0,0.0,0.0,0.0,0.0,0.0,0.0,1.5361,0.0,0.0,0.0,0.0,0.0,0.0,0.0,0.0,0.0,0.0,0.0,0.0,2.543,2.543,2.5244,2.5019,2.4775,2.4775,2.498,2.543,2.543,2.5527,2.5693,2.5693,2.5693,2.5693,2.5693,2.5693,2.5693,2.5693,2.5693,2.5693,2.5693,2.5693,2.5693,2.5693,2.5693,2.5693,2.5693,2.5693,2.5693,2.5693,2.5693,2.5693,2.5693,2.5693,2.5693,2.5693,2.5693,2.6112,2.8195,2.9451,3.0728,3.3092,3.4576,3.5571,3.5918,3.6182,3.6405,3.6405,3.6405,3.6405,3.6405,3.6405,3.6405,3.6405,3.6405,3.6405,3.6405,3.6405,3.6405,3.6405,3.6405,3.6405,3.6405,3.6405,3.6405,3.6405,3.5353,3.468,3.468,3.3922,3.3345,3.3124,3.3124,3.3124,3.3124,3.415,3.5197,3.6198,3.6774,3.7021,3.6968,3.8144,3.8345,1.2305,1.2338,1.2358,1.2311,0.0,0.0,0.0,0.0,0.0,0.0,0.0,0.0,0.0,0.0,0.0,0.0,0.0,0.0,0.0,0.0,0.0,0.0,0.0,0.0,0.0,0.0,0.0,0.0,0.0,2.4971,2.4971,2.4619,2.4385,2.4326,2.4316,2.4502,2.492,2.4941,2.5156,2.5489,2.5489,2.5489,2.5489,2.5557,2.5586,2.5586,0.0,0.0,2.5693,2.5693,2.5693,2.5693,2.5693,2.5693,2.5693,2.5693,2.5693,2.5693,2.5693,2.5645,2.5596,2.5664,2.5693,2.5693,2.5693,2.583,2.6476,2.8762,2.9709,3.0651,3.3214,3.4587,3.5295,3.5458,3.5893,3.6304,3.6392,3.6405,3.6405,3.6405,3.6405,3.6405,3.6405,3.6405,3.6405,3.6405,3.6405,3.6405,3.6405,3.6405,3.6405,3.6405,3.6405,3.6405,3.6405,3.5353,3.468,3.468,3.4123,3.3558,3.3136,3.3124,3.3124,3.3124,3.3995,3.4979,3.5974,3.6132,3.6774,3.7791,3.7956,3.7956,1.2305,1.2522,1.2656,1.2365,0.0,0.0,0.0,0.0,0.0,0.0,0.0,0.0,0.0,0.0,0.0,0.0,0.0,0.0,0.0,0.0,0.0,0.0,0.0,0.0,0.0,0.0,0.0,0.0,0.0,2.4521,2.4521,2.4453,2.4248,2.3896,2.3887,2.3916,2.3984,2.4336,2.4551,2.4619,2.4619,2.4619,2.4629,2.5,2.5166,2.5195,0.0,2.5693,2.5693,2.5693,2.5693,2.5693,2.5693,2.5693,2.5693,2.5693,2.5693,2.5693,2.5693,2.5488,2.5234,2.5567,2.5693,2.5693,2.5693,2.6428,2.7589,2.8993,2.9463,3.0217,3.3128,3.4022,3.4387,3.527,3.5558,3.5805,3.6304,3.6405,3.6405,3.6405,3.6405,3.6405,3.6405,3.6405,3.6405,3.6405,3.6405,3.6405,3.6405,3.6405,3.6405,3.6405,3.6405,3.6405,3.6405,3.5353,3.468,3.468,3.3771,3.3212,3.3124,3.3124,3.3124,3.3124,3.3283,3.3869,3.4938,3.5774,3.6774,3.7829,3.8745,3.8671,1.2305,1.2405,1.2621,1.2987,0.0,0.0,0.0,0.0,0.0,0.0,0.0,0.0,0.0,0.0,0.0,0.0,0.0,0.0,0.0,0.0,0.0,0.0,0.0,0.0,0.0,0.0,0.0,0.0,0.0,0.0,2.4082,2.3857,2.3598,2.3447,2.3437,2.3437,2.3437,2.3633,2.391,2.4414,2.4414,2.4414,2.4424,2.4619,2.4717,2.4727,0.0,2.4982,2.4982,2.4982,2.4982,2.4982,2.4982,2.5166,2.54,2.5596,2.5693,2.5693,2.5693,2.5605,2.5459,2.5625,2.5693,2.583,2.6524,2.7125,2.8002,2.9863,3.0361,3.0824,3.2921,3.3671,3.4022,3.4537,3.4843,3.5119,3.5416,3.5479,3.5567,3.5868,3.5918,3.6019,3.6355,3.6405,3.6405,3.6405,3.6405,3.6405,3.6405,3.6405,3.6405,3.6405,3.6405,3.6292,3.5943,3.5177,3.4462,3.3872,3.3357,3.3124,3.3124,3.3124,3.3356,3.3953,3.3953,3.4457,3.5507,3.5974,3.6448,3.6982,3.8032,3.8271,1.2556,1.2536,1.2681,0.0,0.0,1.3266,1.4237,0.0,0.0,0.0,0.0,0.0,0.0,0.0,0.0,0.0,0.0,0.0,0.0,0.0,0.0,0.0,0.0,0.0,0.0,0.0,0.0,0.0,0.0,0.0,2.3633,2.3276,2.3091,2.3091,2.3091,2.3091,2.3091,2.3091,2.3422,2.4121,2.4121,2.4121,2.4121,2.4219,2.4268,2.4277,2.4375,2.4414,2.4414,2.4414,2.4414,2.4414,2.4414,2.4687,2.5174,2.5566,2.5625,2.5547,2.5654,2.5625,2.5596,2.5654,2.5693,2.5927,2.722,2.7825,2.8448,3.0586,3.14,3.1865,3.284,3.3483,3.3935,3.406,3.4512,3.4951,3.5077,3.5102,3.5228,3.5608,3.5683,3.5868,3.6329,3.6405,3.6405,3.6405,3.6405,3.6405,3.6405,3.6405,3.6405,3.6405,3.6292,3.5893,3.5169,3.4731,3.411,3.3174,3.3206,3.3206,3.3124,3.3124,3.3471,3.4317,3.4304,3.4925,3.6198,3.6198,3.633,3.6604,3.7663,3.7919,1.3346,1.32,1.313,1.4709,0.0,0.0,1.6203,1.6657,0.0,0.0,0.0,0.0,0.0,0.0,0.0,0.0,0.0,0.0,0.0,0.0,0.0,0.0,0.0,0.0,0.0,0.0,0.0,0.0,0.0,0.0,2.314,2.311,2.3091,2.3091,2.3091,2.3091,2.3091,2.3091,2.312,2.3188,2.3188,2.3188,2.3198,2.3652,2.3838,2.3857,2.4248,2.4414,2.4414,2.4414,2.4414,2.4414,2.4414,2.4687,2.5174,2.5566,2.5478,2.5223,2.5596,2.5469,2.5185,2.5605,2.5693,2.5927,2.722,2.8366,2.9544,3.0855,3.2052,3.2982,3.3081,3.3483,3.4035,3.4537,3.5044,3.5583,3.6179,3.6292,3.6304,3.6342,3.6355,3.6367,3.6405,3.6405,3.6405,3.6405,3.6405,3.6405,3.6405,3.6405,3.6405,3.6405,3.5906,3.5119,3.411,3.3985,3.3709,3.3162,3.3558,3.3608,3.3106,3.3124,3.3154,3.3197,3.324,3.422,3.6198,3.6198,3.6721,3.7715,3.8782,3.8219,1.3455,1.3543,1.3645,1.4875,0.0,0.0,0.0,0.0,0.0,0.0,0.0,0.0,0.0,0.0,0.0,0.0,0.0,0.0,0.0,0.0,0.0,0.0,0.0,0.0,0.0,0.0,0.0,0.0,0.0,0.0,2.3091,2.3091,2.3091,2.3091,2.3091,2.3091,2.3091,2.3091,2.3091,2.3091,2.3091,2.3091,2.3101,2.3266,2.3344,2.3344,2.351,2.3578,2.3578,2.3578,2.3578,2.3608,2.3926,2.4287,2.4717,2.5156,2.5391,2.5508,2.5625,2.5439,2.5184,2.5596,2.6056,2.6754,2.8269,2.9544,3.0765,3.2008,3.2742,3.3124,3.3124,3.3232,3.3533,3.4073,3.4374,3.4575,3.4788,3.4839,3.4926,3.5278,3.5341,3.5554,3.6292,3.6081,3.5968,3.6355,3.6069,3.5855,3.5855,3.6157,3.6279,3.5893,3.5366,3.468,3.396,3.3583,3.3307,3.3093,3.3269,3.3294,3.3124,3.3124,3.37,3.4993,3.3742,3.4137,3.6198,3.6198,3.6408,3.6852,3.8583,3.898,1.3603,1.3656,1.3838,0.0,0.0,0.0,0.0,0.0,0.0,0.0,0.0,0.0,0.0,0.0,0.0,0.0,0.0,0.0,0.0,0.0,0.0,0.0,0.0,0.0,0.0,0.0,0.0,0.0,0.0,0.0,0.0,2.3091,2.3091,2.3091,2.3091,2.3091,2.3091,2.3091,2.3091,2.3091,2.3091,2.3091,2.3091,2.3091,2.3091,2.3091,2.3091,2.3091,2.3091,2.3091,2.3091,2.314,2.3623,2.3965,2.4268,2.4697,2.5146,2.5546,2.5744,2.5717,2.5711,2.6391,2.7009,2.7729,2.9432,3.0541,3.1456,3.2754,3.3124,3.3124,3.3124,3.3206,3.3432,3.3809,3.4035,3.4211,3.4387,3.4424,3.4575,3.5127,3.5102,3.5278,3.6254,3.5906,3.5683,3.6329,3.6044,3.5696,3.552,3.5868,3.583,3.5056,3.4688,3.4236,3.3684,3.3294,3.3124,3.3124,3.3124,3.3124,3.3124,3.3124,3.3784,3.5183,3.4137,3.4457,3.6198,3.6526,3.6696,3.6774,3.8568,3.9228,1.3923,1.3619,0.0,0.0,0.0,0.0,0.0,0.0,0.0,0.0,0.0,0.0,0.0,0.0,0.0,0.0,0.0,0.0,0.0,0.0,0.0,0.0,0.0,0.0,0.0,0.0,0.0,0.0,0.0,0.0,0.0,2.3091,2.3091,2.3091,2.3091,2.3091,2.3091,2.3091,2.3091,2.3091,2.3091,2.3091,2.3091,2.3091,2.3091,2.3091,2.3091,2.3091,2.3091,2.3091,2.3091,2.314,2.3613,2.3789,2.3838,2.4258,2.4687,2.5189,2.5873,2.6361,2.6911,2.8174,2.8623,2.8936,3.0646,3.1211,3.15,3.2742,3.3124,3.3124,3.3124,3.3483,3.3884,3.3897,3.4324,3.4818,3.537,3.5495,3.5658,3.6292,3.5918,3.5671,3.6317,3.5906,3.5683,3.6329,3.6405,3.6157,3.5558,3.5483,3.5069,3.401,3.3897,3.3671,3.3174,3.3124,3.3124,3.3124,3.3124,3.3124,3.3124,3.3124,3.3124,3.3111,3.415,3.5197,3.6198,3.7266,3.7791,3.7791,3.8907,3.8819,1.3976,0.0,0.0,0.0,0.0,0.0,0.0,0.0,0.0,0.0,0.0,0.0,0.0,0.0,0.0,0.0,0.0,0.0,0.0,0.0,0.0,0.0,0.0,0.0,0.0,0.0,0.0,0.0,0.0,0.0,0.0,2.2935,2.3091,2.3091,2.3091,2.3091,2.3091,2.3091,2.3091,2.3091,2.3091,2.3091,2.3091,2.3091,2.3091,2.3091,2.3091,2.3091,2.3091,2.3091,2.3091,2.311,2.3237,2.3516,2.3809,2.3935,2.4248,2.4775,2.576,2.5944,2.6051,2.7503,2.8633,2.9613,3.0379,3.153,3.2612,3.2982,3.3124,3.3124,3.3124,3.3206,3.342,3.3809,3.4022,3.4186,3.4349,3.4688,3.4969,3.5177,3.5345,3.5671,3.6317,3.5906,3.5683,3.6329,3.5705,3.5152,3.4944,3.4625,3.4261,3.3935,3.3897,3.3671,3.3174,3.3124,3.3124,3.3124,3.3797,3.3869,3.3111,3.3124,3.3784,3.5265,3.4897,3.5197,3.6198,3.7266,3.742,3.6735,3.8531,3.9228,1.404,0.0,0.0,0.0,0.0,0.0,0.0,0.0,0.0,0.0,0.0,0.0,0.0,0.0,0.0,0.0,0.0,0.0,0.0,0.0,0.0,0.0,0.0,0.0,0.0,0.0,0.0,0.0,0.0,0.0,0.0,2.2711,2.2925,2.3091,2.3091,2.3091,2.3091,2.3091,2.3091,2.3091,2.3091,2.3091,2.3091,2.3091,2.3091,2.3091,2.3091,2.3091,2.3091,2.3091,2.3091,2.3091,2.3091,2.3257,2.357,2.4037,2.444,2.5017,2.6433,2.6809,2.699,2.8399,2.941,3.0243,3.0931,3.1877,3.278,3.3018,3.3124,3.3124,3.3124,3.3124,3.3156,3.3495,3.3571,3.3633,3.3847,3.4161,3.4462,3.4675,3.4768,3.5064,3.5617,3.5253,3.5077,3.5629,3.4964,3.4399,3.4399,3.3909,3.3571,3.3571,3.3571,3.3432,3.3149,3.3471,3.3755,3.3755,3.4345,3.4581,3.4332,3.3953,3.4498,3.6158,3.5588,3.5788,3.6852,3.7904,3.8107,3.7482,3.8819,3.9388,0.0,0.0,0.0,0.0,0.0,0.0,0.0,0.0,0.0,0.0,0.0,0.0,0.0,0.0,0.0,0.0,0.0,0.0,0.0,0.0,0.0,0.0,0.0,0.0,0.0,0.0,0.0,0.0,0.0,0.0,0.0,2.2432,2.2627,2.2974,2.3013,2.3023,2.2984,2.3052,2.3081,2.3042,2.3081,2.3091,2.3091,2.3091,2.3091,2.3091,2.3091,2.3091,2.3091,2.3091,2.3091,2.3091,2.3091,2.3091,2.3266,2.4382,2.5017,2.5635,2.747,2.8364,2.8944,3.0149,3.057,3.0796,3.1775,3.2139,3.2328,3.2855,3.3074,3.3124,3.3124,3.3124,3.3124,3.3124,3.3124,3.3219,3.3721,3.3872,3.4048,3.455,3.4286,3.4135,3.4638,3.4311,3.4123,3.4575,3.4223,3.3884,3.3834,3.3382,3.3124,3.3124,3.3124,3.3124,3.3124,3.3995,3.4581,3.4705,3.4787,3.5292,3.629,3.5292,3.521,3.633,3.6369,3.6813,3.7791,3.887,3.9337,3.9265,3.9337,3.9388,0.0,0.0,0.0,0.0,0.0,0.0,0.0,0.0,0.0,0.0,0.0,0.0,0.0,0.0,0.0,0.0,0.0,0.0,0.0,0.0,0.0,0.0,0.0,0.0,0.0,0.0,0.0,0.0,0.0,0.0,2.1463,2.1836,2.206,2.2158,2.2471,2.249,2.2158,2.2769,2.2925,2.2646,2.2935,2.3091,2.3091,2.3091,2.3091,2.3091,2.3091,2.3091,2.3091,2.3091,2.3091,2.3091,2.3091,2.3091,2.3266,2.4382,2.485,2.5211,2.7342,2.8167,2.8435,2.9591,3.0269,3.0658,3.0884,3.1549,3.224,3.2365,3.2717,3.3124,3.3124,3.3124,3.3124,3.3124,3.3124,3.3106,3.3275,3.3596,3.3935,3.406,3.4324,3.4575,3.4655,3.4625,3.4437,3.4123,3.3972,3.3746,3.3307,3.3156,3.3124,3.3124,3.3124,3.3124,3.3124,3.3313,3.3797,3.4664,3.544,3.6344,3.742,3.5695,3.5574,3.742,3.7472,3.7548,3.7791,3.887,3.898,3.8144,3.9017,3.9388,0.0,0.0,0.0,0.0,0.0,0.0,0.0,0.0,0.0,0.0,0.0,0.0,0.0,0.0,0.0,0.0,0.0,0.0,0.0,0.0,0.0,0.0,0.0,0.0,0.0,0.0,0.0,0.0,0.0,2.1006,2.1181,2.1445,2.167,2.1875,2.2295,2.2314,2.1894,2.2519,2.2627,2.2217,2.2637,2.2896,2.3091,2.3091,2.3091,2.3091,2.3091,2.3091,2.3091,2.3091,2.3091,2.3091,2.3091,2.342,2.4049,2.5168,2.5953,2.6603,2.8307,2.8897,2.9028,2.9624,2.9993,3.0269,3.0532,3.1009,3.1499,3.175,3.2227,3.2667,3.2667,3.2867,3.3124,3.3124,3.3124,3.3124,3.3124,3.3307,3.3508,3.3508,3.3734,3.3935,3.3935,3.3935,3.3834,3.3545,3.3508,3.3395,3.3162,3.3124,3.3124,3.3124,3.3124,3.3124,3.3124,3.4024,3.4802,3.54,3.6383,3.7458,3.8509,3.7035,3.6919,3.8546,3.8069,3.8032,3.8583,3.9141,3.9104,3.8583,3.9141,3.9388,0.0,0.0,0.0,0.0,0.0,0.0,0.0,0.0,0.0,0.0,0.0,0.0,0.0,0.0,0.0,0.0,0.0,0.0,0.0,0.0,0.0,0.0,0.0,0.0,0.0,0.0,0.0,0.0,0.0,2.0615,2.0947,2.1034,2.1279,2.1641,2.207,2.209,2.166,2.2148,2.2197,2.1777,2.2275,2.2652,2.2984,2.3062,2.3091,2.3091,2.3091,2.3091,2.3135,2.3299,2.3387,2.343,2.3594,2.4264,2.521,2.6337,2.7319,2.8255,2.9404,2.9792,2.9792,2.9792,2.9792,2.988,3.0331,3.0545,3.0721,3.1248,3.1788,3.224,3.234,3.2717,3.3124,3.3124,3.3124,3.3124,3.3124,3.3124,3.3124,3.3124,3.3124,3.3124,3.3124,3.3124,3.3124,3.3124,3.3124,3.3124,3.3124,3.3124,3.3124,3.3124,3.3124,3.3154,3.3356,3.4966,3.6093,3.6448,3.7305,3.8271,3.9337,3.8546,3.8509,3.9388,3.8546,3.8509,3.9388,3.9388,3.9388,3.9388,3.9388,3.9388,0.0,0.0,0.0,0.0,0.0,0.0,0.0,0.0,0.0,0.0,0.0,0.0,0.0,0.0,0.0,0.0,0.0,0.0,0.0,0.0,0.0,0.0,0.0,0.0,0.0,0.0,0.0,0.0,1.9834,2.0029,2.0088,2.0449,2.0723,2.0781,2.1172,2.1191,2.0781,2.1603,2.1758,2.1288,2.2129,2.2539,2.2607,2.2925,2.3091,2.3091,2.3091,2.3091,2.3178,2.4168,2.4585,2.467,2.5641,2.6141,2.6389,2.7481,2.7964,2.8255,2.9404,2.9792,2.9792,2.9792,2.9792,2.9804,2.988,3.0231,3.0721,3.1248,3.1788,3.2328,3.283,3.3061,3.3124,3.3124,3.3124,3.3124,3.3124,3.3124,3.3124,3.3124,3.3124,3.3124,3.3124,3.3124,3.3124,3.3124,3.3124,3.3124,3.3124,3.3124,3.3124,3.3124,3.3124,3.3471,3.4428,3.4746,3.5655,3.7472,3.7715,3.8271,3.9337,3.9265,3.9265,3.9388,3.9265,3.9265,3.9388,3.9388,3.9388,3.9388,3.9388,3.9388,0.0,0.0,0.0,0.0,0.0,0.0,0.0,0.0,0.0,0.0,0.0,0.0,0.0,0.0,0.0,0.0,0.0,0.0,0.0,0.0,0.0,0.0,0.0,0.0,0.0,0.0,0.0,0.0,1.9678,1.9912,1.9912,2.037,2.0605,2.0605,2.0996,2.1016,2.0605,2.1201,2.1385,2.12,2.1865,2.2285,2.2529,2.2906,2.3091,2.3091,2.3091,2.3464,2.4082,2.4585,2.5168,2.5797,2.6307,2.6883,2.7441,2.7936,2.8518,2.9106,2.9624,2.9792,2.9792,2.9792,2.9792,2.9792,2.9792,2.9967,3.0269,3.0809,3.1135,3.1436,3.1989,3.2127,3.2127,3.2127,3.2127,3.2127,3.2127,3.2629,3.3124,3.3124,3.3124,3.3124,3.3124,3.3124,3.3124,3.3124,3.3124,3.3124,3.3124,3.3124,3.3124,3.3124,3.3124,3.3513,3.4622,3.521,3.6186,3.7715,3.8345,3.8907,3.9388,3.9388,3.9388,3.9388,3.9388,3.9388,3.9388,3.9388,3.9388,3.9388,3.9388,3.9388,0.0,0.0,0.0,0.0,0.0,0.0,0.0,0.0,0.0,0.0,0.0,0.0,0.0,0.0,0.0,0.0,0.0,0.0,0.0,0.0,0.0,0.0,0.0,0.0,0.0,0.0,0.0,0.0,1.9287,1.9553,1.9553,2.0,2.0282,2.0282,2.0566,2.0635,2.0439,2.084,2.1064,2.1034,2.1621,2.2051,2.2363,2.3183,2.3507,2.3507,2.3507,2.4178,2.5252,2.5535,2.6119,2.6924,2.7221,2.7827,2.8518,2.8518,2.9067,2.9792,2.9792,2.9792,2.9792,2.9792,2.9792,2.9792,2.9792,2.9792,2.9905,3.0457,3.062,3.0733,3.1248,3.1386,3.1386,3.1386,3.1386,3.1436,3.1574,3.2265,3.2905,3.3056,3.3124,3.3124,3.3124,3.3124,3.3124,3.3124,3.3124,3.3124,3.3124,3.3124,3.3197,3.3471,3.3513,3.4037,3.5386,3.6186,3.7046,3.8144,3.8943,3.9388,3.9388,3.9388,3.9298,3.9155,3.9334,3.9388,3.9388,3.9388,3.9388,3.9388,3.9388,3.9388,0.0,0.0,0.0,0.0,0.0,0.0,0.0,0.0,0.0,0.0,0.0,0.0,0.0,0.0,0.0,0.0,0.0,0.0,0.0,0.0,0.0,0.0,0.0,0.0,0.0,0.0,0.0,0.0,1.8208,1.8666,1.8666,1.9111,1.9355,1.9355,1.9375,1.957,1.9941,2.0381,2.0635,2.0644,2.1475,2.1894,2.1985,2.3864,2.4702,2.4702,2.4702,2.5378,2.6472,2.7522,2.7964,2.8136,2.9197,2.9663,2.9702,2.9702,2.9753,2.9792,2.9792,2.9792,2.9792,2.9792,2.9792,2.9792,2.9792,2.9792,2.9905,3.0457,3.062,3.0733,3.1248,3.1386,3.1386,3.1386,3.1386,3.1537,3.2051,3.2215,3.2416,3.2968,3.3124,3.3124,3.3124,3.3124,3.3124,3.3124,3.3124,3.3124,3.3124,3.3124,3.3471,3.4511,3.4622,3.5453,3.7472,3.7677,3.8182,3.9265,3.9373,3.9388,3.9388,3.9388,3.911,3.8452,3.9095,3.9388,3.9388,3.9388,3.9388,3.9388,3.9388,3.9388,0.0,0.0,0.0,0.0,0.0,0.0,0.0,0.0,0.0,0.0,0.0,0.0,0.0,0.0,0.0,0.0,0.0,0.0,0.0,0.0,0.0,0.0,0.0,0.0,0.0,0.0,0.0,0.0,0.0,1.8315,1.8588,1.9053,1.9287,1.9287,1.9287,1.9365,1.9512,1.9941,2.0478,2.1118,2.1352,2.212,2.3406,2.3703,2.4789,2.6411,2.6411,2.6846,2.7574,2.7924,2.8518,2.9236,2.9624,2.9792,2.9792,2.9792,2.9792,2.9792,2.9792,2.9792,2.9792,2.9792,2.9792,2.9792,2.9792,2.9792,2.9905,3.0457,3.0357,3.0218,3.0746,3.0633,3.0369,3.0369,3.0369,3.052,3.1072,3.1725,3.2277,3.2478,3.283,3.3124,3.3124,3.3124,3.3124,3.3124,3.3124,3.3124,3.3124,3.3713,3.4275,3.4664,3.5278,3.6225,3.7677,3.7791,3.8271,3.9337,3.9388,3.9388,3.9388,3.9388,3.9095,3.8407,3.8631,3.8751,3.8751,3.92,3.9388,3.9388,3.9388,3.9388,0.0,0.0,0.0,0.0,0.0,0.0,0.0,0.0,0.0,0.0,0.0,0.0,0.0,0.0,0.0,0.0,0.0,0.0,0.0,0.0,0.0,0.0,0.0,0.0,0.0,0.0,0.0,0.0,0.0,0.0,1.8169,1.8623,1.8857,1.8857,1.8994,1.9141,1.9287,2.0021,2.0822,2.1597,2.1999,2.2907,2.42,2.4332,2.5357,2.7073,2.7599,2.814,2.8688,2.8688,2.9106,2.9792,2.9792,2.9792,2.9792,2.9792,2.9792,2.9792,2.9792,2.9792,2.9792,2.9792,2.9792,2.9792,2.9792,2.9792,2.9867,3.0231,3.0068,2.988,3.0244,3.0068,2.9792,2.9792,2.9792,2.9892,3.0256,3.1047,3.1788,3.2139,3.2516,3.2855,3.3086,3.3124,3.3124,3.3124,3.3124,3.324,3.3598,3.4275,3.4979,3.5655,3.6344,3.7175,3.8271,3.8345,3.862,3.9337,3.9388,3.9388,3.9388,3.92,3.8751,3.8078,3.8063,3.7958,3.7749,3.8646,3.9065,3.908,3.932,3.9388,0.0,0.0,0.0,0.0,0.0,0.0,0.0,0.0,0.0,0.0,0.0,0.0,0.0,0.0,0.0,0.0,0.0,0.0,0.0,0.0,0.0,0.0,0.0,0.0,0.0,0.0,0.0,0.0,1.6907,1.7406,1.7383,1.7783,1.8008,1.8008,1.8373,1.8818,1.9321,2.0679,2.1592,2.2071,2.3508,2.4205,2.434,2.58,2.6463,2.6623,2.82,2.9239,2.9767,2.9779,2.9792,2.9792,2.9792,2.9792,2.9792,2.9792,2.9792,2.9792,2.9792,2.9792,2.9792,2.9792,2.9792,2.9792,2.9792,2.9792,2.9792,2.9792,2.9792,2.9792,2.9792,2.9792,2.9792,2.9792,2.9792,2.9792,2.9817,3.0231,3.0922,3.1989,3.2202,3.239,3.2955,3.3056,3.3056,3.3056,3.3111,3.3471,3.4553,3.4746,3.5534,3.7558,3.78,3.8242,3.9271,3.9394,3.9394,3.9388,3.9388,3.9373,3.9394,3.8751,3.8078,3.7404,3.7375,3.7075,3.6462,3.7734,3.8362,3.8407,3.9095,3.9388,1.541,0.0,0.0,0.0,0.0,0.0,0.0,0.0,0.0,0.0,0.0,0.0,0.0,0.0,0.0,0.0,0.0,0.0,0.0,0.0,0.0,0.0,0.0,0.0,0.0,0.0,0.0,0.0,1.6592,1.7051,1.7363,1.7783,1.8008,1.8008,1.8125,1.8532,1.9281,2.0404,2.1661,2.3098,2.3505,2.4461,2.5836,2.5553,2.6022,2.7124,2.7975,2.8649,2.9202,2.9616,2.9792,2.9792,2.9792,2.9792,2.9792,2.9792,2.9792,2.9792,2.9792,2.9792,2.9792,2.9792,2.9792,2.9792,2.9792,2.9792,2.9792,2.9792,2.9792,2.9792,2.9792,2.9792,2.9792,2.9792,2.9792,2.9905,3.0306,3.0507,3.0809,3.1486,3.1938,3.2265,3.2416,3.2453,3.2453,3.2453,3.2805,3.3471,3.4553,3.5319,3.6124,3.6966,3.7777,3.8362,3.8641,3.8676,3.8886,3.9394,3.9388,3.9185,3.8691,3.8497,3.7868,3.6761,3.6746,3.6432,3.5774,3.706,3.7928,3.8407,3.9095,3.9388,0.0,0.0,0.0,0.0,0.0,0.0,1.541,1.541,0.0,0.0,0.0,0.0,0.0,0.0,0.0,0.0,0.0,0.0,0.0,0.0,0.0,0.0,0.0,0.0,0.0,1.541,1.5518,1.5801,1.6377,1.697,1.7607,1.7881,1.8008,1.8008,1.8008,1.8325,1.8985,2.0358,2.1797,2.3246,2.4015,2.5129,2.6487,2.5873,2.6128,2.7002,2.7519,2.8072,2.8624,2.9202,2.9578,2.9792,2.9792,2.9792,2.9792,2.9792,2.9792,2.9792,2.9792,2.9792,2.9792,2.9792,2.9792,2.9792,2.9792,2.9792,2.9792,2.9792,2.9792,2.9792,2.9792,2.9792,2.9792,2.9792,2.9792,2.988,3.0206,3.062,3.1097,3.1625,3.1813,3.2014,3.2491,3.2378,3.2215,3.2215,3.3102,3.4059,3.4888,3.5839,3.6699,3.7383,3.7792,3.7973,3.7973,3.8227,3.8556,3.896,3.899,3.8931,3.8826,3.8033,3.7375,3.6881,3.6342,3.5893,3.5504,3.6522,3.7494,3.8407,3.8796,3.914,0.0,0.0,0.0,0.0,0.0,0.0,1.542,1.541,1.541,0.0,0.0,0.0,0.0,0.0,0.0,0.0,0.0,0.0,0.0,0.0,0.0,0.0,0.0,0.0,1.541,1.541,1.541,1.541,1.62,1.7058,1.79,1.7988,1.8008,1.8008,1.8008,1.8218,1.866,2.0493,2.1902,2.2887,2.474,2.5862,2.6399,2.6461,2.6499,2.6524,2.7077,2.7595,2.8147,2.8662,2.9277,2.9792,2.9792,2.9792,2.9792,2.9792,2.9792,2.9792,2.9792,2.9792,2.9792,2.9792,2.9792,2.9792,2.9792,2.9792,2.9792,2.9792,2.9792,2.9792,2.9792,2.9792,2.9792,2.9792,2.9792,2.9817,2.9867,3.0633,3.1474,3.2014,3.1725,3.1687,3.2641,3.2449,3.2205,3.2268,3.371,3.4969,3.5488,3.6278,3.7172,3.8077,3.7659,3.73,3.73,3.7838,3.8212,3.8272,3.8287,3.8527,3.9065,3.7419,3.6716,3.718,3.6088,3.5504,3.5504,3.6163,3.7075,3.8182,3.8317,3.8721,0.0,0.0,0.0,0.0,0.0,0.0,1.5498,1.541,1.541,0.0,0.0,0.0,0.0,0.0,0.0,0.0,0.0,0.0,0.0,0.0,0.0,0.0,0.0,0.0,1.541,1.541,1.541,1.541,1.62,1.6921,1.748,1.7822,1.8008,1.8008,1.8008,1.8377,1.9168,2.0665,2.1851,2.2775,2.4698,2.5649,2.5774,2.6285,2.6499,2.6524,2.7077,2.7595,2.8147,2.8662,2.9277,2.9792,2.9792,2.9792,2.9792,2.9792,2.9792,2.9792,2.9792,2.9792,2.9792,2.9792,2.9792,2.9792,2.9792,2.9792,2.9792,2.9792,2.9792,2.9792,2.9792,2.9792,2.9792,2.9792,2.9792,2.9917,3.0357,3.062,3.0922,3.1449,3.1461,3.1323,3.1122,3.1612,3.2202,3.2764,3.4177,3.5518,3.6404,3.6687,3.6816,3.6854,3.6746,3.6671,3.6671,3.6791,3.7075,3.7569,3.7599,3.7449,3.7075,3.6686,3.6297,3.5893,3.5639,3.5504,3.5504,3.6163,3.6611,3.6881,3.7913,3.8467,0.0,0.0,0.0,1.6455,0.0,0.0,0.0,1.5566,1.5469,0.0,0.0,0.0,0.0,0.0,0.0,0.0,0.0,0.0,0.0,0.0,0.0,0.0,0.0,0.0,1.541,1.541,1.5498,1.5723,1.6676,1.7456,1.7965,1.841,1.8654,1.8654,1.8654,1.8654,1.8654,2.0216,2.1345,2.2066,2.4198,2.5347,2.5611,2.6223,2.6499,2.6512,2.6788,2.7216,2.7733,2.8285,2.885,2.939,2.9679,2.9792,2.9792,2.9792,2.9792,2.9792,2.9792,2.9792,2.9792,2.9792,2.9792,2.9792,2.9792,2.9792,2.9792,2.9792,2.9792,2.9792,2.9792,2.9792,2.9792,2.9792,2.9792,2.9867,3.0143,3.062,3.1069,3.1253,3.1717,3.2026,3.1756,3.2236,3.2799,3.3147,3.4823,3.6014,3.5913,3.6597,3.6939,3.6548,3.6193,3.5998,3.5998,3.6297,3.6611,3.6926,3.6941,3.6941,3.6941,3.6342,3.5833,3.5519,3.5504,3.5504,3.5504,3.5833,3.6327,3.6956,3.7599,3.8257,0.0,0.0,0.0,0.0,0.0,1.6202,0.0,0.0,0.0,0.0,0.0,0.0,0.0,0.0,0.0,0.0,0.0,0.0,0.0,0.0,0.0,0.0,0.0,0.0,0.0,1.541,1.5615,1.6148,1.7226,1.8081,1.8669,1.9254,1.9562,1.9562,1.9562,1.9199,1.8496,2.0074,2.1083,2.1524,2.375,2.5046,2.5473,2.6185,2.6499,2.6499,2.6499,2.6801,2.7318,2.7758,2.8335,2.895,2.9566,2.9792,2.9792,2.9792,2.9792,2.9792,2.9792,2.9792,2.9792,2.9792,2.9792,2.9792,2.9792,2.9792,2.9792,2.9792,2.9792,2.9792,2.9792,2.9792,2.9792,2.9792,2.9792,2.9869,3.0037,3.076,3.1367,3.1463,3.2297,3.2976,3.2784,3.3176,3.3548,3.3709,3.5416,3.6381,3.5401,3.6423,3.6985,3.6357,3.5818,3.5504,3.5504,3.5998,3.6297,3.6297,3.6297,3.6522,3.7015,3.6058,3.5504,3.5504,3.5504,3.5504,3.5504,3.5504,3.6103,3.724,3.736,3.8063,0.0,0.0,0.0,0.0,1.6973,0.0,0.0,0.0,1.543,1.5478,0.0,0.0,0.0,0.0,0.0,0.0,0.0,0.0,0.0,0.0,0.0,0.0,0.0,0.0,0.0,1.541,1.5681,1.6394,1.7401,1.8282,1.901,1.993,2.0462,2.0462,2.0462,2.0398,2.0301,2.127,2.1776,2.1879,2.3848,2.4825,2.4946,2.6021,2.6499,2.6499,2.6499,2.6801,2.7293,2.7392,2.7996,2.895,2.9566,2.9792,2.9792,2.9792,2.9792,2.9792,2.9792,2.9792,2.9792,2.9792,2.9792,2.9792,2.9792,2.9792,2.9792,2.9792,2.9792,2.9792,2.9792,2.9792,2.9792,2.9792,2.9792,3.0037,3.0871,3.1136,3.1474,3.2263,3.3213,3.3592,3.2764,3.3347,3.4129,3.4737,3.581,3.6492,3.6358,3.6503,3.6342,3.5684,3.5549,3.5504,3.5504,3.5579,3.5609,3.5609,3.5609,3.5654,3.5714,3.5579,3.5504,3.5504,3.5504,3.5504,3.5504,3.5504,3.5878,3.6611,3.715,3.7808,0.0,0.0,0.0,0.0,0.0,0.0,1.6907,0.0,1.5859,0.0,0.0,0.0,0.0,0.0,0.0,0.0,0.0,0.0,0.0,0.0,0.0,0.0,0.0,0.0,0.0,0.0,0.0,0.0,1.7833,1.8992,1.9802,2.0807,2.1365,2.1365,2.1365,2.1112,2.059,2.1459,2.1908,2.192,2.3566,2.4506,2.4813,2.5611,2.6172,2.6499,2.6499,2.6625,2.6864,2.719,2.7745,2.8511,2.9076,2.9503,2.9792,2.9792,2.9792,2.9792,2.9792,2.9792,2.9792,2.9792,2.9792,2.9792,2.9792,2.9792,2.9792,2.9792,2.9792,2.9792,2.9792,2.9792,2.9792,2.9792,3.0203,3.0733,3.1106,3.1877,3.2659,3.3276,3.4005,3.4488,3.4298,3.4624,3.496,3.524,3.5974,3.6357,3.5968,3.6252,3.6237,3.5579,3.5504,3.5504,3.5504,3.5504,3.5504,3.5504,3.5504,3.5504,3.5504,3.5504,3.5504,3.5504,3.5504,3.5504,3.5504,3.5504,3.5848,3.6492,3.712,3.7764,1.8008,0.0,0.0,0.0,0.0,0.0,0.0,0.0,0.0,0.0,0.0,0.0,0.0,0.0,0.0,0.0,0.0,0.0,0.0,0.0,0.0,0.0,0.0,0.0,0.0,0.0,0.0,1.6754,1.8122,1.9447,2.0653,2.1535,2.2073,2.2218,2.223,2.1939,2.129,2.1896,2.223,2.223,2.3586,2.4431,2.4813,2.5523,2.6097,2.6499,2.6499,2.6499,2.6524,2.6927,2.7381,2.7934,2.8486,2.9051,2.9578,2.9729,2.9792,2.9792,2.9792,2.9792,2.9792,2.9792,2.9792,2.9792,2.9792,2.9792,2.9792,2.9792,2.9792,2.9792,2.9792,3.0011,3.0177,3.0177,3.0908,3.1633,3.1924,3.2794,3.374,3.4298,3.4753,3.5161,3.5448,3.5504,3.5504,3.5504,3.5908,3.6043,3.5564,3.5923,3.6028,3.5549,3.5504,3.5504,3.5504,3.5504,3.5504,3.5504,3.5504,3.5504,3.5504,3.5504,3.5504,3.5504,3.5504,3.5504,3.5504,3.5504,3.5744,3.6237,3.7056,3.7929,0.0,0.0,0.0,1.8008,0.0,0.0,0.0,0.0,1.6687,0.0,0.0,0.0,0.0,0.0,0.0,0.0,0.0,0.0,0.0,0.0,0.0,0.0,0.0,0.0,0.0,0.0,0.0,1.7468,1.8143,1.9377,2.1372,2.1992,2.2527,2.3065,2.3078,2.3047,2.3005,2.3047,2.3078,2.309,2.4236,2.4775,2.4825,2.5971,2.6474,2.6499,2.6499,2.6499,2.6499,2.6512,2.6851,2.7369,2.7921,2.8461,2.8988,2.9578,2.9792,2.9792,2.9792,2.9792,2.9792,2.9792,2.9792,2.9792,2.9792,2.9792,2.9792,2.9792,2.9792,2.9792,2.9792,3.0482,3.1143,3.1143,3.1852,3.282,3.3705,3.3973,3.4274,3.5246,3.5487,3.5487,3.5504,3.5504,3.5504,3.5504,3.5519,3.5534,3.5504,3.5534,3.5534,3.5504,3.5504,3.5504,3.5504,3.5504,3.5504,3.5504,3.5504,3.5504,3.5504,3.5504,3.5504,3.5504,3.5504,3.5504,3.5504,3.5504,3.5519,3.5582,3.6947,3.8349,0.0,0.0,1.8008,1.8008,0.0,0.0,0.0,0.0,0.0,0.0,0.0,0.0,0.0,0.0,0.0,0.0,0.0,0.0,0.0,0.0,0.0,0.0,0.0,0.0,0.0,0.0,0.0,1.8232,1.8885,1.9745,2.0901,2.1807,2.2397,2.2556,2.2907,2.3108,2.3108,2.3108,2.3108,2.3108,2.3916,2.4469,2.4813,2.5561,2.6135,2.6499,2.6499,2.6499,2.6499,2.6499,2.6826,2.7344,2.7896,2.8448,2.8963,2.9578,2.9792,2.9792,2.9792,2.9792,2.9792,2.9792,2.9792,2.9792,2.9792,2.9792,2.9792,2.9792,2.9792,2.9934,3.0558,3.097,3.1352,3.1997,3.2855,3.3602,3.391,3.4509,3.51,3.5424,3.5504,3.5504,3.5504,3.5504,3.5504,3.5504,3.5504,3.5504,3.5504,3.5504,3.5504,3.5504,3.5504,3.5504,3.5504,3.5504,3.5504,3.5504,3.5504,3.5504,3.5504,3.5504,3.5504,3.5504,3.5504,3.5504,3.5504,3.5504,3.5504,3.5537,3.7032,3.7932,1.8008,1.8008,0.0,1.8008,1.8008,0.0,1.8008,0.0,0.0,0.0,0.0,0.0,0.0,0.0,0.0,0.0,0.0,0.0,0.0,0.0,0.0,0.0,0.0,0.0,0.0,0.0,1.7118,1.8581,1.9063,1.9688,0.0,0.0,2.2108,2.2297,2.2819,2.3108,2.3108,2.3108,2.3108,2.3108,2.3916,2.4481,2.4813,2.5573,2.6135,2.6499,2.6499,2.6499,2.6512,2.6713,2.7002,2.7356,2.8109,2.8612,2.8963,2.9578,2.9792,2.9792,2.9792,2.9792,2.9792,2.9792,2.9792,2.9792,2.9792,2.9792,2.9792,2.9792,3.0037,3.0457,3.1044,3.1706,3.2357,3.2961,3.3822,3.4543,3.4543,3.5019,3.5504,3.5504,3.5504,3.5504,3.5504,3.5504,3.5504,3.5504,3.5504,3.5504,3.5504,3.5504,3.5504,3.5504,3.5504,3.5504,3.5504,3.5504,3.5504,3.5504,3.5504,3.5504,3.5504,3.5504,3.5833,3.6522,3.5848,3.5848,3.6522,3.6082,3.5894,3.5926,3.7485,3.8129]}]]